GFSCGP_sfc_rhum_000.txt.gz
RH
10 15 19 20 17 15 18 25 25 22 19 42 43 47 43 41 42 44 47 49 48 48 45 46 48 50 58 68 73 75 80 91 94 97 97 97 97 96 96 92 91 91 90 90
13 18 16 16 17 15 15 20 26 24 19 27 46 47 41 41 43 44 47 50 49 56 53 50 55 57 62 65 73 82 81 94 91 96 97 96 97 97 96 96 94 92 87 90
15 14 14 16 17 18 17 25 24 22 21 29 41 54 50 43 39 38 42 45 44 57 56 54 56 59 61 67 82 81 89 90 92 94 97 97 97 97 95 96 96 85 74 77
13 10 13 17 17 16 18 13 16 23 23 39 34 61 55 41 40 39 42 45 46 53 54 57 57 61 60 69 77 82 88 92 92 94 96 93 95 86 93 94 89 77 71 77
12 12 13 15 14 12 12 10 11 24 24 34 41 53 42 46 46 42 41 41 42 47 54 59 58 56 60 66 76 80 88 94 93 94 95 86 79 86 96 94 85 85 82 80
10 11 12 12 10 10 9 11 15 22 29 39 35 37 51 52 36 31 36 39 37 44 52 56 55 54 62 66 72 82 88 91 88 86 77 68 79 85 90 91 84 85 79 92
14 10 10 10 12 11 12 16 21 23 26 25 23 38 31 40 29 28 32 38 36 42 45 54 53 61 69 72 74 82 86 92 76 72 71 69 76 78 81 83 87 87 94 92
16 15 11 9 10 10 13 15 25 27 34 25 23 23 15 34 28 27 26 32 34 41 42 46 46 55 64 69 72 76 83 81 75 73 72 74 78 76 77 82 89 77 84 86
20 18 11 9 8 9 12 20 18 25 51 32 28 23 26 30 31 27 27 32 34 39 43 44 47 53 60 65 71 74 76 71 72 73 81 79 77 84 90 89 78 76 85 78
13 16 11 8 9 10 9 13 20 27 28 32 29 30 33 46 38 35 32 32 33 36 44 44 46 50 58 58 66 71 70 69 69 74 71 71 76 82 83 83 80 85 80 80
9 18 11 15 13 12 18 20 22 22 30 29 31 31 32 37 39 41 36 30 35 38 39 45 46 46 58 56 64 71 71 72 68 73 75 79 82 79 81 83 80 80 81 84
11 16 13 11 11 10 15 17 22 24 25 32 32 32 28 30 33 33 33 35 38 33 37 40 42 44 57 58 67 71 72 72 73 72 88 81 85 84 84 84 80 82 85 83
10 17 17 17 16 16 14 17 24 26 32 31 33 33 28 28 34 28 30 30 34 39 38 38 37 42 52 57 66 71 71 72 77 82 88 83 76 78 84 84 80 82 80 78
20 18 14 15 20 16 16 15 19 21 29 31 30 27 32 31 31 33 32 34 40 46 38 40 40 39 49 55 62 69 72 74 85 87 84 82 66 70 78 82 81 81 81 80
10 16 23 16 11 15 11 12 18 19 19 20 19 25 30 35 35 33 31 34 36 38 53 41 42 45 52 56 60 70 71 82 81 81 82 76 66 71 75 81 80 81 83 81
20 19 20 13 14 10 10 12 14 15 18 25 22 28 30 29 32 35 29 31 34 41 54 49 43 48 53 54 61 68 70 76 82 83 80 83 76 79 76 75 81 87 86 82
22 25 27 21 18 17 19 21 14 17 22 16 22 19 28 36 32 32 30 28 29 31 37 59 60 63 53 54 58 65 68 82 84 86 86 87 83 86 74 73 83 84 83 85
31 29 31 26 23 26 18 20 19 29 31 33 23 28 29 33 35 35 32 29 28 26 28 39 56 64 56 54 60 69 82 82 83 88 83 77 76 78 73 79 81 79 89 92
48 49 62 34 29 24 25 30 28 28 33 37 39 33 29 30 34 38 28 28 28 28 32 37 44 63 70 57 62 68 81 82 84 85 84 76 72 72 76 81 88 80 92 91
36 52 52 70 36 33 40 40 34 33 49 35 38 38 32 32 43 44 40 30 33 38 39 41 47 80 81 69 66 66 78 83 88 84 77 70 71 70 76 80 86 75 92 96
53 56 61 73 67 49 41 45 35 46 47 47 36 37 36 38 43 41 37 36 39 41 42 46 71 74 76 67 68 80 82 82 84 81 76 70 70 67 67 73 89 94 97 98
77 69 77 76 55 55 46 43 55 54 52 40 41 44 46 50 47 46 37 30 30 35 42 50 68 83 74 62 68 85 83 92 91 90 89 89 86 91 76 92 97 97 97 96
72 81 89 92 89 78 68 57 71 62 50 45 43 40 41 42 48 47 41 43 38 36 40 53 73 96 92 84 90 94 96 94 93 91 96 90 87 93 94 97 98 98 95 97
64 70 85 78 69 80 70 55 50 54 55 48 51 56 51 48 42 40 49 60 71 85 72 92 91 94 97 93 91 93 95 93 91 93 94 93 92 94 92 96 97 97 97 97
72 73 83 83 75 69 53 50 46 48 48 45 45 45 49 54 72 75 75 85 89 90 90 88 90 92 94 91 92 91 90 89 91 90 91 92 90 95 99 100 99 98 98 97
68 72 88 92 85 82 75 68 56 43 46 47 44 33 37 43 69 79 74 84 89 91 90 94 96 94 92 92 94 95 92 90 90 90 82 94 96 99 99 100 100 99 99 98

GFSCGP_sfc_rhum_003.txt.gz
RH
10 13 19 15 18 17 18 25 34 31 30 44 50 54 55 53 54 57 58 57 56 55 50 52 55 56 61 70 80 86 89 94 96 98 99 98 98 97 97 97 93 92 92 94
13 16 13 14 18 16 15 15 24 28 32 43 54 56 46 47 50 50 51 52 52 52 52 52 53 55 60 71 76 80 81 94 94 98 98 97 98 97 96 96 96 95 92 93
13 12 13 16 19 20 21 22 21 27 32 45 50 63 56 49 46 44 44 45 47 51 55 53 55 56 60 70 78 78 81 90 94 96 98 98 98 98 98 98 99 97 92 92
13 10 13 19 19 19 35 16 16 24 31 49 46 70 60 52 51 50 49 50 49 54 51 51 56 64 64 67 72 78 83 92 93 95 96 96 98 98 96 96 98 92 82 82
12 12 14 18 19 16 18 15 15 23 27 47 51 57 59 54 62 52 48 47 48 54 51 53 54 59 62 64 76 80 90 95 94 96 95 98 96 92 92 96 94 88 87 85
9 11 12 13 12 13 15 14 18 31 39 49 50 45 52 57 50 46 42 44 48 51 52 53 52 55 62 66 73 85 94 94 96 96 97 96 86 89 97 95 93 88 85 88
16 11 12 13 15 15 14 17 25 38 47 51 39 46 39 43 37 38 40 40 46 47 54 57 59 60 65 74 75 83 90 92 96 96 96 91 77 89 93 92 87 92 94 96
19 16 13 11 14 16 16 17 25 25 37 33 36 51 34 27 32 32 33 34 41 44 50 57 59 60 61 70 75 78 86 86 95 92 86 76 81 84 90 89 92 86 90 87
21 18 12 11 10 12 16 19 15 22 54 35 33 26 19 35 34 32 31 31 41 41 47 56 57 60 59 66 73 76 81 82 87 78 74 72 80 83 83 88 87 76 81 81
15 19 14 10 11 12 11 15 21 29 31 39 31 29 27 30 44 40 36 32 37 40 46 54 56 58 61 61 66 70 74 80 81 69 64 69 79 81 85 89 82 77 82 82
15 16 14 13 15 14 22 22 25 24 32 31 32 30 31 26 45 43 37 31 34 43 49 50 52 51 57 60 64 69 74 78 79 69 66 75 79 86 86 85 81 81 82 80
13 17 15 13 14 13 13 16 17 18 28 38 32 27 23 30 44 39 36 33 40 42 48 48 49 49 52 57 62 68 71 72 73 69 84 76 82 81 87 88 80 81 81 82
14 18 20 18 18 20 17 21 26 27 35 40 32 30 29 39 42 46 45 44 41 40 50 52 49 49 49 57 60 64 70 70 72 75 83 86 92 89 91 87 81 82 83 83
20 21 12 14 16 18 18 20 23 22 30 32 30 24 33 33 36 42 45 45 44 39 42 47 50 50 48 53 60 66 70 70 80 79 78 87 88 86 79 77 80 82 84 81
11 15 18 10 11 16 15 16 22 20 20 20 22 25 28 32 33 36 35 39 42 45 42 40 43 46 50 53 62 67 70 76 82 80 83 80 88 80 77 84 82 80 78 73
16 16 22 18 13 12 12 13 18 16 22 22 22 26 25 25 40 39 33 34 39 49 44 40 39 42 45 50 61 64 71 76 85 86 84 87 89 82 69 79 82 81 72 75
26 17 26 15 19 17 22 17 18 21 27 20 24 21 29 39 36 35 35 33 37 43 60 51 48 50 49 52 56 63 70 81 90 88 89 92 91 84 73 69 80 80 72 79
34 24 31 14 25 27 21 29 22 32 33 42 37 24 30 30 28 31 38 35 37 40 44 60 57 55 60 57 60 68 85 90 91 90 90 89 88 85 74 83 78 72 76 79
56 38 53 35 30 25 34 36 34 23 35 42 47 38 39 40 36 38 33 38 36 36 39 48 68 74 73 71 68 73 89 91 91 92 92 96 89 77 84 77 69 65 89 92
53 57 43 66 31 33 40 38 45 38 40 36 36 42 40 40 38 46 46 34 40 36 41 46 54 67 79 82 81 82 90 92 92 88 87 86 82 75 83 75 72 70 90 93
77 65 60 62 66 49 52 52 45 42 46 49 46 46 42 47 51 44 46 48 46 45 49 55 64 69 82 89 84 89 92 91 88 90 91 91 81 83 88 88 93 92 97 98
73 65 85 79 66 62 47 50 45 50 54 55 53 55 55 57 54 47 46 41 36 38 40 49 64 90 91 83 85 95 95 93 94 94 89 85 91 87 92 94 95 94 97 97
72 74 89 83 78 67 75 62 65 61 46 53 49 55 49 50 47 46 51 49 51 58 70 64 64 90 88 89 92 94 95 95 96 96 95 94 95 93 94 95 93 94 96 99
65 68 82 77 61 72 65 55 56 54 55 52 51 47 45 52 55 60 63 70 78 81 90 93 95 95 94 95 94 96 97 95 95 95 95 95 93 93 95 98 97 99 99 98
72 68 79 70 67 58 46 61 56 47 43 38 39 48 52 50 56 61 58 63 72 82 91 95 97 98 98 98 98 95 93 90 94 97 98 96 97 93 97 100 100 99 98 99
75 83 84 90 80 74 65 50 45 40 39 41 38 37 38 42 52 70 78 92 93 94 97 98 97 96 97 96 95 95 96 94 94 95 94 93 95 95 99 99 100 99 99 98

GFSCGP_sfc_rhum_006.txt.gz
RH
11 15 19 21 20 28 28 38 34 39 36 47 57 64 69 61 60 63 62 64 65 64 60 61 62 63 69 74 86 90 93 95 96 98 99 99 98 97 95 95 94 92 91 92
18 16 14 15 19 21 29 31 35 33 36 43 62 62 65 63 61 60 61 61 61 59 63 62 64 64 69 74 84 91 90 94 93 97 97 96 97 96 93 94 94 93 92 93
16 14 13 18 22 19 25 20 24 28 43 51 54 67 68 64 60 58 56 56 56 58 60 61 62 66 66 74 82 87 88 90 94 96 98 99 98 98 98 97 97 96 93 93
12 10 13 19 22 22 27 19 18 32 42 52 48 58 72 58 63 56 54 55 55 55 54 56 59 64 64 70 76 82 86 87 93 97 96 96 98 98 97 96 97 96 92 91
15 13 15 22 18 18 18 19 21 34 43 54 66 53 51 59 67 56 50 49 49 49 51 56 55 57 60 65 75 79 86 90 94 96 94 94 97 96 89 93 96 95 89 84
14 12 13 12 16 16 15 15 24 38 47 57 49 48 49 75 54 47 47 47 48 49 52 54 54 56 62 65 72 78 89 90 94 95 95 95 95 94 94 95 96 90 86 86
18 11 14 14 16 20 17 23 31 37 54 52 52 60 36 42 44 39 43 46 47 47 54 55 59 61 67 75 76 80 86 89 94 95 95 95 94 92 91 94 92 89 86 89
19 15 13 13 15 18 20 21 30 31 40 44 53 61 42 28 30 39 40 40 43 47 52 54 57 59 65 70 73 78 85 86 94 94 95 96 94 86 88 91 89 86 85 86
22 19 14 13 13 12 20 22 20 28 42 35 42 32 24 26 30 41 40 45 44 48 52 55 56 58 62 66 71 77 83 85 92 93 95 96 92 88 88 91 88 85 87 82
17 21 14 11 15 16 15 17 21 30 35 46 36 35 32 31 31 37 46 44 43 45 51 54 57 59 60 58 63 71 76 82 87 89 91 87 85 84 84 87 89 86 84 83
17 19 16 15 14 13 21 23 27 27 32 32 33 34 30 26 30 33 42 38 40 43 49 53 58 58 58 56 60 69 75 81 87 87 85 79 77 80 81 83 85 84 81 85
15 16 18 16 15 14 13 17 20 20 29 39 33 26 22 26 30 42 39 38 42 46 49 53 57 58 60 60 58 65 71 76 80 81 83 79 68 78 77 84 85 86 84 86
18 20 18 18 16 23 18 23 25 28 33 40 30 27 27 37 40 50 48 47 49 56 60 56 58 61 61 62 63 63 68 71 74 81 83 78 79 83 88 88 87 87 84 84
32 20 15 16 14 16 22 21 25 21 32 33 33 23 24 34 42 49 53 50 50 53 60 62 60 60 59 61 66 68 67 69 76 78 81 83 80 82 87 89 86 86 84 84
18 18 17 12 14 18 17 19 25 24 23 23 20 26 23 32 38 42 48 55 55 53 57 63 59 62 66 69 70 69 68 74 78 81 83 80 81 78 88 90 90 88 84 82
27 20 22 14 12 15 14 16 23 22 26 23 26 26 23 33 43 44 47 52 53 52 47 50 57 64 68 67 71 70 73 72 81 84 84 83 87 88 84 90 89 89 84 82
44 25 29 19 19 18 22 12 16 22 25 21 26 22 27 38 38 39 43 46 44 46 49 56 53 57 59 64 68 73 75 80 87 90 88 88 89 90 96 98 96 91 83 80
70 35 33 19 32 32 16 24 13 16 35 33 36 28 33 34 39 42 45 39 42 50 55 59 55 59 62 62 65 75 83 88 91 94 91 92 91 91 94 94 91 91 88 86
70 46 38 33 33 30 43 44 36 29 37 47 44 47 40 38 39 45 45 47 48 54 58 61 60 60 68 71 74 79 89 92 95 95 94 92 91 91 92 93 92 84 90 91
55 64 59 58 36 43 48 54 53 52 42 47 48 48 46 45 37 52 52 44 44 50 53 59 61 65 71 76 81 84 89 94 96 94 93 92 91 91 93 93 92 90 94 94
74 76 69 68 64 57 62 58 54 39 46 60 55 52 44 52 51 49 54 52 55 60 59 62 69 74 78 84 88 91 94 93 94 93 92 93 94 95 94 96 96 97 97 98
66 85 90 81 69 66 60 58 46 54 60 60 56 61 60 61 58 61 59 60 60 61 61 59 65 72 82 87 86 94 93 94 95 95 95 94 96 96 97 95 98 97 96 94
73 78 90 82 80 78 76 74 68 61 45 50 58 57 62 60 65 65 67 67 75 78 80 84 83 86 90 88 90 95 96 96 96 94 95 95 95 96 96 97 97 97 94 96
74 74 75 84 71 75 68 65 59 60 59 55 57 63 66 72 78 80 78 78 81 82 84 89 89 94 97 96 94 97 98 96 95 96 96 96 96 96 96 97 97 96 95 96
83 69 72 78 74 71 56 67 72 58 50 49 50 56 62 58 62 59 74 91 90 92 96 93 95 98 99 98 99 97 94 92 94 94 96 97 97 97 98 98 99 99 100 99
91 92 74 81 70 67 69 66 67 53 52 53 49 49 53 54 61 60 62 86 92 94 96 95 98 98 98 97 96 95 92 89 93 96 97 98 98 98 98 99 100 99 100 99

GFSCGP_sfc_rhum_009.txt.gz
RH
11 9 9 10 15 15 18 24 24 28 28 31 34 33 47 49 48 49 54 56 55 52 49 51 54 54 57 61 67 72 75 78 78 71 77 78 69 76 68 84 74 74 77 77
11 10 9 9 11 17 23 23 24 26 28 28 36 34 39 48 49 46 49 52 52 50 51 56 54 53 54 61 68 73 76 78 79 71 74 69 71 69 66 69 78 75 74 77
10 8 9 13 13 14 21 23 25 24 28 33 33 31 43 47 45 46 44 42 43 47 49 52 55 53 53 60 68 71 77 78 79 78 76 80 78 77 73 72 71 72 74 76
10 7 9 12 14 12 15 19 21 25 27 30 28 31 35 38 50 48 44 44 42 44 45 46 50 54 53 58 61 69 74 78 77 83 79 83 71 70 66 69 68 70 76 75
13 9 11 11 12 14 14 16 18 22 24 31 38 32 23 42 45 45 43 41 40 39 40 44 46 48 49 52 57 63 74 80 78 83 81 76 78 67 68 69 79 81 82 77
12 9 7 9 11 14 14 16 20 27 23 28 22 30 20 41 39 33 35 38 39 38 39 41 42 45 49 49 54 60 75 82 80 81 82 84 81 78 73 72 67 67 69 69
16 12 8 8 11 14 13 15 22 26 29 23 25 36 24 21 28 27 28 35 36 36 38 40 45 46 50 55 58 60 73 80 78 78 79 81 81 82 83 78 66 69 68 66
22 18 12 8 8 14 15 13 18 30 25 20 35 33 21 21 18 25 26 28 31 33 33 37 42 47 51 53 59 61 68 77 76 76 82 82 82 71 70 74 63 63 63 62
19 18 9 8 10 11 16 18 10 16 21 18 19 28 20 19 21 23 25 28 32 33 34 38 41 44 50 54 61 64 69 73 72 71 79 81 81 80 74 77 74 65 72 57
16 18 8 8 8 11 12 11 15 17 29 29 20 24 15 21 20 22 28 28 30 34 37 37 40 43 47 48 52 58 63 69 69 69 72 72 77 80 78 78 77 72 68 67
13 13 11 11 10 9 12 13 17 13 16 21 21 17 19 22 25 20 24 26 28 34 39 38 42 42 46 46 48 53 57 65 65 69 72 73 74 80 78 76 80 80 72 72
13 14 18 12 9 9 8 12 14 15 28 19 17 14 13 18 17 18 18 22 26 37 40 39 41 43 43 46 46 48 51 53 60 65 73 74 76 77 80 77 68 72 83 70
16 17 20 17 12 11 12 10 11 12 15 27 18 15 16 20 23 22 26 27 35 39 41 42 41 46 46 46 51 47 50 46 48 60 65 71 75 74 76 75 70 75 76 70
30 22 24 20 19 12 13 12 12 12 14 16 17 14 15 17 25 24 28 34 36 41 46 45 46 52 52 54 58 56 51 46 48 52 62 73 73 72 74 76 70 74 82 78
26 31 25 19 16 12 11 9 11 16 15 16 14 18 15 21 22 24 25 34 40 42 44 48 49 58 62 61 62 59 53 56 54 62 64 71 73 71 71 79 93 94 95 88
23 33 24 21 17 13 12 11 10 12 11 15 11 17 14 17 21 27 29 38 40 41 42 46 48 51 56 58 61 58 60 58 62 68 70 71 75 75 80 87 87 93 95 97
45 35 36 30 15 15 18 13 12 12 12 14 16 15 16 19 25 26 27 36 39 38 40 43 48 52 52 52 54 56 60 60 66 74 72 74 77 80 83 86 89 91 96 94
56 60 43 32 25 27 14 10 10 12 12 14 13 17 21 22 24 28 32 32 36 36 37 41 38 45 50 44 44 52 56 68 71 76 76 77 80 80 82 87 88 92 95 92
41 48 58 38 27 22 18 22 14 13 14 14 18 20 20 21 28 34 35 29 31 36 41 42 39 43 52 49 52 58 62 66 69 73 78 79 80 81 84 88 91 92 96 92
49 60 49 50 44 31 40 43 42 40 22 35 35 32 27 28 20 28 40 31 33 35 38 44 45 48 49 54 52 60 59 66 70 71 75 78 81 81 84 88 93 88 85 88
71 74 55 60 58 32 52 47 44 32 27 42 36 36 35 35 40 46 43 48 48 47 50 51 49 52 56 60 58 62 65 67 66 72 77 83 86 86 85 93 94 90 93 97
55 71 91 74 63 48 50 49 41 49 48 43 43 44 47 46 46 46 45 47 48 48 48 45 53 58 62 64 63 72 76 79 79 81 83 88 91 89 93 95 96 91 94 97
64 69 89 79 72 59 52 60 52 44 46 44 48 44 52 52 54 54 57 58 60 61 63 57 56 68 69 72 71 79 84 85 85 86 90 90 89 88 92 88 94 95 93 77
65 49 57 82 87 66 56 45 44 46 48 49 49 48 46 52 59 62 61 62 64 65 66 61 63 69 82 80 80 86 89 85 86 88 89 88 87 88 86 80 83 92 94 87
74 74 66 58 67 59 53 57 53 49 44 43 43 44 49 48 54 59 66 70 71 72 72 70 71 77 85 84 85 83 84 83 83 84 81 79 73 76 81 83 89 74 85 92
89 87 64 50 72 68 66 57 48 50 50 45 43 45 47 48 51 52 64 68 74 77 75 77 80 82 87 84 87 86 84 82 80 78 71 67 63 65 65 74 88 99 98 100

GFSCGP_sfc_rhum_012.txt.gz
RH
7 8 8 8 9 9 10 12 14 13 17 21 20 20 24 29 27 27 32 34 32 31 30 34 38 38 40 45 52 58 61 64 73 54 51 51 48 50 50 51 59 60 60 61
7 8 6 6 7 9 10 12 13 13 19 20 18 21 20 24 30 28 29 32 33 30 30 36 38 38 38 46 52 59 63 67 69 52 69 51 50 43 45 46 63 61 59 64
8 5 5 6 7 10 12 12 12 16 20 19 18 22 22 19 24 27 26 26 29 30 30 34 37 38 38 44 52 58 65 67 67 66 63 65 64 64 54 51 52 56 61 62
7 4 5 7 8 9 12 9 11 14 19 23 19 22 18 17 23 26 28 27 25 29 31 31 34 38 38 42 46 56 63 68 65 68 65 71 54 48 40 43 41 45 56 58
10 6 7 7 7 7 11 9 12 12 16 18 21 23 18 17 20 22 24 26 24 23 27 32 32 35 36 39 43 50 62 68 68 70 72 59 67 45 42 43 56 63 61 58
9 6 5 5 5 6 8 10 11 12 13 21 18 20 16 14 20 16 18 22 25 22 23 27 29 32 36 36 40 46 62 73 69 69 72 73 66 61 46 54 49 44 43 50
11 8 5 4 6 6 9 12 20 22 20 19 16 18 18 11 11 12 11 17 22 21 22 25 30 32 37 40 42 45 58 71 68 68 69 71 70 69 67 63 52 47 40 40
14 12 8 6 6 8 10 11 16 29 19 17 16 21 15 12 10 9 11 12 18 21 18 22 27 31 37 39 43 46 54 67 66 66 71 73 72 57 55 59 42 41 37 39
13 13 7 6 6 6 10 13 9 13 12 14 12 16 12 11 12 12 11 14 17 20 19 21 25 29 34 38 44 51 59 62 61 60 67 72 71 69 56 60 60 46 51 38
13 16 9 7 6 6 8 9 13 12 25 24 15 16 15 15 11 10 14 15 16 20 21 18 22 26 30 33 37 43 48 57 57 57 60 60 64 67 64 63 67 59 51 55
11 13 10 9 8 8 8 10 12 11 13 18 19 15 11 13 12 10 9 14 13 18 22 21 20 23 28 29 33 37 43 51 53 53 59 60 58 59 65 65 68 66 61 61
13 12 16 9 5 5 7 10 12 14 23 14 14 12 8 9 9 9 8 8 10 15 20 22 22 23 26 30 30 32 36 40 45 50 59 59 59 60 60 72 67 74 72 61
12 16 19 15 7 6 7 7 9 10 12 22 17 14 8 9 11 12 13 12 14 19 22 24 23 27 28 28 32 30 33 32 33 45 46 52 56 59 63 68 67 81 68 75
22 13 18 15 16 10 11 8 7 8 12 15 13 14 11 10 11 10 9 13 14 24 27 28 28 32 32 34 39 40 33 31 32 33 42 53 57 58 60 67 76 70 78 72
12 27 19 14 11 10 9 8 8 9 10 14 12 12 12 12 11 10 9 9 15 25 29 32 32 39 45 44 45 44 38 38 36 40 40 49 57 59 61 66 73 69 75 81
16 30 24 21 14 13 13 11 9 8 8 9 9 11 8 9 10 10 10 10 14 25 28 32 35 37 42 44 46 44 46 42 44 48 47 52 60 68 68 71 76 81 78 80
23 24 31 30 16 16 19 15 13 11 8 7 10 10 9 10 10 11 10 12 16 22 27 31 34 36 40 41 45 46 48 47 50 56 55 57 63 71 77 76 78 84 79 86
33 38 30 27 26 34 15 10 12 12 10 7 8 9 10 11 11 10 11 10 12 21 24 30 27 32 38 34 36 42 46 55 56 60 61 62 66 70 80 84 85 81 76 89
24 33 32 31 28 20 19 22 18 16 14 8 9 9 8 8 10 17 21 20 20 21 25 28 26 33 43 38 39 44 46 53 55 58 63 63 66 69 76 84 87 88 78 86
23 33 30 33 33 33 36 34 32 32 28 11 9 11 10 9 16 12 25 22 20 22 28 32 30 35 40 39 38 44 44 49 54 54 59 62 66 69 75 78 86 90 85 85
38 35 29 33 35 30 42 35 32 41 26 36 10 10 10 12 19 32 32 31 28 28 32 34 38 40 43 40 40 48 46 48 47 50 56 64 68 73 78 85 85 88 85 80
41 38 29 30 45 44 42 35 47 52 42 34 29 20 22 32 36 37 38 41 42 42 40 37 43 46 46 46 48 52 55 54 57 60 62 69 79 76 82 93 93 89 89 80
34 26 32 35 35 52 46 53 47 41 42 36 34 32 34 35 39 39 40 39 37 36 33 34 42 52 54 51 50 57 70 67 67 70 73 84 86 84 89 93 95 88 91 75
37 34 37 50 60 52 47 44 43 41 42 38 34 32 33 37 37 41 42 42 43 41 40 39 43 52 62 63 63 68 71 71 72 82 89 88 90 90 87 85 82 80 84 71
56 51 46 55 60 55 57 51 42 39 38 39 35 38 44 45 49 54 54 53 51 52 49 47 49 55 65 70 71 69 72 72 74 80 77 82 80 80 84 87 86 83 82 88
87 79 42 44 58 62 75 59 42 40 38 38 39 40 36 38 43 47 48 52 54 59 59 60 63 62 66 70 72 73 72 70 70 70 60 54 54 63 65 64 65 96 90 99

GFSCGP_sfc_rhum_015.txt.gz
RH
7 7 7 8 8 8 9 10 10 10 10 14 16 16 17 19 18 18 20 21 22 23 24 25 28 28 30 35 43 50 55 64 55 55 67 59 50 55 40 39 50 59 62 63
7 7 5 6 7 8 9 10 10 10 11 13 15 16 15 19 20 19 20 20 21 21 21 26 28 28 31 37 45 56 60 67 64 56 59 62 55 38 39 40 50 52 53 60
6 5 4 6 8 9 9 10 10 10 14 13 14 19 16 14 18 19 18 18 19 20 19 24 28 30 31 38 45 55 65 67 66 67 58 60 65 50 45 40 47 52 55 54
6 4 4 5 7 7 10 8 8 9 17 20 12 18 18 14 15 18 19 18 19 19 19 21 26 31 30 36 41 53 62 68 65 72 60 74 55 48 37 39 36 42 49 49
8 5 5 6 6 6 9 7 9 9 12 20 13 15 15 13 15 15 16 18 18 18 19 20 23 28 29 32 36 46 63 70 69 71 70 57 65 39 36 35 54 59 61 51
7 5 4 4 4 6 6 8 9 9 10 17 16 16 17 17 14 13 12 15 18 18 17 21 22 25 29 29 34 42 64 74 73 70 72 74 70 60 43 47 46 42 40 47
9 7 5 4 5 5 7 8 14 16 15 15 12 14 21 12 11 11 10 12 15 18 18 19 24 24 30 34 38 42 61 74 72 68 67 70 70 69 65 58 47 48 37 38
12 11 7 5 5 6 7 8 12 24 16 14 12 16 12 10 9 8 8 8 10 15 16 17 20 25 30 33 40 44 56 70 71 67 72 73 73 52 51 56 43 39 35 38
11 12 6 6 5 4 6 8 6 10 11 13 12 11 10 10 10 9 9 8 8 14 16 17 18 21 28 32 41 46 55 64 66 59 70 74 72 70 53 60 62 43 51 35
10 13 8 6 5 5 5 4 8 10 23 23 13 14 13 14 13 11 10 9 9 12 16 16 17 20 24 27 33 41 47 59 59 58 62 63 67 70 67 63 65 59 52 53
8 11 11 8 8 8 6 6 7 8 11 16 17 14 10 14 13 12 10 8 8 10 15 16 16 18 22 24 28 34 41 51 55 55 58 61 60 61 67 64 63 64 65 61
8 10 15 10 7 6 6 6 6 11 21 13 13 11 8 8 9 9 9 8 8 9 13 15 15 17 20 23 24 28 33 36 45 49 58 60 61 61 60 67 64 68 69 61
9 13 16 15 8 7 8 6 6 6 10 21 16 13 8 8 9 9 9 9 9 10 11 15 15 17 19 22 26 23 28 27 31 45 47 55 58 61 62 66 64 68 72 68
20 12 17 15 16 8 10 7 6 6 9 13 12 13 11 10 10 10 10 10 9 10 18 15 17 20 21 25 31 30 26 24 26 32 37 50 57 58 58 62 66 67 72 72
11 19 15 12 11 9 7 6 6 7 9 12 11 12 11 11 11 10 9 9 10 9 14 21 21 27 32 32 35 35 29 31 28 35 36 45 56 59 60 63 67 68 73 72
10 19 17 16 10 10 10 8 7 7 6 7 8 9 7 8 10 10 9 10 10 10 10 20 24 26 33 35 37 38 38 34 35 42 41 47 59 63 64 66 69 74 77 76
16 17 21 23 15 14 16 11 10 9 8 8 10 9 8 9 11 10 10 10 11 10 11 14 22 27 30 32 39 38 43 39 43 48 49 51 62 66 70 69 74 79 79 78
18 24 19 21 22 30 16 10 9 10 10 9 9 9 8 12 11 10 9 9 11 12 12 12 17 25 31 28 29 36 38 51 52 57 56 58 62 66 72 75 75 83 81 82
15 20 23 24 22 21 19 20 20 25 22 10 10 10 8 7 7 10 8 9 10 10 10 11 18 22 35 34 37 42 42 50 52 57 61 61 62 65 69 75 79 84 83 84
18 25 25 26 29 31 23 25 22 21 24 12 14 16 10 7 8 9 9 7 8 12 12 13 21 24 32 38 32 42 43 48 54 54 57 60 63 67 69 76 83 82 82 84
22 25 27 26 28 20 29 25 22 32 28 33 28 28 23 15 9 10 13 10 11 15 17 22 26 32 42 40 34 48 47 49 47 47 50 58 63 68 69 78 83 82 85 84
24 27 24 25 29 30 30 25 30 43 39 32 28 27 26 22 10 19 26 26 23 22 24 28 33 38 41 40 45 53 55 52 53 55 56 63 68 60 69 85 88 87 89 90
23 20 22 29 34 47 39 39 38 36 37 34 32 26 23 19 26 29 33 34 33 34 34 31 36 45 45 49 50 58 65 61 61 65 67 68 78 78 84 87 91 86 89 86
58 23 22 39 46 43 40 37 36 37 37 37 33 28 26 31 32 34 34 33 35 37 40 40 44 48 56 56 56 63 65 64 66 70 84 86 86 88 85 78 80 83 86 86
96 79 40 49 48 46 42 39 38 36 35 42 49 49 48 45 48 48 48 43 38 39 39 44 50 55 61 63 64 62 65 65 71 82 86 86 80 81 85 82 85 85 87 90
95 96 92 74 47 50 54 41 35 38 37 36 42 48 53 46 50 48 50 50 49 48 48 50 53 58 63 66 69 68 67 69 73 79 75 65 72 75 72 74 69 98 94 99

GFSCGP_sfc_rhum_018.txt.gz
RH
10 10 11 9 8 9 9 10 10 13 13 12 31 52 51 31 17 16 19 20 22 24 24 26 28 28 31 41 52 59 63 71 69 71 66 69 67 68 64 64 73 74 74 72
9 11 8 6 8 8 9 10 11 11 16 15 16 36 32 26 18 17 18 18 18 19 22 27 30 28 31 42 52 64 67 75 72 69 74 71 68 64 61 62 75 74 74 78
10 7 5 5 8 9 10 10 11 11 12 12 13 15 18 16 16 17 15 17 17 19 20 28 30 31 33 43 54 63 70 74 73 73 73 81 81 78 73 70 75 70 69 75
9 6 5 5 6 8 11 8 8 9 13 19 14 23 24 18 20 19 17 17 18 19 20 23 29 34 32 41 50 63 70 74 74 75 74 77 69 76 67 68 65 70 70 68
9 7 6 6 5 6 9 8 9 9 12 19 20 21 20 19 21 20 18 17 16 19 18 21 26 31 32 37 46 57 72 76 76 78 76 75 74 64 60 58 74 79 79 66
7 5 5 4 4 4 6 8 8 9 10 17 17 20 21 18 22 17 16 16 17 17 19 21 23 29 34 34 43 51 73 78 76 78 79 81 78 73 64 68 69 71 68 69
10 8 5 4 5 4 5 7 14 16 15 16 13 21 24 18 16 16 25 16 17 18 19 21 24 29 36 39 44 52 70 78 77 75 79 78 78 79 77 75 67 68 61 63
13 12 7 5 6 6 6 6 12 25 18 15 12 15 16 15 16 15 19 13 14 17 16 19 24 26 36 38 44 50 68 77 77 75 79 81 79 70 66 71 65 66 63 61
11 12 6 6 5 5 6 7 6 10 10 13 11 11 9 11 15 14 12 11 10 16 17 19 23 26 34 38 44 51 67 74 76 74 77 80 79 77 69 74 73 64 70 63
9 13 7 6 5 5 5 5 7 8 20 22 14 17 15 15 20 16 17 11 10 10 18 18 20 25 29 34 39 46 56 70 73 72 73 72 76 76 73 74 76 70 70 68
7 10 10 8 9 8 7 7 7 6 9 15 19 16 12 18 19 17 14 12 10 11 16 16 19 20 28 30 37 42 49 64 70 71 72 73 73 74 74 74 72 73 72 72
7 9 14 10 7 6 6 7 7 10 19 11 13 13 8 12 12 13 12 12 11 12 14 16 18 20 24 29 33 39 44 50 61 67 70 72 74 74 74 75 74 74 75 75
9 11 17 13 9 8 8 7 7 6 8 18 15 14 9 17 17 16 14 12 14 17 19 18 17 21 23 27 33 35 41 42 49 61 62 67 69 72 73 76 73 75 76 75
16 10 16 14 16 10 12 8 8 7 9 12 11 13 13 18 18 15 16 15 14 20 26 20 19 23 24 29 36 38 38 37 42 52 56 64 68 68 68 72 76 73 76 77
10 20 14 11 10 10 10 8 8 10 11 12 10 12 13 13 19 16 15 14 16 19 21 24 24 33 35 36 39 38 35 39 38 50 52 60 66 68 69 72 75 75 76 79
9 22 17 16 10 10 11 9 8 8 8 9 8 9 7 10 12 17 15 15 17 18 18 25 28 33 38 37 40 38 38 38 40 48 52 58 65 70 71 74 74 80 78 80
17 15 24 23 14 13 16 13 10 7 7 7 10 11 10 11 13 15 16 15 18 16 17 22 29 31 33 35 40 39 40 40 43 51 53 57 64 70 73 73 77 78 80 81
22 27 21 20 21 27 14 9 9 10 9 7 9 10 11 12 12 12 12 16 21 16 17 22 15 28 35 26 28 37 39 48 52 54 57 59 64 69 73 75 76 79 79 84
13 23 24 26 22 17 14 12 12 12 13 10 12 15 11 10 10 13 10 10 13 15 20 20 13 16 39 34 37 41 45 47 50 56 61 60 64 70 74 77 79 79 82 87
11 27 23 25 28 30 20 12 17 18 25 21 21 21 18 18 23 17 12 9 9 10 11 17 18 21 37 40 35 45 43 52 53 52 59 64 68 74 76 80 83 84 86 86
28 32 28 25 26 19 26 19 18 33 30 30 28 27 25 27 28 30 24 16 22 16 14 17 29 35 43 45 38 52 49 55 55 54 64 68 72 76 78 84 85 90 89 88
33 31 31 32 36 35 24 28 32 36 34 27 29 28 30 29 26 26 25 23 24 26 17 24 41 45 49 48 52 60 64 64 66 67 69 74 77 69 73 88 88 90 92 93
30 25 26 28 27 52 31 36 36 31 35 41 43 31 26 24 25 22 30 30 27 31 33 28 41 56 56 58 62 66 76 71 70 71 76 77 79 83 90 91 92 91 91 92
33 59 41 35 38 39 38 33 33 33 43 44 44 45 45 31 30 32 34 35 40 42 40 45 51 57 66 67 67 71 70 72 73 79 86 88 88 90 89 91 88 89 90 88
80 77 69 43 46 43 40 37 37 40 44 48 52 54 56 62 72 49 56 55 52 58 61 65 66 66 71 76 75 71 75 77 85 87 86 88 87 88 91 93 96 87 88 87
88 93 95 88 90 59 54 41 37 39 42 44 48 53 57 64 71 66 69 68 60 61 66 71 75 78 76 77 77 76 80 82 83 84 79 81 87 84 80 82 83 98 97 99

GFSCGP_sfc_rhum_021.txt.gz
RH
13 18 18 14 10 11 12 12 13 11 14 34 33 29 27 23 30 31 30 31 32 33 32 35 34 36 45 56 57 61 70 71 69 78 79 90 84 84 78 75 80 83 84 81
14 16 14 11 10 9 11 12 13 11 14 29 39 35 31 26 23 29 26 29 30 31 31 35 34 35 42 56 56 62 68 84 70 73 84 83 83 82 81 81 80 74 82 86
14 15 11 10 11 11 11 13 13 14 16 22 38 45 46 25 25 25 22 24 27 29 30 35 34 36 40 53 64 63 67 82 81 78 84 91 91 88 80 74 81 80 82 85
13 10 10 11 10 9 14 10 10 11 15 28 29 45 46 28 26 27 23 22 24 26 28 33 34 37 37 52 61 65 70 79 77 83 78 86 85 90 80 74 83 76 85 85
12 12 11 10 8 6 10 10 11 11 14 25 22 28 39 33 32 28 23 22 20 22 25 31 35 34 37 48 56 67 68 70 73 80 74 81 84 71 77 80 82 92 84 81
10 8 9 10 7 6 6 9 11 12 14 23 24 24 37 32 29 25 22 22 20 20 22 29 31 34 36 46 54 68 74 74 79 73 84 84 86 81 82 87 93 83 87 84
14 11 8 7 9 6 6 11 16 20 21 25 22 26 36 24 21 23 22 21 21 21 21 23 32 36 38 48 57 68 73 77 76 80 77 82 82 76 83 87 77 88 87 84
17 19 12 8 8 9 7 7 13 27 24 21 19 26 25 18 17 19 19 19 18 19 21 23 30 33 38 43 55 66 74 75 79 78 81 80 87 71 80 84 82 72 72 73
15 16 11 9 8 7 10 8 7 14 17 24 18 17 13 19 16 18 20 16 18 18 22 24 26 31 38 42 55 58 76 75 76 79 81 80 80 83 87 82 85 74 67 72
14 23 12 10 8 7 7 9 10 8 15 20 16 20 21 21 21 24 24 23 19 19 21 24 25 30 37 39 48 55 72 74 76 72 78 81 79 77 84 85 82 78 72 80
10 13 13 12 11 10 10 9 10 10 10 16 23 17 16 22 23 24 20 17 18 17 19 24 26 28 36 38 44 54 67 73 76 76 73 76 81 81 78 88 81 76 79 85
10 12 15 13 10 8 8 10 11 13 22 21 14 14 12 11 20 18 17 16 19 21 20 22 25 28 38 39 40 51 68 72 73 74 76 74 77 81 80 74 85 85 72 84
10 12 18 16 12 10 9 9 10 8 16 19 28 15 7 8 22 20 23 25 20 24 28 23 24 30 35 38 40 46 58 69 70 73 76 78 76 80 79 77 76 88 73 80
31 11 12 16 15 17 18 10 10 10 12 12 11 10 10 21 25 14 19 18 17 23 28 24 25 28 32 37 42 42 49 58 66 71 74 77 76 76 76 77 75 79 82 76
18 19 13 11 11 12 11 13 10 11 9 14 12 11 11 14 28 26 20 23 18 22 36 36 26 29 33 36 40 42 45 48 57 67 72 72 73 73 76 77 81 76 80 80
32 32 24 17 11 10 10 11 12 9 9 11 11 12 15 16 26 24 24 17 15 19 29 33 32 28 31 34 41 41 45 45 47 62 67 68 70 74 75 78 80 85 78 87
39 38 36 27 20 20 16 11 12 14 11 11 13 10 13 14 18 22 26 21 19 20 28 33 37 37 31 34 36 42 44 44 48 53 63 65 68 74 76 77 81 87 84 86
32 34 35 28 32 38 23 15 12 14 16 12 13 15 17 19 19 21 17 14 15 28 26 30 35 41 47 35 36 37 41 46 49 54 60 63 68 71 74 76 82 78 85 80
22 28 33 42 30 29 19 17 18 19 17 21 27 24 24 30 20 19 25 18 16 10 15 20 32 39 41 41 37 38 42 48 47 52 55 61 64 70 72 78 75 79 76 87
20 20 32 41 38 31 27 18 15 23 40 37 37 38 35 33 40 41 46 33 30 22 17 12 15 32 46 44 41 41 42 44 50 46 54 58 60 65 74 74 76 76 81 95
37 47 38 36 33 29 25 13 24 40 46 43 40 41 42 47 47 41 38 38 39 32 24 18 23 36 42 51 48 45 42 43 44 52 61 64 66 68 75 75 77 96 98 96
77 88 60 43 46 45 35 30 31 49 50 49 42 40 43 46 40 38 37 38 36 44 38 31 29 50 62 52 52 56 56 54 56 78 69 88 80 80 89 92 97 97 96 96
74 78 93 51 61 56 56 53 49 58 63 67 69 68 57 62 72 74 66 56 60 58 62 73 79 80 83 71 56 69 89 77 81 80 86 88 91 96 95 98 99 99 95 98
65 79 83 73 55 46 50 44 58 60 65 64 64 68 72 78 75 78 80 76 76 80 77 76 74 84 94 92 90 87 82 80 82 87 96 97 98 99 97 96 96 96 97 98
92 88 87 80 82 85 63 62 63 63 60 64 66 68 74 76 81 82 89 90 87 87 87 90 91 91 94 88 91 83 81 85 95 96 98 97 97 98 97 98 99 97 95 91
93 95 98 100 97 97 80 74 67 62 62 58 61 66 69 71 76 76 84 85 87 90 94 94 90 90 91 95 97 96 92 90 95 98 98 98 92 93 94 97 92 95 96 97

GFSCGP_sfc_rhum_024.txt.gz
RH
16 23 23 21 18 15 17 17 17 14 14 33 32 32 28 40 42 45 46 45 44 41 37 40 47 45 49 53 62 64 64 68 72 90 92 96 90 89 90 85 78 81 90 87
18 19 18 16 15 13 13 15 16 14 13 34 35 28 24 32 36 39 41 42 42 41 39 39 44 45 53 62 63 64 66 68 67 70 74 84 90 88 85 85 86 80 83 88
16 16 13 15 16 14 12 13 13 15 14 39 36 42 41 30 28 30 35 35 36 38 38 39 38 46 46 62 64 64 70 68 68 71 88 95 94 93 90 88 90 82 81 88
17 13 14 13 16 15 20 11 10 12 19 32 32 47 46 36 33 30 31 33 35 35 34 37 37 41 46 54 60 61 71 73 70 76 77 80 79 84 89 83 87 89 85 88
19 16 14 16 15 14 15 12 14 14 17 23 21 44 42 38 36 32 30 30 31 32 32 36 37 36 42 49 56 58 71 81 76 74 71 73 81 79 88 87 88 92 95 90
15 12 13 12 12 12 10 11 14 18 18 28 21 30 42 39 34 28 26 26 28 29 30 32 34 34 39 46 54 59 66 78 80 75 74 73 75 84 85 92 94 98 88 88
19 15 12 11 15 12 11 14 18 21 21 25 21 36 30 29 28 23 24 26 24 27 29 31 36 36 39 47 55 61 67 69 77 79 75 75 79 82 82 88 94 97 92 96
22 23 16 11 12 13 14 10 15 24 29 27 21 34 25 22 24 24 20 23 22 23 25 28 32 36 37 44 56 63 68 67 73 76 80 77 78 76 78 88 90 85 77 76
23 19 14 12 11 10 14 12 9 16 39 27 25 22 19 21 21 24 24 23 23 22 22 24 30 35 37 45 56 64 69 65 73 72 72 77 85 78 75 91 84 82 78 75
14 22 14 10 13 12 12 11 17 16 16 17 20 24 20 21 25 25 24 23 23 22 21 21 25 31 37 39 53 60 66 66 71 73 72 73 76 78 81 89 87 78 75 77
10 15 15 16 14 15 15 13 15 11 12 14 24 14 15 17 22 27 26 22 22 24 23 23 23 30 34 37 51 61 67 65 72 73 72 74 78 76 79 85 84 81 72 75
12 11 14 12 13 12 12 13 13 13 18 16 10 11 12 13 15 25 25 21 20 22 23 25 24 27 33 39 49 58 69 66 68 73 75 77 78 80 77 77 87 81 76 77
38 19 18 20 16 14 15 12 10 17 18 14 22 15 11 12 16 26 26 22 22 25 27 27 26 28 34 39 44 54 66 68 68 71 74 78 82 84 80 73 73 87 76 82
42 38 20 18 16 14 17 12 11 10 12 14 13 15 13 15 18 22 18 24 22 26 29 24 28 29 34 38 42 51 58 66 68 71 73 76 80 83 80 76 76 78 80 81
56 56 30 21 15 11 13 14 12 12 10 12 11 14 12 12 12 13 14 24 25 23 35 28 30 32 38 41 42 47 56 65 67 72 76 76 76 77 81 81 79 78 83 79
60 58 44 35 20 11 12 12 12 11 10 10 13 14 11 10 16 17 18 20 22 16 15 28 26 30 34 40 43 44 52 65 67 74 76 76 79 79 80 83 85 85 84 90
71 62 52 50 23 13 16 13 14 14 13 11 13 13 15 15 18 22 22 29 26 23 30 34 28 30 33 38 40 44 49 59 68 72 75 77 80 83 83 82 86 91 86 87
57 55 53 51 40 25 14 10 10 13 15 14 12 12 15 13 12 20 28 27 18 24 27 39 30 29 32 33 38 42 45 54 65 70 73 76 79 82 82 85 87 88 90 84
41 46 49 54 52 28 23 21 14 16 16 19 17 17 17 23 22 41 35 29 22 17 23 34 37 32 31 34 37 42 48 51 56 63 71 74 76 79 83 84 87 85 87 89
28 31 41 42 46 40 25 18 19 23 33 46 38 40 33 31 32 39 46 36 33 33 28 22 44 49 52 35 34 40 46 51 54 56 59 69 72 76 79 81 81 81 81 87
73 66 53 45 48 35 26 21 28 31 38 51 48 47 43 48 46 42 46 41 40 34 36 33 22 34 43 48 38 41 45 49 49 50 53 62 68 72 73 76 78 78 91 93
84 90 85 59 59 43 49 45 27 39 69 49 55 52 50 66 82 82 75 65 54 41 36 35 32 28 39 50 44 42 45 44 46 50 54 61 66 67 73 78 84 91 96 98
91 85 88 80 91 70 76 83 78 73 82 85 86 79 75 85 90 90 94 93 93 93 92 92 44 30 42 65 47 47 45 45 50 53 58 68 68 67 80 90 96 99 99 98
82 85 86 82 86 88 87 78 79 76 80 80 80 81 81 88 90 95 95 97 97 97 98 98 98 92 91 91 62 47 49 54 60 65 67 82 83 89 91 94 96 98 99 99
89 82 91 89 87 90 80 81 86 78 69 71 72 76 82 87 94 93 95 96 98 97 97 98 98 99 99 97 93 90 79 63 79 94 96 95 98 96 99 100 100 99 99 99
95 97 90 98 96 96 92 76 71 69 66 66 67 73 79 82 89 87 91 93 95 97 96 94 93 96 96 93 95 94 88 87 94 98 99 99 99 99 99 99 99 99 100 100

GFSCGP_sfc_rhum_027.txt.gz
RH
24 27 32 26 22 18 20 20 20 18 18 34 35 39 52 48 46 50 59 60 60 59 54 52 50 49 52 59 64 67 68 70 74 90 90 96 89 93 95 90 84 87 91 89
24 27 24 20 20 18 18 19 17 18 18 34 37 36 36 48 48 47 48 51 55 56 52 48 50 48 51 58 62 69 68 69 72 72 73 84 90 90 88 90 86 84 89 91
24 20 16 19 20 18 20 19 17 17 20 36 40 47 40 48 48 46 46 43 43 45 44 48 49 49 50 56 63 68 68 68 69 71 80 97 96 96 96 95 92 86 83 87
18 14 15 18 20 19 26 16 14 15 19 23 37 57 49 47 52 49 48 47 45 44 41 41 50 53 51 54 58 65 66 67 68 74 76 73 76 80 95 91 89 91 86 84
18 16 14 18 16 18 19 15 16 17 20 26 26 45 43 41 50 44 42 43 42 42 41 41 43 49 49 52 59 64 67 66 67 71 67 72 72 71 92 93 88 93 96 93
15 16 12 15 15 13 16 19 16 22 24 29 18 25 22 46 37 34 32 35 38 38 38 39 38 41 48 50 59 64 71 70 68 74 71 73 72 86 89 95 95 97 98 98
18 14 16 14 17 18 18 20 28 26 27 24 18 30 18 28 30 27 27 29 32 34 35 36 38 39 44 52 60 65 71 75 73 76 74 76 72 77 79 85 86 97 99 98
28 30 16 14 17 18 20 19 31 29 30 21 24 30 23 18 24 26 23 23 25 30 32 34 35 37 40 48 57 62 70 73 78 78 77 75 72 73 72 82 85 84 94 90
28 26 17 14 12 13 19 19 15 20 50 26 27 23 21 20 24 27 29 24 26 27 30 31 32 34 37 42 53 60 66 67 77 78 76 77 75 74 77 88 82 87 92 86
20 25 17 15 15 14 13 13 21 22 24 24 21 23 21 26 20 28 32 29 26 26 27 28 29 31 35 37 46 54 60 62 68 74 73 74 76 75 77 84 89 89 91 87
23 22 20 16 18 19 22 17 18 16 19 19 23 16 12 18 23 26 30 29 27 27 26 25 27 28 32 35 43 52 58 60 62 68 70 71 75 76 79 79 86 83 89 87
38 27 20 17 16 11 14 16 19 21 20 18 13 15 15 14 15 21 22 28 26 25 25 23 23 26 32 36 42 52 57 60 59 64 66 69 70 76 81 80 88 84 82 83
59 55 29 21 17 17 18 16 14 16 20 16 17 18 14 13 17 23 22 29 31 27 26 25 23 26 31 36 41 52 56 60 58 64 67 70 73 78 77 77 79 90 81 80
54 61 45 31 24 19 18 15 16 14 18 16 15 15 17 14 15 16 22 26 30 32 30 31 33 29 31 35 40 52 57 59 59 64 68 72 74 77 77 72 76 87 84 82
64 79 55 43 35 30 22 16 12 17 15 16 14 15 13 14 15 15 14 16 26 28 27 27 28 32 33 36 42 50 56 63 60 67 71 72 72 75 77 78 76 76 86 84
69 72 62 50 29 26 24 17 15 12 13 14 13 16 13 10 13 14 11 13 20 31 30 26 28 32 33 34 42 46 55 66 63 68 72 72 75 77 80 82 82 82 85 84
72 77 70 69 41 36 31 19 15 14 12 13 15 13 13 13 13 13 13 17 20 21 28 31 28 29 30 33 37 44 53 59 68 71 72 73 75 79 83 84 87 88 86 86
70 77 70 69 56 49 22 14 13 13 13 16 15 14 16 14 12 14 17 20 26 25 26 31 33 34 30 31 35 39 48 60 70 73 74 76 76 79 81 84 88 89 87 89
52 57 74 68 66 44 24 21 16 17 18 19 14 16 16 18 26 26 28 27 28 26 27 28 32 32 38 37 38 42 49 59 70 73 75 76 78 80 82 85 86 86 90 88
50 48 52 66 64 54 40 55 52 40 18 19 20 20 20 23 24 17 40 31 26 23 23 28 43 46 45 40 41 45 49 57 70 71 71 73 76 79 83 83 83 84 86 89
74 66 70 65 62 54 66 77 68 44 21 49 33 25 37 25 21 31 41 47 40 32 36 31 48 54 43 47 44 49 50 54 56 62 66 70 75 78 78 81 81 86 93 91
82 86 86 64 70 73 78 74 94 90 93 54 50 50 49 61 74 69 64 75 75 74 77 73 35 44 59 55 42 47 52 49 51 55 61 70 72 75 77 81 84 90 96 96
84 86 90 68 72 83 84 83 81 84 97 93 66 79 80 89 90 92 95 96 97 96 96 97 96 95 86 62 68 49 45 48 52 55 58 60 70 73 74 84 93 96 97 94
80 87 87 83 86 89 87 79 82 85 83 84 88 92 89 94 96 98 98 98 98 98 98 98 98 97 96 98 96 81 68 57 59 57 59 60 68 74 72 79 87 95 97 97
80 84 75 83 92 80 87 81 86 84 77 78 80 85 91 93 96 96 97 98 98 97 95 94 96 95 93 93 92 88 91 90 69 59 57 59 64 74 84 97 98 96 95 97
83 82 85 90 94 94 96 89 84 86 82 82 82 81 83 84 90 92 96 97 97 97 98 98 96 96 91 81 80 83 85 78 90 92 92 97 99 99 99 99 99 100 100 100

GFSCGP_sfc_rhum_030.txt.gz
RH
31 37 35 30 24 22 24 24 24 20 19 35 35 46 62 56 57 62 66 67 66 65 60 58 58 58 63 68 75 78 83 86 86 91 93 93 87 90 90 88 86 90 90 89
30 32 29 25 23 22 21 24 23 19 16 34 36 35 58 58 58 57 63 64 64 62 62 62 59 56 60 68 72 78 80 83 84 82 82 85 84 90 87 87 87 88 89 91
25 27 24 24 25 24 27 24 23 22 19 32 43 45 53 57 56 52 56 57 58 60 62 63 62 58 58 66 71 75 78 80 81 82 84 96 95 94 92 91 89 87 87 88
25 19 22 26 26 23 32 20 17 16 20 24 36 44 53 52 59 53 51 56 57 57 57 59 58 60 56 61 66 72 76 78 79 82 82 84 80 83 81 88 87 86 86 88
22 19 20 23 22 21 24 16 17 17 20 25 29 40 43 50 67 59 53 50 48 48 50 54 52 53 54 55 61 67 76 78 78 81 79 80 80 78 88 91 90 93 93 90
19 17 16 17 16 18 18 19 21 28 28 31 23 31 32 62 47 54 50 49 48 45 44 46 45 49 51 53 59 66 76 79 78 80 80 82 81 85 88 94 88 92 93 94
21 17 18 15 19 20 20 26 37 35 32 29 24 28 19 32 39 41 44 44 44 44 44 44 46 49 54 59 62 66 76 80 77 79 80 80 81 83 86 87 84 93 94 96
26 28 18 17 17 20 24 25 40 38 36 29 27 27 23 16 31 31 31 33 34 38 40 42 43 45 51 57 62 68 74 78 77 79 80 80 80 75 76 82 80 82 85 85
29 26 20 14 17 13 25 24 20 26 51 28 28 25 20 21 22 32 30 28 30 30 35 39 40 42 44 51 58 68 74 76 76 75 79 80 80 79 79 83 82 80 87 85
26 33 22 15 15 17 17 18 25 30 36 36 30 28 26 31 23 25 37 32 28 27 30 33 36 38 40 42 50 59 67 73 72 75 76 75 77 80 79 83 84 84 86 88
43 26 24 22 22 18 22 20 25 22 29 30 33 24 22 21 26 19 21 31 29 30 28 28 32 34 36 38 47 54 62 68 70 77 77 76 77 78 79 83 83 85 86 89
68 39 29 23 19 17 15 18 20 23 27 26 28 20 18 15 20 24 23 27 35 34 32 29 30 32 35 38 42 52 58 61 65 73 78 77 78 79 79 84 83 85 89 89
59 57 36 24 19 21 23 20 19 15 26 22 22 21 10 22 18 18 22 26 32 40 40 37 33 33 34 37 42 47 53 55 58 67 73 75 75 79 80 83 81 86 87 89
55 70 51 45 43 38 31 21 20 19 20 20 18 19 22 19 20 18 24 30 32 41 42 43 38 33 35 39 44 50 52 52 56 58 68 74 75 76 77 80 82 86 86 88
63 67 66 55 46 39 35 31 26 22 19 22 18 18 19 19 21 18 17 31 27 33 39 46 42 40 42 44 47 50 53 58 58 64 65 71 73 74 77 81 83 86 87 86
70 66 73 61 40 36 38 31 25 22 20 22 18 20 17 15 20 20 19 22 23 24 27 37 44 42 43 43 49 51 58 60 62 67 68 70 75 77 79 82 82 86 89 88
74 77 74 69 50 45 40 25 24 23 20 18 20 20 16 17 19 18 15 17 19 20 30 37 42 40 38 38 44 50 58 59 67 70 71 75 77 80 82 84 86 87 89 88
76 82 77 77 63 58 33 29 24 18 16 18 19 20 18 17 15 15 14 13 18 21 27 37 32 35 38 34 34 44 52 64 70 72 74 77 80 80 82 86 87 87 85 89
59 72 76 72 73 42 32 53 67 79 55 23 17 19 20 17 20 21 24 22 20 23 31 34 36 38 50 48 47 53 57 63 72 74 75 78 80 81 83 86 87 86 86 86
57 51 58 80 72 63 52 71 66 73 80 54 49 19 16 24 24 19 22 34 28 29 34 38 43 48 48 55 51 54 57 65 73 75 75 77 79 81 83 84 86 85 85 86
85 76 76 65 72 62 51 77 75 57 52 87 89 90 30 22 16 18 38 44 39 38 42 49 52 61 65 63 57 57 59 64 64 70 73 77 79 82 81 83 82 83 88 89
87 92 95 80 85 65 67 69 79 82 89 85 88 92 83 32 38 49 55 65 68 83 89 81 81 84 60 67 68 71 72 65 71 77 77 79 81 78 77 85 86 87 93 94
85 83 91 64 61 67 85 88 84 87 84 84 87 92 87 56 76 85 96 98 99 99 99 97 98 96 98 87 74 69 80 69 72 78 82 82 82 82 82 86 91 94 95 88
79 75 83 80 68 76 83 86 85 85 81 79 86 93 96 97 98 99 99 99 96 97 98 95 91 93 97 96 93 95 95 88 73 78 82 83 86 85 84 81 84 85 90 90
84 85 82 85 67 91 90 87 87 85 80 84 80 85 92 95 99 97 98 99 98 95 94 92 90 88 88 85 85 83 84 92 91 82 80 82 81 83 85 94 95 92 89 89
85 82 92 84 74 87 94 93 86 87 87 90 88 89 89 90 95 94 98 98 94 91 90 94 96 96 98 92 88 88 91 85 92 99 96 95 97 98 99 99 99 100 100 100

GFSCGP_sfc_rhum_033.txt.gz
RH
21 20 22 18 17 14 13 13 15 15 13 22 21 22 27 40 41 45 49 49 49 49 45 46 49 50 53 58 65 71 75 79 74 70 67 64 59 59 60 61 69 71 69 74
26 22 16 15 18 16 14 14 15 15 13 15 16 22 25 39 43 42 48 48 47 45 46 49 49 50 53 60 66 73 77 80 78 68 70 61 62 55 58 61 68 68 69 74
17 15 14 19 20 20 17 13 13 14 13 15 19 18 26 35 38 40 43 41 45 44 46 50 51 50 51 59 67 72 78 80 78 75 69 70 67 67 65 64 62 65 68 71
14 13 17 18 18 18 17 13 12 14 16 18 17 20 28 26 42 42 41 44 42 44 44 46 49 52 50 56 61 70 75 79 76 80 73 80 63 60 56 59 60 60 68 68
17 17 20 22 17 18 16 14 14 13 15 16 16 20 19 33 38 41 39 40 41 40 42 46 48 49 49 50 56 63 75 80 78 81 78 72 73 58 54 57 72 77 71 70
12 13 15 18 16 17 15 16 16 17 15 22 18 18 18 20 26 29 35 36 40 40 39 42 45 48 49 48 51 58 75 81 80 80 80 82 79 72 62 68 63 59 57 59
16 15 14 13 17 16 16 16 20 22 21 20 15 19 20 16 18 16 26 34 36 38 40 41 46 48 52 54 56 59 72 80 78 78 78 78 79 79 78 74 64 65 58 58
19 21 14 13 15 16 18 14 15 24 16 14 20 20 16 13 12 17 17 22 30 35 34 37 40 45 50 52 57 59 67 77 76 76 80 80 79 64 64 68 58 57 55 58
18 17 13 12 11 13 17 19 11 13 18 16 13 14 14 14 13 16 19 20 26 30 33 35 38 40 45 49 55 61 67 72 73 71 76 79 77 76 67 72 73 59 68 55
19 22 14 12 11 11 14 13 18 16 23 22 16 19 14 20 16 17 19 18 22 24 28 31 35 37 40 42 48 55 60 68 69 70 70 70 72 75 72 73 76 71 66 69
26 20 19 15 16 15 15 17 14 13 15 15 14 12 16 19 23 18 15 16 18 22 25 25 30 34 37 38 43 49 56 63 66 68 69 70 69 69 72 71 73 74 72 73
39 21 22 19 12 11 12 15 15 17 27 17 14 11 11 14 13 18 15 16 17 20 25 25 24 28 32 38 39 45 50 53 59 63 70 70 70 70 70 72 72 74 76 73
38 34 28 23 16 14 15 14 14 13 14 25 17 13 10 13 14 14 16 18 21 24 26 28 24 27 32 35 41 39 44 44 47 59 62 66 68 70 71 73 72 74 76 76
42 36 34 23 24 27 27 18 15 14 18 19 17 14 13 13 16 15 17 18 17 24 28 30 31 34 35 38 44 45 44 41 45 50 56 66 69 69 68 72 74 73 76 77
38 41 38 33 29 28 29 25 22 22 18 20 16 16 15 16 16 15 14 18 22 22 24 31 35 44 47 46 48 48 44 49 47 56 57 64 69 70 71 73 75 74 76 75
36 36 39 34 25 24 29 25 25 22 21 20 18 18 13 15 16 18 16 18 20 20 21 24 33 40 42 45 49 48 50 50 53 61 61 65 71 74 75 76 77 79 79 78
44 36 34 32 31 29 30 24 22 21 19 18 21 18 14 15 16 19 18 19 22 21 23 24 25 32 40 40 45 47 52 52 59 64 64 67 73 76 78 76 79 81 81 78
46 56 38 27 31 37 20 21 22 23 17 15 17 16 16 17 18 18 18 17 19 19 19 23 17 25 38 31 27 41 45 60 63 66 66 68 73 76 76 78 79 81 78 80
43 42 39 31 29 26 22 20 32 41 27 35 26 17 14 13 15 20 17 18 21 20 22 23 17 23 38 38 41 45 48 57 62 65 69 70 73 76 76 78 80 77 77 78
41 44 40 37 31 33 28 22 32 53 40 54 58 49 30 16 17 14 17 17 16 16 18 23 23 29 32 41 35 46 47 56 63 63 66 69 71 73 75 77 80 78 76 75
57 52 51 41 39 27 23 32 54 55 37 60 59 61 64 60 28 24 22 22 24 24 28 29 31 39 45 45 42 52 51 56 56 55 59 67 71 77 76 79 80 78 80 76
48 64 60 48 45 39 23 23 34 54 60 57 58 60 68 67 64 59 44 28 37 44 45 36 45 49 53 52 52 58 63 57 58 61 66 73 76 67 65 82 82 82 82 85
59 46 53 45 32 36 35 43 34 50 59 57 66 60 66 71 70 64 40 54 56 63 65 63 63 68 65 63 58 65 68 63 65 68 72 73 74 74 76 81 84 79 81 73
51 54 67 57 42 44 36 37 40 58 60 62 64 67 72 80 70 53 61 72 74 86 80 69 70 75 80 78 76 75 72 65 66 70 75 74 75 77 76 74 85 78 68 72
52 55 58 59 54 58 52 44 46 47 56 62 71 74 83 80 73 72 77 77 70 69 65 62 62 62 67 69 73 71 77 73 68 68 66 70 64 75 74 72 69 65 68 67
62 62 69 61 51 57 56 46 45 69 58 72 87 89 85 86 86 79 78 76 76 79 78 79 78 77 77 71 71 72 72 70 75 78 63 56 52 57 61 84 96 100 98 100

GFSCGP_sfc_rhum_036.txt.gz
RH
15 17 18 14 14 13 12 12 13 12 11 12 13 14 13 19 23 26 32 34 35 35 33 34 36 36 38 42 50 56 60 64 60 56 54 50 45 43 40 40 49 56 57 60
14 16 10 10 10 12 12 12 12 12 10 12 13 14 13 18 24 26 29 30 32 32 32 36 37 36 37 44 51 60 63 67 66 55 56 45 44 37 38 41 50 57 58 62
12 10 9 10 11 14 13 13 12 13 12 10 12 14 14 14 20 22 24 26 28 31 32 35 37 37 37 43 50 58 67 69 68 64 55 55 47 46 42 44 47 54 57 59
11 8 10 10 12 11 13 10 10 10 12 15 11 17 16 13 17 19 20 26 25 31 30 32 34 36 36 42 46 56 64 69 67 71 60 71 50 46 40 45 44 45 58 56
12 10 10 12 10 10 11 7 10 11 11 13 13 15 15 13 15 16 17 21 25 26 28 31 32 34 34 38 42 50 63 72 71 72 68 58 63 42 39 39 58 66 61 59
10 7 7 10 9 9 8 10 10 11 10 15 14 14 14 13 17 14 15 18 23 25 26 29 31 31 33 34 39 46 64 75 73 71 72 73 71 61 45 51 46 46 46 47
11 10 9 8 11 11 10 12 14 14 13 14 11 13 15 11 11 12 12 15 20 26 26 28 32 34 34 37 41 45 60 73 70 68 68 71 72 71 68 61 52 54 42 40
16 15 10 9 11 13 13 11 10 20 11 10 11 15 13 10 10 10 11 10 15 22 24 25 30 34 37 38 43 47 57 71 70 68 74 75 75 55 54 59 47 46 41 42
15 14 8 9 9 10 14 14 7 7 9 10 8 10 9 10 10 10 10 10 11 19 23 26 26 29 36 40 45 50 57 66 65 61 70 75 73 70 56 63 62 47 56 41
15 17 10 9 9 9 10 10 11 9 19 18 9 12 11 12 12 11 11 10 11 14 20 21 24 26 30 33 38 46 52 61 62 59 61 62 65 70 67 64 66 62 54 58
16 15 14 10 12 12 11 12 11 8 9 12 12 8 8 11 12 12 11 11 10 13 16 18 20 22 25 28 34 39 46 54 56 57 60 62 60 61 65 63 65 66 61 62
19 16 18 13 9 8 9 11 11 12 20 12 10 8 6 7 8 10 10 10 10 12 13 14 16 18 22 27 29 32 37 42 46 52 62 62 61 62 59 66 64 67 68 63
24 20 22 17 12 11 10 10 10 10 10 20 13 9 8 10 11 12 11 11 12 13 16 16 15 16 19 23 30 28 32 33 35 48 50 54 56 59 62 66 65 67 69 69
35 22 22 18 18 13 16 12 11 10 13 13 12 11 10 9 11 10 9 10 11 15 16 15 16 17 18 23 30 35 30 30 32 36 43 53 58 59 58 64 68 65 69 70
24 30 29 21 22 21 15 12 12 14 14 15 12 12 12 11 11 11 10 11 11 12 14 15 19 22 28 28 32 37 33 34 33 41 41 50 59 61 61 65 68 67 69 68
23 33 31 30 21 20 20 18 16 13 12 13 13 13 9 10 12 12 12 14 14 14 12 11 14 23 28 31 34 34 40 36 39 45 46 52 62 66 66 68 70 73 72 72
31 26 32 30 21 22 26 20 18 17 15 15 18 16 13 14 14 14 13 12 13 13 13 14 14 17 20 23 30 34 40 39 45 51 52 57 63 68 70 69 73 75 76 72
34 34 27 25 26 37 19 14 15 17 16 15 16 15 14 15 14 13 12 12 12 12 12 13 10 11 15 16 13 22 28 49 51 57 57 60 64 67 70 73 74 76 73 75
25 31 28 31 27 22 18 17 17 20 20 14 15 15 13 12 12 15 12 11 13 14 13 12 10 10 17 16 18 22 28 38 48 55 60 60 61 63 66 74 75 72 70 72
20 32 28 27 33 33 21 14 15 18 30 19 26 25 28 25 15 12 11 10 11 11 12 13 13 12 13 22 21 26 27 35 50 52 55 58 61 65 68 71 76 72 68 67
27 32 34 27 29 23 16 23 30 36 44 33 32 35 37 39 35 37 35 33 28 25 21 19 21 21 22 24 26 31 32 36 41 45 47 56 62 68 68 74 73 72 71 66
31 34 28 30 30 30 14 14 25 27 27 32 35 33 37 36 36 37 38 43 40 36 22 21 30 27 28 37 38 42 52 43 47 49 51 59 65 56 54 75 75 75 74 78
38 28 25 24 23 23 22 23 27 26 32 32 37 30 36 38 39 38 41 46 44 32 28 30 27 34 41 46 45 50 57 52 53 55 60 61 63 64 64 73 75 66 74 61
31 30 36 36 30 28 25 24 25 23 27 31 30 29 30 38 38 43 48 46 38 37 45 41 44 45 54 54 52 52 58 58 59 62 64 63 65 67 65 55 57 57 54 58
32 34 39 40 36 34 30 26 28 31 27 25 26 33 34 34 47 51 60 50 46 52 53 53 55 57 63 63 63 58 58 57 58 61 58 60 54 65 63 62 52 52 56 50
39 43 42 43 37 40 40 31 29 28 24 34 34 43 38 39 64 73 67 58 57 59 57 57 57 58 58 57 61 63 65 59 56 55 48 42 40 44 51 50 57 96 94 100

GFSCGP_sfc_rhum_039.txt.gz
RH
17 21 25 18 20 16 11 13 13 13 11 12 13 13 12 12 16 19 25 27 29 29 26 27 29 29 30 35 42 52 55 62 54 50 50 47 42 41 38 35 43 48 51 54
20 24 16 12 12 15 16 14 13 11 10 12 12 13 11 12 17 19 22 25 26 26 27 28 30 29 29 36 45 56 61 67 63 52 55 46 46 36 36 35 48 49 52 58
14 13 12 9 11 16 14 14 13 12 11 10 12 14 13 11 14 18 19 20 22 26 27 30 30 31 30 37 47 55 65 68 67 63 55 55 48 45 37 38 40 47 52 54
11 7 9 9 9 9 11 10 10 10 12 15 11 16 15 12 14 17 18 20 20 23 25 29 29 31 30 35 41 54 65 69 67 71 58 67 49 43 36 38 36 42 53 54
13 8 8 10 8 7 9 7 10 10 11 13 12 14 13 12 12 14 15 17 18 20 23 26 29 29 28 31 36 46 65 72 70 72 69 55 60 39 36 34 53 61 70 56
10 6 6 7 6 7 6 7 8 9 10 16 14 12 13 10 12 12 12 12 16 18 21 24 27 28 28 28 33 42 64 75 74 72 75 73 67 59 42 44 40 41 41 50
11 9 7 6 8 7 7 8 11 12 12 14 12 13 14 10 9 10 10 12 13 17 20 23 26 28 30 32 36 41 60 74 73 70 71 73 69 71 67 58 44 49 38 37
13 13 9 7 8 9 9 8 10 19 12 10 10 14 11 9 8 8 9 9 11 13 17 21 24 27 32 33 38 41 56 71 72 71 74 76 73 53 53 55 42 41 36 36
12 13 7 7 7 7 10 11 6 7 7 7 7 8 7 7 8 9 9 10 10 12 17 20 22 25 30 33 39 44 53 65 69 66 71 75 74 70 54 62 61 45 54 36
12 16 9 8 7 7 8 8 9 8 17 15 8 10 9 11 10 9 10 10 10 10 16 19 20 23 27 28 32 39 46 60 64 62 65 65 69 72 66 62 65 60 53 57
12 13 13 10 10 10 9 10 9 7 8 11 12 9 7 10 10 10 10 10 9 9 14 17 19 20 24 26 29 34 41 51 59 61 62 64 64 64 68 63 63 64 62 61
12 13 18 12 8 8 8 10 10 11 18 9 8 8 6 5 6 8 9 9 8 10 12 16 16 18 20 24 27 30 35 38 47 53 62 62 62 63 63 68 64 66 67 63
19 19 22 17 10 9 10 9 8 9 9 16 10 9 8 8 8 9 9 9 10 10 11 12 13 17 18 20 25 26 30 31 34 46 48 55 59 60 62 66 66 66 68 67
36 22 23 17 16 11 14 10 9 9 11 12 10 10 10 10 11 11 10 10 10 12 12 13 13 14 15 20 27 29 26 27 30 34 41 52 57 58 57 62 68 66 69 70
22 32 23 16 13 11 10 10 9 11 11 12 10 11 10 10 11 10 10 11 12 13 13 14 14 17 21 24 28 32 27 29 28 36 38 47 57 59 60 63 66 67 68 68
21 30 27 24 15 17 17 12 10 9 9 10 9 9 8 9 9 10 10 11 12 12 11 12 14 16 19 21 24 28 34 31 32 40 41 47 56 63 65 66 67 71 71 71
30 26 30 32 21 21 24 16 13 11 9 10 12 11 9 10 11 12 12 12 12 11 11 12 12 11 15 19 24 26 33 34 38 44 46 49 57 63 68 67 71 73 75 71
30 35 30 27 27 36 18 13 12 14 12 10 11 12 11 12 13 12 12 13 13 12 12 12 8 10 15 11 10 22 25 44 46 49 50 52 56 61 66 70 72 74 72 74
19 28 30 30 26 21 16 14 14 16 17 13 13 13 12 12 12 14 12 12 13 12 11 11 10 9 15 10 12 16 20 33 46 49 54 53 56 60 66 72 74 72 72 73
17 24 26 29 31 32 19 16 12 16 22 14 13 14 13 13 15 13 15 18 23 21 20 22 13 11 11 14 11 14 15 22 42 48 51 56 57 62 66 70 76 73 71 70
22 25 28 27 31 23 17 18 14 28 39 18 16 19 21 26 28 32 29 28 28 29 30 27 27 23 25 22 16 26 26 26 30 40 46 56 60 66 67 72 73 74 73 67
32 27 25 27 31 34 15 14 26 32 30 30 33 31 31 31 32 31 30 33 33 32 32 29 29 28 24 27 28 38 43 39 40 43 50 57 64 56 53 74 74 76 76 78
26 24 24 22 22 24 19 21 18 17 26 26 27 25 28 28 29 28 33 35 34 37 36 31 24 27 29 33 37 48 55 53 50 54 60 61 64 64 64 72 76 68 75 62
23 21 24 28 25 23 20 18 18 19 22 21 21 25 24 25 26 28 28 34 39 41 38 31 33 34 38 43 46 50 51 52 56 62 65 64 65 68 66 52 57 57 53 56
29 30 30 29 26 27 26 24 22 22 21 20 22 24 23 22 26 32 32 42 45 45 42 44 45 45 47 53 53 48 51 54 55 58 56 58 53 63 63 62 49 51 55 52
34 39 37 33 30 33 32 25 24 26 25 25 26 25 22 31 35 36 37 50 52 51 47 53 53 55 56 57 62 65 62 57 57 56 50 46 42 48 52 51 57 96 93 100

GFSCGP_sfc_rhum_042.txt.gz
RH
17 18 19 17 18 19 18 16 16 15 14 14 14 14 15 15 18 26 30 30 30 30 29 30 30 29 32 40 51 57 62 70 66 65 66 64 59 61 61 60 60 72 69 71
19 21 16 14 16 18 18 16 12 13 12 15 13 14 12 16 16 24 28 28 29 28 28 32 32 30 31 42 53 62 65 72 69 65 69 64 67 56 56 60 65 63 66 71
21 17 14 14 16 16 19 18 14 13 14 16 14 17 14 13 15 18 22 22 26 28 28 31 34 32 33 44 53 63 68 73 72 70 69 72 68 69 62 59 59 63 66 72
18 14 14 16 16 14 19 16 14 13 13 18 12 19 18 12 15 19 19 23 24 26 28 30 33 34 34 41 49 62 68 72 72 74 69 75 64 61 57 61 60 62 67 67
20 16 14 17 15 12 12 10 14 13 13 14 13 16 15 13 14 18 18 22 20 24 25 30 30 34 32 37 46 56 70 74 75 74 77 68 70 58 56 59 67 75 76 71
17 11 10 8 10 8 7 10 10 11 12 17 14 14 16 13 15 12 15 18 19 20 24 29 30 33 34 35 44 53 72 77 77 77 76 80 74 70 58 60 60 62 66 67
18 16 9 7 8 8 7 8 13 15 15 18 12 13 16 11 12 11 15 14 18 19 22 27 34 33 36 38 45 52 70 78 77 76 77 77 78 75 76 76 58 61 58 62
16 18 13 7 7 9 8 8 11 23 16 13 12 15 14 10 9 8 11 12 13 16 18 23 32 34 37 37 44 50 66 77 77 75 79 79 79 68 63 68 56 56 55 55
14 15 10 8 6 7 9 10 6 9 8 10 9 10 8 9 10 9 8 10 12 14 17 22 29 32 36 37 44 49 62 73 75 74 77 80 78 77 68 69 69 62 66 54
13 16 10 9 7 7 8 7 9 9 19 19 10 14 12 13 12 11 11 9 12 14 16 21 25 29 33 33 37 44 53 67 71 71 73 73 76 75 72 70 74 68 68 67
11 14 12 10 11 10 8 9 9 8 9 14 15 10 9 14 13 12 10 10 10 13 16 18 23 26 31 32 34 39 46 61 67 70 73 73 73 74 73 69 71 73 69 74
14 12 17 14 8 7 8 9 10 14 21 11 13 9 6 8 10 10 10 11 10 13 17 18 20 23 28 32 33 36 40 45 59 67 72 72 72 73 73 74 69 72 75 70
27 21 21 18 13 9 10 9 9 9 10 20 14 10 8 9 11 11 11 11 14 15 18 18 19 22 26 29 34 33 37 37 44 60 64 68 70 72 73 74 71 70 73 74
33 28 27 20 20 12 14 10 9 9 13 14 11 12 11 10 9 12 13 14 13 18 19 19 19 23 24 30 36 37 35 34 38 47 56 66 68 69 69 72 75 71 72 74
23 34 25 18 13 12 10 10 10 11 12 15 11 11 14 14 13 12 12 14 15 19 18 21 20 30 33 35 38 38 34 38 37 45 51 59 66 67 68 71 73 75 74 72
24 34 29 27 18 16 16 10 10 10 9 10 10 9 10 12 14 14 16 17 19 19 17 18 18 25 29 37 39 38 38 37 40 48 48 56 64 68 70 71 72 75 77 76
32 33 35 36 24 21 22 15 11 10 9 9 12 12 12 14 14 15 15 15 15 13 16 18 19 24 28 27 37 39 41 39 45 50 53 56 64 68 72 71 74 76 78 77
30 37 36 35 32 40 21 14 13 12 10 8 10 11 12 16 15 14 13 14 17 14 15 20 12 19 25 15 14 29 36 50 50 59 56 60 64 66 70 74 75 77 75 78
21 29 34 36 32 28 21 16 16 16 15 10 10 10 9 12 13 17 13 12 13 16 19 19 16 17 32 26 30 33 35 46 52 52 61 58 62 64 69 75 76 75 76 76
19 25 30 34 35 35 26 14 12 12 20 17 13 13 12 12 16 29 32 27 28 28 30 34 31 29 32 40 27 36 34 43 51 51 54 60 60 65 68 72 77 76 75 75
26 30 30 32 35 26 26 18 14 25 48 34 31 22 16 22 34 35 30 32 32 34 36 36 38 40 42 41 37 50 46 36 44 50 52 59 65 66 69 74 76 77 77 75
28 32 33 30 35 39 23 19 36 42 33 30 31 31 35 34 32 30 30 34 36 38 38 39 40 43 42 43 44 56 59 58 52 53 58 64 69 60 56 76 78 79 80 83
28 35 34 29 28 33 28 25 23 20 26 28 28 24 29 31 30 28 34 37 35 40 46 44 42 44 46 48 52 61 66 64 62 63 70 69 70 70 70 77 79 76 82 79
34 30 31 29 26 27 22 19 19 20 21 21 21 21 21 27 26 27 30 36 39 42 52 49 54 53 56 54 48 63 65 66 69 70 75 74 74 75 73 64 68 70 70 78
34 36 38 38 31 28 24 22 22 23 23 22 22 22 24 25 27 27 36 45 43 51 53 57 62 62 62 66 65 62 62 66 67 71 70 72 65 75 74 71 66 68 70 68
38 47 55 56 50 55 54 39 32 29 24 24 25 27 26 27 34 36 39 44 49 58 62 66 61 62 63 64 67 71 74 72 70 70 63 59 56 62 64 69 70 99 97 99

GFSCGP_sfc_rhum_045.txt.gz
RH
20 25 25 17 18 19 26 29 27 22 20 22 23 20 37 36 39 60 67 40 40 38 35 40 39 35 38 48 56 51 66 69 66 82 78 87 78 80 75 69 79 81 80 80
26 29 19 16 16 17 23 29 26 20 17 19 20 20 20 32 51 58 57 73 40 38 36 36 34 35 40 52 53 62 68 73 68 70 68 82 81 78 72 69 80 79 79 82
26 25 19 18 17 18 22 27 27 25 15 13 19 22 19 29 45 50 66 68 36 37 37 38 35 36 42 55 56 63 66 77 71 74 75 81 82 81 81 75 71 80 76 78
22 20 21 22 19 18 26 20 21 22 20 34 22 38 28 21 38 51 61 55 39 35 35 37 36 38 41 53 57 59 68 78 72 76 72 69 65 66 83 71 73 78 79 80
22 23 23 23 20 17 22 18 20 21 24 24 24 30 25 21 23 42 53 55 44 34 35 37 37 36 36 47 58 62 66 74 72 72 67 74 76 83 75 78 71 83 81 79
18 18 19 19 16 16 16 18 17 21 24 30 23 26 25 23 23 39 43 42 40 34 34 33 35 35 37 48 56 65 69 72 73 74 83 72 82 77 81 75 77 86 83 80
19 18 18 16 19 16 17 22 26 26 27 31 22 24 23 17 17 19 27 36 35 34 36 34 37 37 39 49 54 66 72 72 73 74 69 88 75 82 75 77 64 81 89 78
28 28 20 17 17 19 20 19 21 32 30 26 20 22 18 14 14 12 18 27 33 37 38 33 35 37 38 43 54 63 71 72 70 78 74 66 89 72 66 82 81 68 74 71
22 23 18 17 12 11 16 17 12 18 24 24 22 17 13 11 12 12 13 22 29 36 33 33 34 36 38 42 53 58 71 70 73 73 77 75 70 87 67 61 84 71 76 69
18 20 18 16 16 11 11 11 15 13 24 24 17 18 16 13 11 13 14 16 21 24 28 33 34 35 37 37 47 53 64 72 73 74 75 76 72 69 83 73 75 81 72 70
43 22 15 14 19 20 11 14 11 15 19 28 31 20 12 12 12 11 15 16 16 22 27 33 35 34 37 36 43 51 59 71 75 74 73 76 78 77 72 82 71 78 76 81
44 42 21 17 14 12 13 12 13 15 22 18 21 15 16 15 11 11 11 13 17 20 25 31 34 34 37 37 39 46 53 65 71 73 76 75 76 78 75 72 86 64 80 70
53 52 42 22 17 14 14 10 10 16 22 24 18 16 12 16 13 11 16 12 20 20 25 29 33 34 37 37 37 41 44 57 64 70 72 76 75 78 80 74 68 83 66 76
62 51 46 37 22 20 19 12 10 12 17 18 17 19 16 18 18 20 20 21 21 27 25 26 30 32 35 36 37 38 41 44 57 64 71 74 77 74 74 76 75 66 74 71
57 49 39 34 25 22 19 13 11 12 13 19 16 22 19 25 24 25 23 23 24 27 25 26 28 31 34 37 38 38 39 42 44 61 66 71 72 72 72 73 76 77 70 73
55 52 45 47 28 23 22 16 11 11 11 12 16 14 20 21 26 24 26 24 30 31 32 30 34 31 32 36 39 38 39 40 42 49 62 64 70 71 73 74 74 77 79 72
51 40 54 56 35 29 38 23 13 12 12 11 15 17 21 24 25 22 22 23 21 19 21 27 29 35 45 38 37 40 41 40 42 46 50 60 66 72 73 73 75 77 78 78
45 39 53 61 43 58 34 23 21 13 13 12 12 20 21 23 31 30 28 22 22 28 31 29 36 33 32 42 40 36 42 47 47 47 52 52 65 69 72 72 74 74 73 76
32 36 53 63 49 42 31 25 24 25 48 39 41 20 19 27 38 46 40 41 46 49 51 51 50 49 54 47 44 51 46 48 60 52 59 57 63 66 69 72 72 71 71 72
28 32 47 49 58 54 44 26 24 23 63 35 43 43 20 34 58 64 47 44 45 47 49 54 50 52 50 53 49 54 58 50 50 56 66 72 63 66 69 70 70 69 69 70
40 40 46 42 54 65 49 30 32 52 61 35 34 41 42 48 50 47 44 48 50 53 53 52 57 61 57 55 56 57 48 54 64 62 68 73 71 71 70 69 70 71 73 72
52 56 50 48 53 82 41 28 38 48 38 35 34 34 40 38 36 36 43 51 52 58 56 55 58 60 61 58 58 56 62 55 64 66 73 79 84 68 76 81 78 77 77 79
72 63 90 56 57 39 34 34 27 28 32 37 37 32 35 37 41 41 41 55 55 56 66 58 61 65 65 71 67 62 64 76 73 71 81 80 75 78 74 88 89 86 82 81
46 44 58 57 48 42 40 48 46 47 42 32 31 34 35 40 39 41 43 58 59 64 65 62 66 70 82 83 78 81 84 78 76 82 82 92 91 95 89 91 83 81 85 85
54 51 68 59 52 56 50 50 50 51 48 44 41 34 35 40 46 50 54 61 57 52 64 59 71 69 80 78 88 85 88 88 90 87 91 94 94 89 94 90 98 89 79 85
57 72 95 94 75 76 70 57 55 60 57 51 47 49 45 42 44 56 57 60 57 54 45 64 66 74 77 78 82 83 84 87 89 93 92 94 91 96 94 91 100 100 99 99

GFSCGP_sfc_rhum_048.txt.gz
RH
23 24 27 21 22 20 28 33 35 30 26 38 34 40 43 55 58 66 67 63 61 59 53 50 49 45 46 58 56 55 56 68 74 83 87 85 78 80 81 79 75 83 83 88
33 27 19 22 19 18 20 25 31 29 24 27 31 40 39 50 56 57 62 59 58 55 54 52 51 46 46 59 57 58 58 64 71 68 70 82 84 84 79 78 86 80 83 88
28 28 20 22 22 20 21 24 24 34 28 20 28 34 45 40 47 50 50 48 46 45 52 51 51 49 47 56 59 61 62 66 66 72 80 93 90 86 84 83 86 85 83 87
26 21 22 24 23 20 26 18 18 23 33 40 25 40 36 42 50 48 49 51 46 40 46 48 48 50 45 50 55 62 66 67 66 76 72 72 70 78 85 78 79 85 83 85
21 22 24 26 24 20 22 18 20 22 34 41 29 38 30 42 60 54 49 48 44 43 38 41 45 43 42 47 54 60 72 70 70 77 69 69 70 76 85 83 77 86 86 81
18 16 19 22 21 20 18 22 26 30 34 39 32 30 34 48 57 56 45 50 47 44 39 36 37 38 44 48 52 60 75 75 74 74 73 71 72 87 79 84 81 85 86 87
20 18 17 20 25 23 23 33 41 47 41 41 33 35 27 38 46 49 46 54 47 39 36 37 39 37 46 55 55 58 69 78 76 74 76 75 74 78 81 82 77 85 94 96
24 25 18 17 26 27 26 28 48 53 43 33 28 35 24 18 21 39 40 44 44 40 34 36 38 36 40 53 58 58 64 68 76 74 75 74 79 74 70 70 82 71 78 82
91 25 20 18 17 22 28 29 23 30 42 31 29 23 17 15 17 36 43 42 46 41 35 35 36 37 38 50 59 62 64 62 70 72 73 80 78 69 71 80 80 76 85 81
73 82 23 18 18 19 20 20 28 29 35 34 26 22 22 16 14 17 38 44 42 36 35 33 35 37 38 44 52 60 63 62 65 70 69 68 72 84 75 72 85 89 78 80
67 75 43 20 19 24 27 20 29 24 25 24 30 19 17 16 17 15 24 37 37 34 34 36 35 36 37 39 50 59 64 64 67 67 72 71 70 69 90 78 72 70 80 80
67 81 87 36 16 15 21 18 18 19 25 27 29 18 11 13 13 13 11 31 32 32 33 35 34 35 37 39 48 55 63 65 66 68 71 76 77 75 73 84 79 71 72 80
89 90 95 46 28 19 20 22 16 19 20 25 18 16 12 14 18 20 13 15 28 32 34 34 34 36 38 38 45 53 57 66 66 69 73 75 79 81 80 72 75 79 73 72
90 94 96 93 52 40 27 17 18 13 19 19 18 16 13 11 15 20 18 19 20 28 30 32 35 36 38 38 41 50 53 62 66 71 74 76 78 82 81 80 73 75 81 72
92 99 74 59 46 39 37 23 18 16 15 16 14 19 16 16 18 26 26 24 25 29 31 34 36 38 40 41 40 46 50 56 65 72 75 78 77 76 81 84 80 77 74 81
91 93 74 59 40 38 36 26 24 15 12 18 16 19 16 20 28 34 37 30 29 30 32 35 36 37 40 40 41 43 46 52 58 70 74 73 78 79 78 81 85 82 82 74
97 80 82 72 45 35 42 35 30 19 14 15 18 17 27 33 48 53 27 26 36 36 31 35 36 35 36 39 39 41 44 45 54 66 67 72 74 80 81 79 82 85 85 81
75 81 76 67 53 57 42 36 31 40 39 42 51 42 38 54 54 54 55 52 50 47 46 46 45 47 48 39 38 39 42 46 51 55 67 69 76 78 79 80 80 80 80 84
64 66 70 65 62 46 49 48 42 44 46 36 46 44 46 46 46 54 53 55 62 66 68 64 55 52 51 51 54 41 44 46 49 53 54 66 69 76 79 80 81 77 79 78
67 70 55 55 76 75 63 49 31 36 58 36 36 41 44 40 66 67 57 56 59 62 65 68 72 68 62 59 60 55 49 49 52 49 52 55 62 70 75 77 76 76 75 77
92 73 51 50 78 84 65 60 32 62 59 38 36 38 44 46 55 50 57 54 62 61 65 68 74 78 81 75 52 59 64 64 53 57 55 60 57 62 67 70 72 71 75 74
99 99 93 87 87 98 64 65 73 64 50 48 45 37 42 44 43 43 55 55 62 63 65 68 77 82 86 87 62 59 55 55 66 72 77 82 73 62 64 70 71 72 72 78
92 87 98 91 94 67 63 76 57 51 54 59 56 51 44 42 48 49 57 53 49 61 59 63 73 81 86 88 83 93 95 84 80 70 80 82 84 82 82 81 78 81 80 78
61 56 79 84 60 68 58 48 51 53 56 57 53 51 49 46 48 55 54 51 50 48 45 62 68 73 83 94 91 94 94 93 94 87 82 89 93 94 89 82 82 82 86 86
75 67 88 77 74 73 56 60 64 63 60 60 56 50 52 54 48 57 55 55 52 52 51 59 76 75 82 90 90 88 88 92 95 96 96 94 95 97 97 99 99 92 93 87
88 98 98 94 73 81 77 70 68 71 71 66 67 61 49 57 58 53 53 55 56 57 58 58 74 88 86 82 94 90 87 91 95 95 96 98 98 98 100 99 98 99 98 99

GFSCGP_sfc_rhum_051.txt.gz
RH
27 28 27 20 25 25 32 38 39 35 30 44 48 47 78 72 72 75 72 68 68 66 59 54 55 52 53 56 54 60 63 68 76 89 85 88 84 85 87 86 82 86 92 87
33 28 20 20 23 24 24 26 32 30 28 42 43 48 63 74 72 70 73 69 67 64 60 55 56 52 56 56 55 60 59 66 75 68 69 80 82 83 81 82 84 84 86 91
32 31 19 22 24 24 24 24 24 30 34 33 35 45 44 69 67 65 65 64 62 62 61 57 56 55 52 62 60 61 59 61 69 68 86 96 88 86 86 87 87 90 86 90
30 21 22 21 26 24 32 20 19 22 36 39 31 56 49 62 72 67 67 67 62 59 57 56 54 55 52 57 61 60 59 59 65 73 74 78 73 70 82 85 84 91 88 88
27 27 25 26 24 23 26 20 22 23 32 53 28 48 54 55 76 69 64 60 59 56 55 56 54 53 51 50 61 61 62 61 62 74 65 71 78 75 96 88 83 91 95 89
25 16 22 21 22 21 22 26 29 36 39 40 31 42 46 56 55 62 57 54 53 51 50 51 50 50 52 47 58 62 66 65 63 72 70 71 72 91 92 94 88 89 96 87
46 25 21 21 25 26 27 34 48 52 54 42 36 42 32 40 38 43 49 50 47 46 45 48 52 52 52 50 56 61 68 69 67 73 72 73 74 83 79 87 90 92 94 97
91 46 23 18 24 28 33 34 55 61 59 41 35 47 36 34 33 33 38 42 42 43 42 42 45 49 50 50 55 60 69 68 70 74 74 73 73 74 74 76 80 82 80 80
85 75 47 35 18 24 32 36 31 44 41 41 37 33 26 31 36 36 37 39 39 41 42 41 39 44 46 49 55 59 66 67 71 72 72 74 74 73 74 78 80 76 84 82
73 87 58 43 28 20 29 27 39 42 48 44 35 31 28 26 28 39 41 42 41 40 39 38 38 40 42 47 51 54 60 64 69 70 71 73 73 74 73 85 84 84 82 84
80 73 68 55 33 23 33 31 38 35 40 40 42 29 22 24 20 31 33 35 41 42 40 38 37 37 38 44 52 54 56 59 65 69 70 71 74 75 73 80 81 80 87 82
82 95 90 78 45 45 50 31 30 33 42 35 34 30 17 16 19 23 34 39 41 39 40 37 35 36 38 39 52 56 56 57 59 66 68 70 74 78 81 78 79 78 87 92
84 98 90 64 47 37 36 27 23 26 33 31 33 30 14 14 16 17 16 23 34 41 42 39 34 37 39 39 49 56 58 59 56 62 67 71 72 74 78 85 84 78 77 83
76 94 95 88 67 59 66 53 46 34 26 29 23 26 17 14 16 16 21 20 28 38 39 38 35 38 39 40 46 54 59 59 58 63 66 73 76 77 74 74 78 84 82 79
88 95 88 84 68 59 60 56 46 45 22 21 18 19 18 16 17 21 32 27 20 20 36 36 36 38 40 42 44 53 57 62 60 66 70 72 76 76 79 80 77 76 84 81
91 94 94 83 54 52 53 45 40 38 32 17 19 17 18 47 65 65 61 35 22 23 33 34 35 36 39 41 42 50 56 60 63 68 71 71 75 79 83 83 86 83 79 85
97 95 90 91 53 44 54 50 45 39 46 48 24 39 47 74 69 71 73 62 30 29 33 35 35 35 37 40 40 46 53 56 66 70 71 73 78 81 83 86 89 90 87 82
96 100 97 96 65 67 56 51 41 41 41 44 52 54 65 66 62 61 64 75 79 67 43 33 32 35 36 38 40 42 51 57 65 73 74 76 79 83 83 84 88 90 89 88
81 99 97 77 65 61 53 59 72 58 50 47 45 46 51 54 53 62 57 66 75 77 79 77 53 48 48 43 43 44 51 55 64 68 74 75 78 80 84 87 85 85 86 90
87 95 99 92 98 97 74 60 56 52 66 59 57 51 48 57 79 76 59 66 68 74 80 85 82 62 56 59 45 47 50 54 58 60 68 71 74 78 81 83 84 80 82 82
100 100 98 98 97 91 68 61 54 75 80 60 60 61 56 58 60 54 56 48 57 64 73 82 92 92 86 63 48 47 48 51 51 56 59 66 71 74 76 79 80 82 82 82
99 100 99 99 99 100 63 70 80 75 62 61 64 57 61 56 55 58 53 51 48 48 66 70 91 98 95 72 59 67 68 64 69 69 65 68 64 68 70 77 80 80 83 87
96 99 100 99 95 78 70 85 62 57 60 65 67 60 56 59 56 58 57 54 50 51 54 67 73 89 96 96 93 95 97 90 80 84 84 87 74 63 60 74 76 82 81 80
79 75 97 88 64 67 59 64 77 70 68 65 65 65 60 58 58 60 56 54 53 54 59 68 71 74 86 97 96 96 95 94 94 95 92 91 94 96 93 83 76 77 81 82
96 90 93 80 65 72 61 62 67 75 74 70 69 66 64 56 60 63 62 57 60 58 69 73 86 82 82 92 96 95 94 91 94 95 95 96 96 96 98 99 99 93 89 87
98 99 99 98 85 94 83 70 69 74 86 80 78 74 65 61 57 59 63 62 64 59 77 85 86 84 82 77 94 95 94 93 92 93 96 97 96 98 100 98 98 100 99 100

GFSCGP_sfc_rhum_054.txt.gz
RH
32 33 28 25 29 32 34 42 41 36 32 53 56 64 85 78 75 75 70 63 59 55 56 62 62 62 65 68 73 77 80 88 87 94 92 92 90 88 89 90 89 90 90 90
36 33 24 20 22 30 30 32 37 32 32 51 54 54 79 80 77 74 76 73 68 64 60 63 63 60 62 67 68 75 77 85 83 81 87 86 88 86 84 86 89 88 89 90
36 29 21 21 27 26 30 34 29 36 32 39 55 57 77 78 75 71 68 68 67 68 68 64 63 61 60 66 67 71 75 79 81 83 89 92 88 88 86 86 88 88 88 90
34 27 22 22 24 27 33 25 25 24 35 44 44 64 59 83 84 77 73 72 67 65 64 63 61 62 59 63 64 67 72 75 78 83 84 86 81 79 86 86 86 90 88 88
40 32 28 25 20 23 22 24 25 25 36 42 34 48 45 66 94 84 74 70 66 62 62 62 59 57 57 59 62 64 72 75 77 82 80 78 80 82 87 86 85 91 93 89
26 22 27 24 22 20 24 30 30 38 38 45 31 32 48 75 69 76 69 67 64 61 60 58 56 55 56 55 62 66 75 76 77 81 79 82 80 88 89 90 86 87 91 90
53 31 24 23 28 27 27 35 53 57 60 42 35 37 36 37 48 55 64 63 61 59 57 58 59 57 57 60 64 67 75 77 76 79 81 81 79 86 85 86 86 89 89 93
91 49 33 29 28 33 32 34 53 63 58 40 43 49 39 24 36 45 46 52 54 55 54 55 55 56 58 59 61 67 72 75 76 76 81 81 79 77 77 84 86 82 83 86
97 72 47 41 36 33 37 39 33 51 64 53 38 41 27 32 32 38 39 43 51 52 52 51 52 53 55 58 59 67 71 72 73 73 76 80 80 80 80 86 84 84 88 80
82 96 59 47 40 33 36 30 46 53 62 58 46 41 38 35 36 42 46 43 46 48 49 46 45 49 52 51 53 60 63 68 69 72 72 72 76 79 79 85 86 86 86 85
89 84 69 58 50 34 32 34 44 37 46 49 52 36 31 34 30 27 45 43 43 46 47 44 42 42 50 49 52 56 60 65 67 71 73 73 75 77 78 82 83 84 84 86
92 83 92 80 52 50 57 58 46 44 51 44 47 35 21 27 26 23 23 40 42 43 42 41 40 41 46 50 51 55 58 62 64 70 74 74 76 78 78 82 83 83 85 84
88 91 98 65 64 50 54 56 61 59 43 42 41 43 22 21 23 23 26 33 40 43 44 42 38 42 43 47 52 54 57 58 60 69 70 72 74 78 80 81 82 84 86 86
80 95 93 87 72 66 62 53 54 61 61 44 36 34 23 24 21 22 24 27 31 54 51 47 42 42 43 47 54 58 56 55 58 62 69 74 75 78 78 80 83 84 84 85
92 97 90 79 73 71 62 59 55 59 53 56 36 32 30 23 22 24 30 39 35 32 54 51 47 45 45 50 57 60 58 60 58 65 69 72 75 77 80 84 86 86 84 82
96 90 79 84 71 65 61 46 44 43 45 45 42 33 44 78 74 79 82 80 77 48 29 47 49 45 43 48 52 60 64 63 63 68 69 73 78 80 82 83 84 87 89 88
93 85 88 91 61 58 61 45 43 53 62 56 37 44 57 83 80 81 82 83 85 83 56 28 41 43 42 44 49 59 64 65 69 72 73 76 80 84 86 85 88 88 87 88
94 96 96 91 60 80 70 48 45 52 61 66 63 60 74 76 74 68 64 74 81 86 88 43 29 39 43 40 41 56 60 71 74 75 77 79 82 85 86 89 90 91 88 88
90 96 97 87 85 83 58 64 70 79 59 61 69 64 55 58 61 68 50 53 62 74 89 89 45 43 51 46 50 58 63 68 75 77 79 79 81 84 86 89 91 89 91 90
93 92 99 96 96 99 96 68 58 62 69 55 61 62 66 64 66 61 51 46 50 61 80 97 66 58 55 58 49 60 63 68 76 75 77 79 81 84 87 87 88 88 88 88
100 100 97 95 99 96 79 76 56 70 76 64 65 64 62 69 69 53 46 44 50 58 74 91 88 81 71 58 51 63 66 67 68 71 76 81 83 84 85 88 87 87 88 87
99 99 99 100 100 100 80 68 78 72 69 69 73 70 68 63 63 58 51 50 61 65 71 75 91 96 91 74 59 67 71 75 75 76 79 82 83 78 79 88 88 89 89 92
99 99 98 100 99 89 83 93 76 73 76 78 81 73 71 60 63 63 59 53 63 69 70 68 75 92 94 94 83 86 91 82 81 78 79 81 84 82 82 87 89 88 91 88
96 90 99 98 87 85 83 74 68 71 78 78 78 77 72 69 62 63 62 54 54 63 72 74 72 73 83 94 92 95 94 93 89 91 90 90 85 86 81 79 80 84 85 86
98 97 100 98 88 86 88 84 73 76 72 82 80 76 73 68 64 67 67 68 59 68 72 79 78 70 76 79 94 93 92 88 90 93 94 95 93 96 95 92 93 82 83 85
97 99 100 99 88 98 93 92 84 82 81 84 89 82 74 67 68 63 68 70 73 68 75 79 76 77 72 71 79 88 94 92 91 90 89 94 93 97 97 96 96 99 99 100

GFSCGP_sfc_rhum_057.txt.gz
RH
22 20 27 17 19 18 23 26 20 30 30 32 35 35 59 59 55 60 60 59 57 55 49 50 53 54 56 62 66 69 71 74 70 67 63 61 58 59 59 61 68 70 68 70
24 21 15 15 17 21 21 27 27 22 26 34 36 36 44 60 58 55 57 56 55 50 49 53 54 52 54 61 66 71 72 75 74 64 67 61 63 59 58 61 68 67 68 71
22 19 17 17 17 20 20 22 25 25 24 25 35 35 41 54 55 55 50 49 47 48 48 53 56 53 53 60 67 70 75 75 74 72 67 71 68 66 62 63 63 66 68 69
28 20 20 19 18 16 18 16 22 24 25 33 29 41 40 42 63 60 55 53 46 46 45 46 52 54 52 57 60 67 72 75 72 77 71 78 60 60 56 59 59 64 70 68
30 26 24 22 19 16 16 13 14 19 27 26 26 39 32 38 57 57 53 51 50 48 45 45 46 50 48 51 56 60 72 78 75 79 75 68 69 57 58 56 69 72 74 70
26 21 22 20 17 16 14 18 17 14 17 34 30 28 31 35 45 48 49 48 49 48 49 50 48 48 49 48 53 58 73 79 77 76 76 79 76 70 63 63 59 57 57 62
37 25 19 19 23 18 18 18 25 30 22 28 24 30 29 24 28 32 44 48 47 48 48 50 53 52 53 54 56 59 71 77 75 74 74 76 75 78 77 72 59 61 55 57
41 24 24 18 20 23 22 20 21 35 22 15 21 33 27 20 18 26 29 34 41 46 45 47 50 52 55 55 58 60 68 75 74 72 76 77 76 59 59 65 54 54 50 53
52 46 38 34 32 20 24 25 16 20 27 22 13 22 21 20 20 18 20 33 40 44 45 46 47 49 52 54 58 63 67 71 71 66 73 77 76 74 64 70 69 56 65 52
49 40 38 39 33 27 23 19 27 25 31 31 19 20 21 26 24 21 21 29 35 40 43 43 45 46 47 48 51 56 61 68 67 66 66 67 71 74 70 70 73 68 63 66
51 47 26 36 36 27 28 27 24 22 24 26 23 20 17 21 24 24 23 24 26 34 40 41 42 43 46 44 48 51 56 64 64 65 66 67 66 66 69 68 70 71 67 70
56 48 46 35 32 38 40 33 23 31 37 29 25 19 16 18 18 18 17 22 24 30 36 38 39 41 43 45 46 48 51 52 57 62 68 68 67 68 66 70 68 71 73 69
61 69 52 21 21 36 37 40 35 27 29 37 32 24 15 19 20 22 22 21 30 35 37 38 37 41 42 45 48 46 48 45 46 57 58 62 63 65 69 70 68 71 72 71
65 65 54 35 37 42 54 45 40 38 30 33 30 27 21 18 21 18 20 20 22 32 38 39 40 42 42 49 53 52 48 44 46 48 53 63 65 66 65 70 72 70 73 72
63 57 48 37 37 41 47 46 43 41 35 35 27 29 25 23 21 20 21 29 31 27 29 40 42 47 50 51 55 54 50 52 49 58 56 62 67 68 69 72 74 72 73 72
74 56 55 48 32 42 47 40 38 34 35 38 34 33 25 33 44 42 53 56 52 50 45 34 42 44 48 50 55 56 56 54 56 64 62 66 71 73 74 75 76 78 77 75
72 70 53 40 45 48 50 40 34 33 44 35 37 30 46 46 58 59 56 55 59 60 59 58 45 42 45 44 53 55 57 56 61 66 66 70 74 76 77 76 79 80 80 75
78 84 65 51 45 64 30 36 28 45 54 50 51 55 55 56 58 50 48 53 56 58 60 61 56 46 45 36 37 49 51 63 65 69 68 70 74 75 77 78 79 81 77 80
53 78 62 59 69 66 54 57 51 50 58 52 57 54 51 50 53 51 43 45 52 58 62 64 61 58 40 42 44 53 56 62 64 67 70 71 72 75 76 79 80 78 77 77
64 69 80 66 96 82 96 71 58 53 62 50 54 56 52 48 51 48 48 49 61 64 69 77 67 53 33 45 42 54 56 62 65 65 68 71 72 74 77 78 82 79 77 73
96 95 86 71 92 79 87 80 60 87 63 54 56 56 53 50 50 50 50 59 67 71 72 71 57 44 50 49 48 60 59 62 59 59 63 71 73 76 77 80 79 78 77 74
82 87 83 84 95 93 86 82 81 66 54 62 62 56 57 51 53 54 53 58 62 63 65 74 71 61 52 53 58 64 68 64 66 68 68 74 77 66 65 82 80 80 81 84
99 99 100 98 98 89 88 93 75 59 63 67 71 57 54 53 56 58 60 58 58 57 52 55 73 83 80 65 57 63 69 70 72 74 76 76 76 74 74 81 82 75 80 69
96 94 100 100 93 90 90 86 71 65 63 67 70 66 60 63 56 61 61 65 64 63 63 49 48 60 77 84 81 81 75 67 72 75 77 75 76 77 74 67 66 66 66 70
98 96 100 98 92 89 86 91 88 75 68 70 73 71 69 67 66 66 64 70 73 74 68 65 61 58 62 65 77 78 78 75 70 70 67 70 66 74 72 69 64 68 68 65
98 99 100 100 98 97 99 94 87 85 81 77 81 83 78 74 72 67 70 74 78 79 73 79 72 66 66 62 63 72 77 80 75 73 69 76 67 76 61 62 74 98 97 100

GFSCGP_sfc_rhum_060.txt.gz
RH
14 17 16 11 11 10 13 11 12 19 24 27 28 27 36 37 36 41 44 43 43 42 39 38 38 37 37 42 49 53 54 58 54 49 46 45 44 46 45 43 52 58 55 60
15 15 12 11 10 12 12 17 17 13 20 32 27 26 24 36 36 37 42 42 40 39 39 40 40 38 37 43 49 56 58 61 61 46 49 42 45 41 42 44 54 55 56 59
15 12 10 10 13 14 13 12 15 16 16 26 28 28 26 28 34 34 35 36 36 37 38 41 42 39 38 43 50 55 62 62 62 56 48 54 51 50 51 49 47 51 55 56
16 12 14 12 14 12 12 9 10 16 20 23 23 31 29 25 35 36 35 36 35 36 36 38 39 40 38 41 46 54 60 64 61 62 56 67 52 47 40 43 40 45 56 55
21 18 17 17 14 10 13 8 10 11 18 20 21 28 24 22 30 36 34 33 31 33 33 35 37 40 37 39 42 50 62 68 66 68 64 55 60 40 38 39 55 60 61 57
19 17 16 16 14 13 11 12 11 11 10 19 20 22 24 24 25 24 30 30 32 30 32 34 34 37 39 38 40 47 64 73 70 67 66 68 66 56 44 51 47 44 42 48
17 17 16 16 18 14 13 13 18 18 13 10 12 19 21 17 18 19 22 28 29 31 31 33 35 36 40 42 44 46 60 73 69 66 65 64 64 66 63 59 49 50 39 39
18 16 14 15 18 17 17 14 15 25 14 10 8 16 17 15 15 16 18 22 26 28 28 32 35 36 39 42 44 47 56 70 66 65 71 70 70 49 50 55 43 42 38 38
21 20 19 21 15 16 18 19 12 12 11 11 8 8 10 13 15 16 18 19 22 25 28 31 35 37 39 41 46 50 57 64 62 57 67 71 68 65 52 59 55 43 52 38
23 25 15 20 24 21 20 14 18 16 25 25 14 13 9 18 18 17 17 16 19 21 26 28 32 35 38 37 39 45 50 59 57 55 58 58 59 64 62 57 62 57 48 54
21 22 14 16 24 19 20 22 20 15 16 20 19 13 9 12 14 17 16 16 15 21 26 27 29 32 35 36 38 41 46 53 54 53 56 56 54 54 59 57 58 60 57 56
24 22 24 17 12 21 23 24 19 23 28 18 17 12 8 10 9 12 14 14 14 16 20 25 26 30 32 37 36 37 41 43 48 50 59 58 56 56 52 59 58 60 63 58
29 24 29 20 13 14 20 22 22 19 18 27 23 18 11 12 16 12 13 14 16 17 17 21 22 28 31 34 37 34 36 36 38 47 48 50 52 53 55 58 58 61 62 63
41 23 29 21 23 23 36 32 29 26 27 25 20 20 16 14 15 16 18 16 14 18 22 22 25 27 32 36 41 41 35 32 33 38 42 51 53 52 51 58 62 58 64 64
36 36 29 24 21 20 22 25 28 32 30 30 21 21 19 17 15 15 14 18 21 18 20 24 27 31 37 40 43 44 37 38 34 42 41 48 56 56 57 61 63 62 62 62
42 45 33 33 21 16 16 17 21 23 30 28 26 24 15 17 21 27 24 33 31 27 26 23 27 30 34 37 42 46 46 40 41 48 46 52 62 64 64 65 67 70 68 66
56 43 36 33 19 21 28 23 23 23 25 26 28 24 19 21 26 33 36 34 34 34 35 36 34 28 29 32 37 44 48 44 48 53 54 57 64 68 69 67 71 72 72 68
63 65 45 32 29 31 13 10 14 20 23 22 25 22 23 32 34 41 41 44 44 42 42 42 36 35 33 25 25 37 40 53 55 59 60 61 66 68 69 71 72 75 69 71
44 72 50 43 30 20 25 64 65 71 27 30 35 31 31 33 40 43 45 47 50 53 51 48 42 41 43 37 30 34 40 48 53 58 63 63 64 67 68 71 73 70 68 69
40 55 81 52 71 62 80 70 58 51 55 38 41 40 39 37 42 35 50 49 54 56 56 56 54 49 46 47 33 31 40 46 56 56 59 62 64 68 69 71 75 71 66 64
90 90 83 64 70 51 53 65 71 89 65 46 45 46 44 42 44 49 50 52 48 49 54 60 58 52 48 44 36 38 44 46 50 51 52 60 63 69 69 74 72 71 69 63
75 84 76 68 74 81 64 65 95 92 70 54 57 48 48 44 48 52 55 53 54 53 47 64 65 49 37 34 37 48 57 51 55 55 54 63 68 57 55 75 73 72 72 76
78 70 86 69 63 80 77 85 74 76 78 66 63 56 50 45 51 55 56 56 55 57 53 48 74 79 54 43 42 53 63 60 60 60 64 66 66 64 63 71 74 65 72 58
100 94 98 100 85 87 84 80 86 86 80 68 62 65 60 60 58 61 57 55 59 63 69 60 54 66 86 78 64 54 57 60 62 66 68 65 67 67 61 56 57 55 53 55
98 98 100 99 94 89 86 89 88 88 86 74 69 70 75 71 67 66 67 66 73 72 71 82 76 68 69 78 83 80 67 62 62 64 61 62 57 65 63 59 52 50 52 52
97 100 100 100 95 94 94 91 86 87 86 82 80 80 76 76 80 77 79 79 82 85 80 88 85 85 80 70 69 76 82 71 61 60 54 51 47 54 51 53 62 97 96 100

GFSCGP_sfc_rhum_063.txt.gz
RH
18 18 14 13 13 10 7 7 10 11 28 25 28 34 85 28 24 34 36 34 34 34 32 31 30 29 30 35 41 46 50 60 52 48 47 43 41 41 52 49 48 52 51 53
12 14 11 9 8 9 8 9 10 9 13 27 28 31 31 26 26 30 34 34 33 32 33 33 32 30 30 37 43 52 56 63 58 48 51 44 44 37 37 37 50 50 50 54
15 10 9 10 10 10 9 10 10 12 10 18 25 36 30 50 25 27 28 30 29 32 32 34 35 32 31 38 44 54 60 64 63 58 50 49 46 44 39 47 44 48 50 52
12 10 10 10 10 10 12 8 8 9 14 17 18 35 66 44 30 28 28 30 29 29 32 34 35 34 32 35 40 52 59 65 62 64 53 65 47 44 38 41 38 44 51 51
15 12 12 13 10 9 12 8 8 8 9 15 16 23 36 32 42 27 26 28 27 28 28 32 34 35 32 33 37 43 62 68 65 67 63 51 59 40 36 34 59 59 62 52
14 11 11 10 10 10 10 10 10 8 8 12 16 17 23 28 30 23 24 25 26 26 27 29 31 33 34 32 34 42 62 72 70 68 68 68 66 58 38 43 44 42 43 47
10 11 11 13 13 11 12 12 16 16 13 12 8 14 18 17 23 22 21 23 24 25 27 28 31 32 36 37 38 42 60 72 71 67 65 65 65 67 64 58 42 48 35 34
12 12 10 10 15 15 14 12 15 25 15 11 9 10 12 12 14 21 25 22 21 23 23 26 29 32 36 38 40 43 56 71 69 66 70 70 68 46 45 52 40 38 33 34
10 11 10 11 9 12 15 16 10 12 10 11 8 7 5 9 12 19 40 21 24 22 22 25 27 29 33 37 42 46 54 65 67 60 68 72 68 62 48 57 58 43 50 34
13 19 12 11 13 14 14 12 15 14 25 23 12 12 8 9 11 12 16 16 19 21 22 22 25 27 30 32 35 41 47 60 62 59 61 62 64 66 59 59 63 58 51 54
14 16 16 9 16 18 14 18 18 14 13 19 18 12 8 9 9 12 12 15 15 19 19 20 22 25 27 28 32 36 42 51 56 57 60 59 58 57 61 58 60 61 57 58
16 16 19 14 8 8 10 12 11 20 27 15 15 12 7 7 6 10 11 13 13 14 17 18 19 23 27 31 31 32 36 39 47 52 59 59 59 56 55 61 59 62 66 60
20 22 26 19 13 11 12 13 15 14 13 24 18 14 8 9 10 8 9 11 14 14 16 19 19 22 25 29 34 31 33 33 36 49 48 52 54 56 55 61 59 62 65 66
30 25 28 21 19 17 18 13 15 15 19 19 18 15 12 12 13 13 11 11 12 16 18 16 18 22 25 30 38 38 32 31 32 37 41 51 54 53 52 56 62 60 65 67
26 33 25 18 16 16 17 17 16 18 23 28 18 19 16 13 13 13 13 14 14 16 16 16 15 22 33 35 40 40 34 35 33 40 38 46 55 55 56 58 62 62 64 65
22 33 33 40 26 17 19 16 16 20 21 24 24 26 16 17 20 12 16 17 24 23 18 17 20 22 25 31 39 41 41 36 37 44 42 47 58 60 60 61 63 68 67 68
39 67 46 46 26 22 23 17 14 14 16 18 24 24 20 20 22 26 20 25 27 26 25 26 25 23 23 26 34 38 44 39 42 47 48 50 59 63 64 63 66 70 72 69
50 65 62 68 35 48 20 9 12 16 13 14 16 18 19 20 21 28 32 36 35 33 32 32 27 26 27 21 22 31 35 49 48 50 53 54 58 63 65 67 68 72 69 72
24 35 76 70 43 28 19 37 46 44 35 13 16 17 17 17 16 24 33 39 42 43 42 40 35 33 34 30 27 29 34 46 49 52 54 56 56 62 66 70 71 69 70 70
26 33 66 45 61 54 31 46 37 42 42 43 18 21 24 24 30 25 41 41 42 41 42 45 45 43 40 40 33 29 30 39 52 51 53 56 58 63 68 70 74 71 69 67
78 81 67 53 64 41 25 35 35 72 66 65 48 50 37 36 45 46 44 46 46 46 46 48 54 54 51 46 38 42 35 39 43 49 50 58 61 66 69 73 72 72 71 63
79 82 75 64 64 67 51 41 48 69 64 58 53 51 57 48 45 46 46 48 46 51 50 50 57 68 58 43 43 51 53 45 49 53 55 62 66 56 55 74 74 74 75 77
71 81 84 65 54 56 63 69 59 57 62 67 61 54 58 55 49 49 49 46 45 50 53 56 61 65 73 72 45 55 59 54 55 59 63 64 66 65 63 73 76 68 73 58
92 87 95 86 46 74 82 73 74 84 84 65 58 57 63 64 61 65 60 53 50 51 56 63 72 75 78 75 73 78 53 56 61 66 68 65 67 68 64 57 59 57 53 56
98 99 100 97 84 86 86 85 86 86 84 79 74 73 77 72 76 78 77 75 61 68 62 71 78 81 81 82 81 73 76 71 57 64 60 62 56 64 65 58 51 50 51 49
97 99 100 100 97 97 94 87 85 87 86 82 77 77 72 74 79 80 89 86 82 78 76 86 86 84 85 82 83 83 82 85 83 70 56 50 48 55 52 51 60 98 90 100

GFSCGP_sfc_rhum_066.txt.gz
RH
18 21 24 19 14 13 11 8 9 9 9 17 22 55 67 54 53 52 36 38 42 40 35 31 30 28 33 41 48 55 61 72 66 66 64 66 61 67 69 69 72 70 73 74
18 24 18 10 11 12 12 12 9 7 7 18 39 70 68 61 48 66 33 33 37 36 34 34 32 30 32 43 51 60 64 74 68 67 72 65 69 65 66 67 71 65 64 69
16 12 12 11 10 11 10 11 9 9 8 15 19 70 69 53 61 80 37 28 30 35 35 37 36 34 34 45 53 60 67 73 69 70 68 72 69 73 60 67 64 64 64 65
16 12 10 10 11 10 12 8 8 8 9 14 11 36 84 59 84 84 76 29 28 31 34 36 36 36 34 44 50 60 66 74 69 73 68 74 67 71 65 76 64 64 67 67
15 13 13 12 10 9 11 8 9 9 10 10 12 15 35 55 65 80 73 34 26 28 31 35 35 36 34 42 47 56 67 74 71 73 74 68 71 59 66 58 74 74 77 69
11 9 10 10 9 9 8 9 11 10 9 12 10 13 17 44 53 68 81 50 26 26 28 34 35 36 35 37 44 54 69 75 74 74 75 77 73 73 64 66 65 65 65 66
7 9 10 11 12 9 10 12 17 19 16 14 9 9 14 16 35 46 51 49 26 28 28 32 37 38 39 40 45 51 69 75 73 74 70 76 72 74 78 74 65 64 62 59
14 11 7 9 14 14 13 13 17 27 18 13 11 13 9 8 23 36 45 59 52 26 26 29 35 38 42 40 44 50 67 75 74 73 74 76 75 62 64 68 60 66 57 58
14 10 6 7 7 11 15 16 11 14 12 13 11 9 8 6 8 24 33 47 59 44 28 29 33 35 41 42 45 51 64 71 72 68 74 73 75 72 62 71 70 60 69 55
16 20 10 8 9 10 11 11 16 15 27 28 15 15 11 12 9 10 27 50 55 60 60 53 30 33 36 38 41 45 55 68 70 70 70 69 68 72 70 66 74 69 67 67
17 19 15 11 12 14 13 17 16 15 16 21 22 16 11 14 11 10 26 36 57 61 62 76 62 29 33 35 39 42 47 62 68 68 69 69 69 65 67 66 66 70 68 74
17 20 22 14 10 8 8 16 14 21 29 21 17 14 8 9 8 8 8 30 33 46 66 74 69 42 31 35 36 40 43 48 60 67 70 69 70 69 65 65 67 71 74 69
22 24 27 22 15 12 12 10 10 11 13 28 25 17 9 10 10 10 9 10 23 46 58 67 71 41 29 32 37 36 40 40 48 62 63 64 66 68 68 66 64 69 70 74
26 24 31 32 24 20 20 13 11 11 15 16 14 18 17 13 12 14 13 13 13 22 34 32 34 51 31 34 39 40 38 37 41 51 56 65 66 65 64 67 66 67 73 73
22 31 26 23 20 18 18 17 15 16 15 22 16 15 16 24 25 21 34 23 16 16 18 28 28 65 86 41 43 42 37 40 39 49 53 61 65 65 66 67 70 68 68 70
30 34 27 27 20 23 27 21 16 15 16 15 14 16 14 19 32 31 34 45 30 28 25 30 34 37 45 43 45 45 44 41 42 50 52 59 66 69 68 70 69 74 72 73
35 50 60 52 26 23 32 23 19 16 15 17 22 17 18 21 31 30 34 44 54 30 33 36 34 34 48 63 48 46 47 44 48 53 54 59 66 68 70 70 72 74 76 73
34 35 66 56 44 65 26 19 16 16 15 13 15 17 18 20 23 22 26 40 70 45 44 44 36 39 38 72 91 42 43 53 54 55 58 60 64 67 70 72 73 73 73 75
25 31 74 72 48 37 27 22 32 44 33 14 33 31 18 12 14 31 49 62 64 48 43 43 41 44 53 48 43 53 44 50 52 57 57 61 58 66 69 73 73 71 72 75
30 29 69 70 61 57 29 46 32 30 40 47 51 47 42 39 19 60 51 43 47 48 45 47 48 48 54 54 44 43 50 49 54 52 56 58 59 64 69 72 75 73 72 70
70 70 72 72 69 36 37 45 43 57 55 53 53 58 52 58 71 67 48 48 45 47 49 50 53 58 65 71 70 57 52 48 51 51 51 60 65 65 69 75 74 74 73 71
70 75 80 76 93 61 52 40 60 82 65 53 52 57 56 54 52 47 48 49 47 47 51 53 62 66 66 77 82 80 64 57 58 59 58 63 65 59 58 76 77 77 78 80
84 95 99 72 57 69 61 70 62 61 70 65 70 51 55 52 56 57 55 54 49 50 55 57 68 74 74 81 80 83 81 70 63 65 67 66 69 66 68 74 79 76 79 73
80 84 91 83 44 62 63 52 69 74 74 68 70 58 61 61 61 62 56 56 55 56 58 57 68 79 83 85 87 83 82 82 74 67 73 68 72 72 70 62 68 71 71 73
98 98 100 97 72 86 78 82 80 76 76 81 78 72 72 69 65 68 66 66 65 64 63 63 71 82 84 83 88 83 82 84 81 69 67 68 63 73 72 66 69 68 68 67
96 98 100 100 97 98 95 88 82 86 85 85 86 80 70 71 71 73 76 75 78 70 70 72 77 85 86 86 84 89 89 90 90 78 65 62 58 62 66 68 78 99 96 99

GFSCGP_sfc_rhum_069.txt.gz
RH
25 34 39 33 24 20 19 20 18 13 12 18 40 77 68 63 63 77 81 56 52 51 44 40 32 35 48 52 54 66 70 69 81 86 84 81 78 77 81 80 79 80 84 80
34 35 25 21 20 20 18 19 19 14 10 33 65 77 66 63 67 73 92 57 50 49 44 38 33 36 46 55 53 68 69 72 78 80 82 76 76 79 72 74 81 80 80 84
27 25 19 20 22 16 16 21 18 17 11 31 64 78 74 56 58 67 82 79 50 46 43 39 35 39 46 54 59 64 75 75 76 75 81 83 79 83 77 81 76 84 77 79
24 17 15 20 21 17 20 13 12 11 14 21 27 63 82 68 68 71 78 77 62 46 41 38 37 40 46 51 56 65 77 74 76 74 74 82 72 66 78 67 80 80 75 78
22 19 20 18 15 12 15 13 13 14 16 20 13 22 82 58 74 69 62 55 62 58 39 40 40 37 45 50 55 63 79 72 66 76 68 79 79 76 73 68 70 84 85 79
14 11 13 16 12 12 11 13 15 16 22 27 17 18 92 72 62 63 51 47 59 51 44 38 37 39 43 50 51 63 78 73 71 76 87 79 77 78 68 68 82 76 85 84
13 8 8 9 18 14 14 31 33 35 30 28 18 19 15 59 50 55 53 58 51 55 44 39 40 40 41 50 55 60 69 81 71 74 74 91 77 79 83 87 75 68 83 84
22 21 9 9 16 24 21 21 32 38 35 28 19 23 18 34 46 46 53 51 54 78 71 50 40 39 40 49 55 59 65 70 72 69 69 82 87 73 83 82 79 64 68 67
30 24 13 10 9 15 24 29 20 25 20 26 23 18 13 12 39 49 49 48 70 72 68 71 59 38 41 46 51 59 66 65 72 72 66 73 90 71 79 77 80 75 71 69
27 34 19 13 11 12 18 18 26 29 36 39 28 25 26 21 24 45 43 60 66 73 81 77 82 72 48 40 47 52 65 67 70 70 68 66 73 81 81 77 80 76 67 71
32 34 28 20 19 18 18 23 27 29 34 37 32 27 18 17 20 28 42 61 59 65 75 84 86 84 83 67 47 50 63 68 70 67 71 65 64 75 85 76 72 81 74 83
28 34 41 29 18 15 15 19 20 39 37 38 41 32 14 13 13 34 37 49 53 58 69 78 83 80 77 66 45 45 53 66 68 69 67 71 65 68 70 84 79 78 77 79
33 43 50 39 25 21 26 20 19 18 25 26 37 31 17 24 30 33 45 58 52 47 49 61 59 49 62 60 46 43 46 60 64 67 68 70 72 65 67 63 83 69 87 74
33 42 47 50 37 27 31 24 22 24 26 25 23 24 16 32 31 33 33 49 49 48 46 54 46 61 61 79 78 41 43 48 61 66 70 70 69 70 62 60 59 82 70 89
38 47 39 30 25 22 24 24 26 29 25 33 24 21 18 36 34 37 42 50 59 60 57 70 76 77 84 84 89 80 42 44 52 64 69 70 69 67 70 66 68 58 74 64
46 62 51 54 35 26 25 22 24 25 23 21 20 21 23 19 33 34 40 44 68 69 57 69 64 76 87 86 81 82 52 44 44 58 66 67 68 69 69 71 72 66 66 78
48 58 76 68 52 51 46 31 24 23 22 22 24 20 19 20 21 51 59 60 66 73 62 62 68 77 88 85 81 86 91 57 46 50 61 64 68 72 71 71 72 76 66 62
46 50 71 74 78 74 42 30 27 25 22 53 54 34 51 53 45 56 56 66 73 66 69 58 68 71 82 94 93 92 92 94 78 56 57 62 68 70 72 70 73 71 72 69
45 55 82 86 78 46 34 24 52 53 54 57 64 64 60 57 49 68 63 58 58 57 59 65 59 63 68 83 93 96 86 92 86 69 59 62 64 69 71 72 71 71 70 74
54 57 80 83 94 84 64 44 38 38 63 60 58 62 63 62 88 80 61 57 55 54 56 62 65 68 70 84 91 97 87 81 79 71 63 61 62 67 69 70 68 69 67 65
88 85 84 84 88 64 53 43 40 62 84 64 61 67 63 69 70 68 58 59 56 56 58 64 70 76 75 77 89 96 95 95 88 73 71 65 60 63 66 66 67 66 68 68
92 99 96 88 89 90 72 60 86 86 78 71 70 72 74 63 57 56 64 63 61 62 64 64 72 74 78 78 89 92 97 94 88 92 81 71 67 58 66 68 70 69 69 72
95 99 100 96 97 94 88 82 70 70 79 75 79 71 80 70 70 66 69 68 64 67 67 69 74 80 81 82 82 84 88 92 90 90 90 85 68 62 58 70 70 73 71 73
87 86 96 94 64 90 80 79 80 76 80 72 68 76 75 83 73 71 72 76 70 72 76 66 76 88 89 86 85 81 85 88 90 92 93 80 76 69 60 69 68 71 72 75
96 97 100 99 86 92 80 82 87 83 76 79 73 81 76 76 74 73 76 83 83 85 82 83 86 93 93 90 92 83 84 91 93 91 92 82 64 76 68 67 73 70 67 72
91 96 100 99 93 98 95 90 87 88 86 86 87 82 77 76 81 78 83 87 80 84 86 90 82 78 90 92 91 87 92 95 96 97 94 82 65 78 72 72 90 100 97 99

GFSCGP_sfc_rhum_072.txt.gz
RH
29 38 44 41 37 28 27 29 26 20 17 17 54 87 88 88 76 78 73 68 52 51 48 43 37 48 49 50 56 63 76 78 82 88 87 84 85 87 93 87 81 86 86 85
41 45 32 27 27 27 28 28 27 20 18 56 88 95 88 85 83 78 72 69 54 51 48 48 37 51 51 52 56 65 68 79 80 82 85 81 80 83 81 88 88 85 84 81
46 35 27 26 28 29 32 32 26 23 46 62 68 83 79 69 74 81 71 69 58 50 49 50 37 51 51 55 63 66 70 75 82 80 87 85 85 88 87 86 86 88 85 84
35 23 20 26 28 29 41 20 16 17 19 22 47 80 80 76 88 88 82 76 74 55 46 46 41 50 55 53 60 65 72 75 80 80 86 85 88 88 83 82 82 86 86 85
24 25 26 25 20 22 27 19 17 20 22 24 21 28 58 70 86 87 88 74 68 59 46 45 42 42 50 52 56 72 74 76 74 72 72 80 82 78 85 79 84 90 89 86
13 12 17 20 17 17 15 18 20 24 26 31 25 20 55 86 65 70 79 75 65 57 49 43 40 42 47 53 53 73 75 75 80 77 80 81 83 81 90 76 82 90 87 90
17 15 10 10 16 18 18 26 35 35 31 32 26 24 21 55 57 55 67 72 60 57 54 44 44 48 49 54 56 69 76 76 74 80 82 82 79 80 83 83 76 78 93 95
29 22 18 14 19 22 27 25 33 38 38 34 25 29 19 29 44 42 47 57 56 58 73 56 46 45 50 52 57 61 75 74 71 72 78 91 80 78 82 87 73 71 72 75
34 28 18 16 16 17 25 33 25 31 47 34 30 24 19 19 39 50 51 57 63 68 56 56 71 59 56 53 55 60 69 68 70 68 67 75 87 84 80 84 87 77 67 71
32 33 27 19 17 19 21 20 26 35 46 48 35 32 28 22 36 47 56 55 62 74 68 67 72 72 73 62 57 56 61 65 71 67 64 64 73 88 78 82 83 85 77 79
36 37 32 22 29 33 26 26 26 36 39 45 42 33 31 38 53 50 56 50 52 70 64 68 78 78 77 72 57 58 59 62 70 70 66 63 65 74 93 80 76 82 81 77
38 42 44 39 27 22 23 31 34 40 35 45 47 41 28 38 40 48 60 46 54 62 57 73 70 68 76 73 65 55 60 62 62 68 68 66 63 68 82 91 80 80 82 86
38 52 57 39 37 30 31 25 40 38 42 35 37 32 20 31 43 52 64 69 67 70 74 65 53 62 63 62 68 59 54 64 61 66 68 69 64 63 66 73 88 77 82 84
39 52 53 60 50 37 34 26 25 41 50 44 39 28 23 26 35 42 63 70 63 58 65 77 66 65 74 72 64 62 54 59 62 63 67 70 71 64 59 63 70 91 72 80
47 51 54 51 43 40 42 38 28 32 39 47 34 31 24 29 27 51 58 66 71 76 80 81 82 80 79 83 82 82 62 59 62 66 68 67 71 71 65 59 64 71 83 70
58 67 68 64 47 46 42 35 34 30 28 31 31 36 61 57 61 70 67 74 81 84 74 80 85 87 85 78 84 85 84 84 67 66 68 69 67 73 75 69 62 66 67 77
59 67 78 82 60 49 50 36 36 34 34 63 91 77 67 69 65 70 72 75 80 83 88 88 85 85 94 95 90 92 93 90 86 72 68 69 73 73 75 77 73 69 68 59
55 65 87 85 76 85 44 36 32 41 65 67 70 68 66 66 67 66 63 71 74 75 83 87 88 89 94 95 93 94 93 91 94 90 67 74 74 76 75 74 79 75 75 65
56 70 82 85 86 60 46 36 33 58 83 64 71 69 64 60 67 72 64 63 61 66 71 81 77 86 93 92 92 95 96 91 89 90 90 78 83 77 76 77 75 76 77 75
71 76 91 88 92 87 62 68 56 56 93 70 71 78 77 71 90 88 69 65 59 60 71 78 78 75 78 90 93 95 97 96 93 93 95 91 86 85 80 74 74 73 72 74
95 94 90 91 94 83 90 80 64 77 82 78 72 78 85 96 82 76 65 71 64 62 67 71 72 75 79 78 88 95 96 98 96 95 94 90 89 68 68 71 89 71 73 70
94 96 99 97 95 97 82 75 88 91 86 84 84 81 81 85 82 72 72 76 69 69 68 67 74 84 79 79 80 90 95 94 94 94 95 93 91 84 62 70 76 78 70 76
96 96 97 94 99 90 87 90 79 79 95 88 80 69 66 78 83 86 82 85 81 76 76 72 78 81 86 82 90 93 86 92 95 96 97 96 94 95 63 67 68 73 70 72
93 86 96 95 74 87 81 78 88 79 75 81 75 72 66 85 86 85 88 84 90 85 80 80 85 85 86 86 88 92 88 88 95 96 96 94 98 93 87 78 64 67 70 71
94 92 94 91 86 83 77 83 86 84 76 78 75 76 80 80 86 88 92 93 88 92 86 90 95 86 84 84 92 88 87 90 92 93 95 97 97 94 93 77 85 69 71 68
91 96 98 97 87 94 89 85 84 87 83 82 84 84 80 81 84 82 84 90 92 95 88 89 84 77 88 92 89 93 88 92 93 95 90 98 96 93 82 85 97 100 96 99

GFSCGP_sfc_rhum_075.txt.gz
RH
32 36 45 39 39 36 34 33 32 27 19 23 78 84 85 86 85 77 71 63 56 55 53 41 43 48 54 60 67 68 76 81 87 88 89 89 89 93 95 95 91 91 92 89
44 45 33 30 35 34 35 35 36 25 33 48 93 93 86 83 82 80 74 67 56 53 54 46 49 49 53 62 66 70 70 78 82 82 88 84 87 90 96 96 90 93 88 88
45 38 31 31 34 35 44 39 36 30 36 76 80 91 91 78 82 82 78 68 58 52 52 47 52 54 53 60 66 71 69 77 80 82 86 92 90 89 92 92 93 91 85 82
42 33 30 31 34 34 50 30 26 23 24 26 64 97 88 79 82 78 84 75 65 50 47 50 52 56 53 55 60 66 71 75 82 85 84 86 88 91 88 88 88 92 90 88
36 28 32 28 25 29 33 27 25 22 25 28 31 39 72 78 89 86 86 73 66 60 48 52 48 53 53 52 57 63 71 75 78 81 74 85 90 86 85 85 85 92 94 87
15 14 23 26 23 22 20 27 24 29 29 31 26 24 38 96 78 73 82 75 69 66 63 49 44 51 53 52 58 64 72 74 79 77 83 84 83 85 89 91 89 94 96 96
18 18 16 14 18 20 22 28 36 36 34 32 32 26 24 58 64 61 69 74 70 63 62 51 50 50 55 56 60 67 72 75 78 78 79 81 81 83 84 89 89 92 97 96
26 24 20 18 23 25 30 26 35 37 40 34 34 29 22 20 24 45 53 62 66 64 66 57 50 45 52 55 58 68 72 71 75 75 79 82 80 78 82 88 87 85 85 83
34 31 22 19 19 23 28 37 36 38 50 34 34 26 24 35 43 51 59 61 73 70 60 59 58 49 50 55 57 66 72 69 71 71 73 83 82 82 82 88 89 86 83 77
38 31 30 22 20 21 24 23 31 38 44 45 37 35 47 48 54 59 65 63 64 70 64 63 58 55 53 51 53 56 66 69 69 68 68 72 82 86 86 85 92 91 87 83
50 38 28 28 31 32 33 35 38 40 45 46 46 48 32 52 56 72 74 72 63 63 66 64 61 66 60 52 52 55 60 65 69 68 67 66 72 92 94 87 84 85 90 86
44 47 47 41 31 24 24 36 42 46 45 46 52 54 26 25 44 62 74 74 68 66 68 68 66 72 79 59 54 55 58 62 65 66 66 66 66 73 92 91 85 84 84 87
36 50 47 36 33 33 33 31 44 45 50 51 49 39 21 36 33 53 74 80 78 77 80 80 86 89 85 77 78 72 57 62 61 67 66 67 66 67 70 86 92 86 84 85
42 55 49 51 52 44 49 42 34 44 51 52 47 40 45 61 72 75 79 78 80 83 84 91 90 89 84 78 75 81 69 64 59 66 70 70 68 66 64 63 81 89 82 84
41 61 69 60 48 48 49 46 40 41 43 47 39 41 85 76 77 77 76 77 84 81 85 89 93 94 87 83 76 75 79 76 67 65 72 71 70 66 63 64 64 84 88 76
59 74 75 66 52 47 49 41 36 35 37 41 45 58 78 68 70 74 75 75 85 87 85 87 90 95 94 90 88 85 84 87 69 67 68 79 74 73 70 66 64 66 80 84
62 69 80 77 65 50 46 41 38 43 62 53 72 87 74 74 72 76 76 70 76 79 85 88 90 95 95 95 96 98 96 90 87 73 70 73 88 88 82 75 70 66 67 69
63 73 87 85 72 77 44 42 41 74 71 74 75 73 71 71 67 62 72 74 73 73 86 86 88 88 92 92 93 95 96 96 93 90 82 76 78 83 81 81 80 71 66 68
63 76 87 87 87 63 49 53 62 74 88 75 80 78 72 67 68 67 65 68 70 71 78 84 76 83 86 92 92 96 94 94 92 94 91 88 84 82 82 85 80 80 73 72
84 86 89 92 88 85 62 80 70 75 92 78 79 86 87 83 89 90 76 73 70 66 72 71 76 72 73 85 90 94 96 95 96 96 96 94 92 92 88 79 85 90 89 78
96 94 92 92 94 80 90 82 73 78 83 85 83 88 91 98 95 89 79 74 73 71 71 71 71 74 83 79 83 94 95 96 95 93 95 92 89 95 96 88 87 83 87 93
91 95 98 94 99 92 78 78 89 94 93 89 90 87 87 84 74 72 79 79 77 80 75 73 76 81 78 82 82 90 95 93 93 94 95 95 95 96 96 93 80 86 87 87
96 94 95 94 93 91 93 94 91 90 95 94 92 87 83 80 71 71 75 87 81 82 84 76 86 84 82 79 88 89 86 93 95 96 94 95 94 95 96 98 86 92 94 82
91 82 97 94 74 89 82 85 89 91 94 79 66 75 73 77 76 75 79 80 91 89 86 89 94 90 92 82 82 87 87 88 91 96 95 93 96 93 96 97 97 96 90 87
94 92 93 94 84 84 83 86 84 84 80 77 72 74 76 75 79 81 82 90 88 88 90 91 95 96 87 84 86 84 95 85 86 92 93 96 95 94 96 93 98 94 90 86
94 92 98 95 83 84 85 82 84 89 83 82 83 84 80 80 84 80 80 81 90 85 88 93 94 90 91 88 87 92 91 94 93 96 90 97 94 96 98 94 94 100 98 100

GFSCGP_sfc_rhum_078.txt.gz
RH
35 39 44 39 40 40 37 35 38 31 24 32 76 89 89 88 88 83 76 66 64 62 59 54 54 57 63 71 80 82 84 89 88 92 91 91 90 92 95 93 88 89 92 91
43 44 34 32 38 39 40 40 40 28 41 50 93 96 91 92 90 85 79 70 61 60 63 53 52 53 60 69 76 82 83 89 85 87 89 87 89 90 95 95 92 91 90 91
45 38 30 32 36 37 50 46 40 31 34 84 86 87 88 86 84 81 82 73 62 57 61 54 51 53 59 68 74 78 81 84 85 87 90 93 93 91 94 92 93 90 89 87
42 37 34 39 38 36 64 33 31 32 28 27 70 77 95 82 82 81 84 83 72 59 55 53 55 56 60 64 67 74 78 82 84 89 88 90 89 90 89 89 94 92 89 87
44 32 37 35 30 32 37 31 31 29 29 30 38 51 71 90 94 88 81 76 72 62 54 54 54 57 58 60 65 70 78 81 83 85 86 85 90 87 88 88 90 91 92 91
22 16 29 31 26 28 25 24 27 31 30 33 30 30 28 90 87 80 74 69 68 65 56 54 51 57 57 58 63 70 80 81 84 84 87 88 88 88 88 89 88 88 90 91
19 20 19 18 18 23 24 31 41 40 36 34 33 28 42 30 38 60 64 71 72 62 62 64 53 58 60 61 65 69 80 83 86 85 85 86 85 88 87 88 87 90 91 91
25 27 23 19 24 28 30 30 38 39 43 34 37 30 43 46 53 60 64 66 70 67 66 61 56 54 60 61 64 66 75 78 82 84 86 87 88 80 84 87 88 87 87 86
32 33 24 21 22 25 33 36 38 40 55 36 37 48 38 33 46 63 69 70 76 69 68 67 63 52 59 60 64 67 72 72 77 79 83 88 88 87 83 87 87 87 88 81
43 34 30 24 22 24 25 29 35 40 43 44 41 57 53 34 35 46 73 77 76 75 75 68 62 56 55 55 58 63 66 69 72 75 77 78 82 84 83 86 88 89 87 86
56 32 31 32 35 36 32 36 39 43 48 45 60 55 34 39 51 45 75 81 82 78 77 71 66 71 55 54 57 60 65 70 70 71 74 76 82 84 87 81 84 86 88 89
38 42 51 47 33 29 34 40 47 40 40 54 57 44 29 59 72 78 84 84 85 80 76 74 73 80 75 64 56 58 61 66 66 70 74 74 79 85 86 84 83 85 86 89
36 47 49 46 37 36 43 39 49 49 51 54 52 50 35 70 77 75 78 84 86 89 90 88 92 92 88 82 84 84 74 68 66 76 70 74 75 81 84 85 87 86 83 86
39 46 44 47 48 50 56 46 40 46 48 52 48 48 63 80 81 79 77 76 79 83 84 93 95 93 89 86 85 90 89 87 66 75 71 75 75 74 73 79 87 87 86 84
44 65 64 60 51 51 52 47 41 46 49 45 43 53 81 82 81 80 71 71 77 83 85 86 92 96 95 95 90 86 87 87 84 73 73 73 74 74 75 77 81 85 86 82
62 84 73 74 57 51 50 43 41 38 39 40 48 73 81 74 77 77 77 73 83 84 81 82 85 86 92 92 94 94 91 90 78 76 79 79 78 80 78 79 79 86 86 86
66 72 79 75 73 55 55 51 45 51 63 53 57 77 75 76 77 81 83 79 79 82 86 84 85 87 91 91 91 95 96 96 93 82 79 87 90 85 84 80 82 82 84 86
66 80 86 81 74 54 40 46 41 65 76 79 79 77 75 75 69 70 74 79 80 77 83 85 81 84 86 88 89 94 92 95 96 94 82 83 85 86 87 87 84 81 77 82
72 81 90 86 84 62 49 80 77 82 76 79 82 84 80 75 69 74 71 70 79 75 75 83 74 74 83 87 88 94 93 94 93 95 95 90 87 86 90 89 90 86 80 79
86 84 89 88 84 76 61 80 73 83 91 84 84 89 89 80 72 88 76 69 73 75 73 77 78 74 70 82 88 92 94 92 94 94 94 93 94 95 90 89 93 95 88 80
95 94 91 92 92 78 88 81 78 82 82 85 85 90 90 92 90 81 69 68 67 72 74 75 77 80 80 76 83 91 94 94 91 92 93 91 89 94 94 94 94 94 91 96
86 95 97 95 98 91 81 76 83 89 94 90 88 89 91 87 81 75 71 68 70 74 74 73 79 80 83 84 79 86 94 91 93 93 94 95 96 95 94 97 97 96 92 96
95 90 94 91 91 91 93 84 92 91 95 90 92 76 69 84 85 77 75 72 69 70 78 77 77 80 81 85 80 82 86 92 94 94 93 93 95 96 96 99 99 97 93 97
91 94 98 89 71 84 89 81 87 87 88 86 82 68 65 71 69 70 71 73 72 72 76 79 82 80 84 84 87 84 85 87 91 95 95 93 97 93 97 97 98 98 94 91
93 94 93 95 85 83 78 85 88 86 84 79 73 74 75 76 78 80 80 78 76 76 78 77 85 82 82 83 90 85 83 88 87 90 91 94 95 96 95 92 96 94 90 90
96 94 97 93 80 79 76 86 82 85 81 80 81 80 76 75 83 80 77 79 79 79 76 83 81 82 81 86 90 89 88 87 88 89 84 94 92 94 96 93 89 98 100 100

GFSCGP_sfc_rhum_081.txt.gz
RH
20 26 31 35 32 28 26 24 24 21 26 33 37 42 55 69 72 76 69 61 53 51 49 48 49 50 50 54 59 67 72 74 71 68 64 64 63 64 66 64 70 69 72 74
22 26 27 28 28 29 28 29 26 22 38 26 56 64 56 59 62 73 69 62 54 49 49 50 49 48 49 54 60 68 72 76 74 64 66 64 65 62 64 66 70 66 68 75
21 22 26 27 29 32 30 31 28 23 23 55 55 64 70 75 64 68 62 58 52 51 48 50 50 48 48 54 60 66 72 74 74 72 69 71 71 69 68 67 66 66 70 71
22 25 29 27 28 27 34 25 25 24 21 18 50 29 70 74 74 67 66 64 54 50 48 48 47 48 47 52 55 64 69 73 72 77 71 76 61 59 56 60 62 63 70 71
28 31 34 34 29 25 29 24 24 24 21 18 32 29 33 66 72 63 56 59 67 51 46 46 45 45 44 48 52 57 70 74 72 77 75 68 69 56 57 59 71 73 76 74
17 15 22 25 22 22 21 19 19 19 17 20 19 24 41 44 52 51 51 51 51 62 51 45 44 44 45 46 49 55 70 77 75 76 76 77 74 69 63 64 62 62 61 65
14 15 14 14 20 21 20 20 25 25 22 20 21 25 52 45 48 54 56 49 44 48 51 47 47 45 48 51 52 55 68 74 73 73 73 74 73 74 74 72 60 65 60 60
23 21 17 16 18 20 23 20 20 32 25 19 22 34 41 25 30 39 51 54 50 47 48 47 46 46 49 51 55 57 65 73 71 70 76 76 74 60 58 65 56 57 56 57
20 21 17 18 17 18 22 22 17 20 23 17 21 29 30 30 44 52 62 63 64 60 51 49 49 45 49 51 55 59 66 70 68 65 72 75 74 72 64 68 68 56 65 54
23 24 21 19 16 16 20 19 20 21 31 26 36 36 29 53 65 69 74 77 74 60 60 54 50 50 46 46 49 53 57 65 66 64 65 65 68 71 68 68 72 67 63 67
21 19 24 20 24 27 19 20 25 21 26 24 32 32 39 66 74 77 78 81 80 70 58 57 53 51 59 45 47 49 53 59 61 61 65 65 63 63 67 66 67 69 66 70
27 23 28 26 22 23 22 27 25 22 34 32 25 29 51 63 68 71 76 80 81 83 74 64 57 54 51 53 50 47 48 50 54 60 69 69 68 66 62 67 65 68 70 67
26 28 30 26 21 23 27 26 26 25 25 36 23 28 50 58 64 66 70 76 76 78 83 84 78 72 62 52 53 52 50 46 47 57 63 68 69 70 66 65 65 67 68 68
29 30 29 19 31 30 30 25 26 23 22 31 27 32 47 64 67 63 68 70 66 66 74 83 90 93 88 80 74 68 63 57 52 51 54 60 69 70 69 67 68 66 69 69
30 41 39 37 34 31 31 27 24 25 28 27 30 30 56 69 68 64 62 65 65 64 62 74 84 87 89 90 86 83 73 71 60 56 57 58 64 64 71 75 72 68 69 68
38 49 43 46 38 34 32 29 28 26 24 27 28 38 55 61 60 62 62 62 66 66 64 63 64 76 83 84 86 90 91 89 77 70 62 63 66 69 69 71 71 74 72 72
43 44 50 44 44 33 29 28 28 29 34 30 24 43 56 60 61 64 63 63 67 66 66 66 62 61 66 76 77 88 93 90 87 83 72 73 71 72 73 71 73 75 75 71
46 49 53 47 43 36 32 32 36 34 46 52 56 58 58 59 50 56 52 55 61 63 66 65 56 58 60 63 73 72 86 89 92 88 81 76 72 73 73 74 74 76 71 73
43 44 66 57 38 39 34 53 52 46 42 61 61 64 58 52 43 61 56 51 50 51 55 56 55 56 59 62 69 73 72 85 89 90 90 88 90 84 75 77 78 77 74 72
48 49 51 65 59 43 43 60 57 58 48 67 65 69 62 52 43 48 53 49 47 45 46 50 52 53 54 60 61 70 72 64 83 90 92 89 88 90 88 85 81 76 76 73
73 73 62 63 61 46 50 55 57 51 54 65 63 66 65 61 59 58 54 53 51 50 50 51 51 54 57 58 59 71 77 76 69 78 88 91 90 94 92 91 93 92 86 82
66 76 78 76 72 68 57 60 63 67 64 62 61 61 63 60 58 57 55 54 53 54 53 49 52 53 52 56 60 67 74 81 79 76 82 89 91 95 94 96 93 96 98 96
74 67 81 69 63 72 66 55 56 58 60 62 62 58 56 55 57 56 56 55 55 56 54 50 52 56 55 56 61 68 70 74 87 83 80 85 87 90 96 97 97 98 99 99
74 68 78 68 51 67 62 56 57 61 60 58 56 57 55 57 56 57 55 54 55 56 60 55 56 59 61 59 60 63 69 72 75 88 85 74 72 75 90 93 98 98 99 89
75 81 88 77 58 62 62 57 56 62 60 58 56 53 56 60 58 58 59 61 60 59 61 59 60 58 60 60 63 60 67 73 71 70 69 72 68 70 80 85 86 92 94 96
72 82 94 93 59 58 55 56 58 62 61 60 58 57 60 64 63 59 60 64 69 73 67 71 68 65 61 57 58 61 68 75 76 73 62 59 60 61 77 84 87 94 99 100

GFSCGP_sfc_rhum_084.txt.gz
RH
13 16 16 16 16 21 20 21 22 30 32 25 26 36 53 63 62 57 53 46 39 33 33 36 37 36 34 38 44 52 55 61 57 52 49 52 50 48 48 46 54 56 56 60
14 16 11 16 22 24 22 21 20 21 20 17 23 25 43 63 59 57 56 52 40 32 34 38 38 37 35 38 43 53 57 62 60 48 51 47 49 44 51 55 57 54 56 59
13 12 15 21 27 24 23 21 20 20 19 22 26 36 37 44 60 55 58 47 44 36 33 39 39 38 36 36 45 51 60 62 62 56 54 60 56 55 55 54 50 52 56 59
12 15 18 21 23 20 22 22 19 17 16 25 24 50 49 49 63 58 57 59 43 43 40 36 37 39 36 37 38 48 57 61 60 64 58 65 49 46 42 46 44 53 56 58
16 17 22 23 20 19 19 20 21 18 16 15 19 21 44 59 60 59 52 61 53 42 38 39 35 38 35 37 37 41 57 64 60 65 65 56 66 42 43 40 58 62 66 61
18 12 20 20 20 20 19 20 20 18 15 20 15 18 33 36 46 41 40 38 46 42 39 38 35 35 36 34 37 41 56 69 69 65 68 68 61 57 46 54 49 46 45 52
18 19 15 16 24 20 19 16 22 26 21 17 14 18 39 35 33 39 43 40 32 42 48 40 38 36 37 37 39 41 53 67 65 62 63 65 66 64 67 58 54 48 42 42
16 20 15 13 17 22 19 14 15 30 20 16 17 27 30 30 34 40 42 42 39 31 35 44 44 37 38 38 40 44 49 63 63 61 65 66 66 51 50 50 40 45 40 42
18 19 13 14 12 15 19 19 11 13 12 13 16 28 25 30 39 46 60 63 51 44 33 39 43 37 38 39 42 46 51 58 59 56 61 66 66 64 50 53 52 43 49 40
18 21 14 14 12 13 16 14 17 13 25 23 19 32 30 42 52 60 76 79 73 46 45 46 36 37 37 35 37 42 46 53 56 53 54 55 59 63 61 57 59 55 45 52
13 16 18 15 17 16 16 16 16 12 14 17 24 23 33 50 64 70 78 82 83 79 57 48 44 47 39 35 36 38 42 48 52 51 52 53 52 54 59 57 57 58 54 55
17 14 18 17 16 17 16 18 18 17 24 16 15 30 36 46 54 56 68 75 75 76 71 79 80 66 52 46 39 37 38 38 43 48 57 53 53 53 52 57 55 57 60 55
19 16 22 19 15 17 18 18 18 16 16 21 16 33 35 42 51 55 63 63 67 70 70 72 70 75 78 76 60 44 38 35 34 44 49 53 53 53 62 54 55 56 58 59
26 18 23 17 22 17 20 18 18 16 16 19 18 41 44 44 48 52 58 55 59 62 64 64 68 73 73 74 80 82 66 44 38 37 42 53 57 59 58 65 55 54 58 60
21 28 24 22 20 18 18 16 16 20 21 22 24 32 41 46 48 49 49 53 53 54 56 60 61 65 68 77 78 81 78 72 66 52 45 47 53 57 63 69 67 56 57 58
23 31 27 27 22 21 19 18 18 18 19 21 21 38 38 43 45 47 50 51 55 56 54 51 51 54 58 62 68 77 90 89 86 71 64 55 56 57 59 62 64 68 62 61
30 28 32 23 25 21 20 17 15 17 18 18 23 35 38 43 46 48 47 48 52 52 52 52 49 48 49 48 54 64 84 86 88 88 72 71 71 70 67 62 65 68 69 63
32 34 27 23 28 24 26 23 17 17 26 24 30 35 37 40 40 43 43 44 45 42 44 46 41 44 48 45 49 53 53 76 83 85 86 86 82 82 68 70 74 70 65 67
28 29 30 33 22 26 25 28 24 22 32 33 34 38 37 38 35 48 44 43 43 41 37 37 34 36 44 45 47 53 52 54 69 80 85 88 89 88 86 85 73 72 78 73
28 36 34 30 47 32 30 37 33 27 30 41 37 43 40 36 28 50 45 40 39 38 38 39 38 35 35 42 39 44 48 51 57 62 73 80 89 92 89 88 84 90 85 68
46 42 42 34 42 28 34 36 34 35 48 46 42 44 42 36 39 44 40 41 39 39 41 41 41 41 42 41 40 48 48 49 55 58 59 64 83 91 88 94 91 84 89 90
50 56 47 41 50 56 36 39 40 52 46 42 43 43 43 43 42 41 41 42 41 41 41 40 42 42 42 43 45 50 55 54 56 59 63 66 65 65 86 95 96 89 88 90
54 40 54 41 42 51 41 41 44 38 37 41 41 37 42 41 41 42 43 43 41 42 43 40 42 46 46 46 49 55 58 58 60 61 62 64 68 61 60 68 86 98 97 87
44 44 53 54 39 48 42 35 35 36 37 39 39 40 40 42 42 43 42 42 43 43 47 44 48 49 52 51 51 53 55 56 59 64 63 56 58 72 60 48 46 72 95 98
54 57 65 62 42 43 43 38 39 43 42 39 39 37 40 44 44 44 45 48 47 52 52 54 61 64 66 60 56 50 52 53 53 59 55 52 42 48 68 55 46 50 58 94
43 58 85 83 41 41 38 43 42 46 45 44 42 41 43 44 46 46 46 49 54 56 59 62 74 68 65 64 63 60 54 54 57 60 49 43 44 41 43 58 50 66 89 96

GFSCGP_sfc_rhum_087.txt.gz
RH
11 12 14 13 13 14 14 18 24 47 23 29 38 39 59 66 59 53 50 43 42 35 27 27 27 26 27 34 43 47 48 55 50 47 43 75 48 76 68 73 51 52 60 53
11 12 10 8 9 13 16 16 18 31 22 21 24 37 45 47 43 49 49 47 47 35 27 33 34 27 26 33 41 49 52 59 56 45 49 42 77 74 43 46 50 58 51 53
12 10 8 8 11 17 18 16 18 19 18 14 18 38 47 55 45 45 47 44 46 36 29 42 39 35 28 34 39 49 55 60 58 54 48 48 53 71 44 53 46 47 50 50
11 8 10 11 16 16 18 13 14 16 20 22 18 34 39 49 53 49 51 51 46 40 35 38 49 42 29 31 35 47 55 58 56 59 66 66 52 50 66 57 76 49 49 55
12 10 12 15 16 14 13 14 15 14 16 19 21 48 80 38 53 51 53 51 44 47 31 39 38 43 32 29 34 42 56 62 61 63 76 54 61 72 72 71 68 60 60 54
10 8 11 12 12 12 14 15 18 16 14 17 14 22 86 39 39 37 44 51 42 45 46 37 37 43 38 28 31 38 56 66 62 61 63 67 59 66 75 58 52 43 44 49
17 12 12 14 15 14 17 18 24 24 20 17 11 20 60 32 31 31 35 34 35 41 49 40 51 40 40 31 32 36 52 65 62 59 60 64 62 59 59 57 51 74 57 47
18 20 17 16 17 18 18 15 17 29 19 13 11 28 32 28 31 34 41 35 33 27 32 49 38 42 44 39 32 35 48 61 62 61 65 66 64 50 46 53 61 48 59 38
15 16 12 13 14 14 18 17 8 10 10 11 18 30 29 31 36 52 66 58 47 31 32 36 39 62 43 40 37 38 46 54 57 55 61 66 65 64 49 55 52 48 52 67
16 19 11 10 11 12 14 12 14 12 21 19 23 31 29 38 46 66 76 72 62 48 33 38 44 58 84 41 38 36 40 49 54 53 54 55 58 61 59 52 56 51 49 46
12 14 16 12 14 15 15 16 14 10 11 15 26 29 28 44 55 73 77 77 76 68 65 58 77 90 71 37 42 39 37 43 48 50 52 54 52 53 58 56 55 56 53 53
13 12 17 14 12 12 12 14 14 16 20 12 20 35 32 36 45 62 71 72 68 66 66 72 74 87 92 78 73 87 45 36 39 45 51 50 50 51 50 57 55 57 61 54
14 14 19 18 14 13 14 13 14 11 11 21 15 38 34 36 42 51 64 63 65 62 59 64 69 70 74 77 75 83 84 85 44 40 40 47 48 49 51 52 55 57 59 59
31 13 18 20 17 13 17 15 14 14 16 17 18 42 40 41 53 60 60 60 58 59 58 54 56 69 71 82 91 86 85 73 70 78 50 45 50 49 48 54 56 53 60 61
16 20 18 16 14 13 14 14 14 16 15 18 34 36 36 38 42 52 55 54 56 56 55 55 56 58 63 69 77 81 84 82 84 72 62 76 50 53 54 56 60 60 58 59
15 23 21 19 15 13 14 12 13 14 15 16 25 41 35 34 37 39 43 50 54 54 50 48 49 50 53 60 67 79 80 80 84 84 82 79 86 85 75 60 63 65 68 65
24 19 26 21 16 14 16 13 13 12 14 14 27 36 34 37 37 38 40 42 45 46 46 44 43 42 44 43 49 61 78 74 82 83 80 81 83 86 90 82 77 76 72 67
27 31 23 22 24 29 17 14 10 12 14 18 30 33 33 35 36 35 34 38 40 39 39 38 33 36 41 38 40 46 46 73 80 80 79 86 84 84 85 89 84 81 79 80
18 26 24 25 22 20 20 21 15 15 22 18 26 29 30 28 32 41 36 36 38 37 35 35 32 33 38 39 38 43 43 46 51 62 76 81 82 85 85 86 90 88 91 84
17 26 25 26 34 26 23 19 20 14 24 24 24 27 26 25 27 42 38 33 33 32 33 35 34 31 32 38 34 40 39 42 49 53 56 58 69 80 82 82 84 90 88 89
34 33 32 28 32 24 28 26 21 29 38 30 25 29 28 27 39 41 34 35 33 33 35 36 36 36 38 37 37 45 44 44 48 50 50 54 59 65 77 87 88 86 83 89
37 42 34 32 37 44 28 27 29 44 37 32 33 33 33 34 33 33 34 35 35 35 35 34 37 38 39 40 41 47 52 51 53 53 55 58 58 56 51 67 84 86 84 86
44 31 43 29 45 44 33 32 36 31 37 36 33 30 32 32 33 34 36 37 36 37 39 36 38 42 42 44 46 52 55 55 56 56 59 58 57 54 57 63 62 52 72 74
33 32 42 44 36 38 34 32 30 26 28 28 28 29 29 32 33 35 36 37 39 41 44 40 46 49 54 55 55 55 53 52 54 58 59 53 53 52 50 45 42 38 40 46
42 41 46 44 35 37 36 30 30 30 30 28 30 30 32 33 35 36 38 42 42 44 44 46 50 54 56 55 57 52 53 53 51 52 48 47 42 43 44 46 39 42 46 50
31 45 68 75 38 40 34 36 32 36 35 34 33 34 36 36 38 39 40 42 45 47 48 51 54 56 58 62 61 60 61 67 65 56 44 39 39 37 36 35 34 64 70 77

GFSCGP_sfc_rhum_090.txt.gz
RH
14 14 15 13 16 17 17 19 28 37 35 37 49 59 59 55 47 42 41 38 33 33 29 27 26 26 32 43 51 55 63 70 66 65 75 72 74 78 79 89 79 74 68 73
13 12 11 10 11 14 17 16 37 42 34 78 54 60 51 56 62 62 60 40 40 36 32 30 28 26 30 45 53 61 67 72 70 65 71 71 84 81 72 72 69 65 70 64
13 9 8 9 10 11 14 16 29 35 36 58 75 84 58 59 57 53 46 44 38 40 38 32 33 31 31 46 53 61 70 72 72 70 72 97 98 96 89 70 66 67 67 64
11 8 8 9 9 9 13 14 23 42 27 36 30 70 63 60 66 57 52 53 51 40 45 34 35 38 31 43 47 61 68 72 68 72 74 78 83 90 79 70 77 70 70 65
12 10 9 10 9 9 13 14 22 22 18 17 19 45 85 78 52 56 54 51 51 48 37 33 36 42 35 39 42 56 67 75 71 75 80 73 81 93 94 94 79 81 80 68
10 7 8 10 9 12 12 12 16 18 15 22 27 26 74 92 75 48 44 45 43 42 37 39 40 48 50 35 38 54 70 76 75 73 78 80 84 92 92 91 86 79 71 67
12 9 8 9 12 12 12 15 25 25 22 20 19 25 69 80 85 81 52 45 42 43 42 37 45 44 46 40 42 54 69 76 73 72 72 76 79 80 87 83 78 84 86 66
15 19 10 10 12 15 14 16 21 32 23 17 14 40 54 56 69 53 39 42 72 72 44 38 42 42 45 48 44 51 68 75 73 70 75 77 77 83 66 71 80 72 86 84
16 16 9 12 13 18 15 19 12 15 13 15 28 36 40 45 52 54 54 58 61 71 49 41 38 43 46 44 44 49 67 72 71 67 73 77 77 77 66 70 73 65 79 88
18 24 13 13 13 16 17 12 18 16 27 24 34 42 46 48 62 66 68 71 73 70 77 75 77 53 51 53 75 48 59 67 68 66 68 68 71 74 74 77 74 69 72 76
14 19 15 12 16 18 17 18 17 13 14 20 37 42 35 50 61 68 69 68 66 75 83 89 97 97 81 88 92 94 76 62 62 63 66 67 67 68 71 70 68 68 67 84
15 16 19 13 9 10 12 15 15 20 26 29 64 77 52 49 56 63 69 67 64 72 78 84 77 83 91 95 96 96 95 89 61 59 67 66 67 67 67 71 69 72 75 71
20 16 21 16 12 11 14 13 12 12 14 38 38 48 54 51 60 62 64 65 66 65 76 80 80 79 86 93 94 98 98 96 94 80 56 59 61 65 65 72 69 72 74 74
30 16 25 32 20 13 16 13 13 14 18 20 46 47 62 61 62 63 60 60 60 62 65 70 76 84 83 90 93 92 90 93 96 95 87 88 63 60 60 69 74 69 74 74
15 22 20 22 14 12 12 12 12 16 17 48 52 46 57 58 58 61 59 56 56 57 56 58 59 64 68 73 81 88 90 92 91 86 92 96 95 81 63 71 77 72 74 71
14 24 21 21 14 12 14 12 12 12 13 24 52 64 57 49 49 52 53 54 54 52 49 49 50 51 55 61 68 71 75 87 91 88 89 91 97 93 88 89 83 77 76 76
21 22 24 27 17 15 18 13 13 12 13 32 50 67 48 45 47 47 45 46 48 47 44 44 45 45 46 47 55 67 71 66 72 80 81 87 87 88 88 86 88 88 83 84
27 31 27 27 22 30 16 12 10 12 12 24 36 41 40 38 39 36 36 40 42 41 41 40 36 41 45 39 43 51 53 68 74 77 76 79 82 82 84 88 89 92 90 92
17 26 27 29 28 22 18 18 12 13 16 23 37 41 38 37 37 40 34 35 38 37 37 36 33 34 47 42 46 53 51 56 60 63 70 77 83 82 82 84 91 90 94 95
15 23 29 28 33 33 29 16 14 10 20 18 27 33 33 35 44 43 35 31 31 31 34 36 34 32 37 42 40 45 46 50 58 61 63 65 68 73 74 82 85 86 87 87
29 29 30 28 31 25 25 21 16 23 31 21 23 26 27 36 42 41 35 36 33 33 34 35 37 39 43 42 42 52 52 53 55 58 60 64 67 71 71 76 80 83 83 83
34 37 34 30 34 38 25 22 26 44 33 25 27 27 38 38 38 36 35 36 34 34 34 34 38 42 43 45 49 56 64 62 63 64 65 68 70 61 57 75 78 76 79 88
42 38 45 43 50 40 32 38 34 31 36 35 35 30 31 32 33 33 36 36 37 39 42 37 41 46 48 58 61 64 71 68 66 66 68 68 68 67 69 73 72 66 67 76
31 28 41 43 43 39 33 32 32 30 32 30 28 30 29 30 32 35 36 37 41 42 44 42 46 51 57 58 59 63 65 66 70 70 69 65 64 63 63 54 49 52 52 51
44 36 41 42 35 35 35 30 28 27 28 26 26 27 28 31 33 35 40 44 42 45 45 48 52 53 55 57 61 58 64 69 65 69 65 61 51 55 56 58 52 50 55 53
34 38 59 66 39 41 37 33 29 30 29 29 29 31 32 32 38 38 42 44 48 48 49 52 54 55 57 57 60 67 63 69 67 65 59 57 56 52 50 50 49 55 63 71

GFSCGP_sfc_rhum_093.txt.gz
RH
20 26 30 24 20 18 23 31 45 69 54 75 77 74 74 68 56 48 43 38 38 34 36 34 36 45 52 56 62 60 68 80 76 86 83 86 91 79 89 87 77 79 84 78
25 29 20 14 14 16 20 24 69 67 64 68 80 77 69 68 55 46 52 45 38 36 36 38 40 45 51 59 64 78 72 80 73 80 83 91 92 95 93 90 81 81 84 89
25 19 15 12 14 15 18 22 49 53 66 80 73 85 77 67 52 54 54 48 43 43 37 42 37 48 52 60 69 79 81 78 80 91 93 95 94 92 93 91 92 78 73 78
19 15 12 11 12 13 21 16 25 53 57 73 59 96 86 73 77 63 55 59 53 43 45 36 35 44 52 57 63 80 81 78 77 84 86 85 87 93 92 93 90 79 74 78
18 14 14 12 11 11 13 27 32 36 43 65 67 86 88 81 78 71 60 57 52 41 43 36 45 41 50 54 61 74 77 80 76 82 90 93 90 92 96 96 88 88 85 76
14 10 11 12 9 9 10 18 31 46 56 56 54 72 97 95 78 80 59 55 53 49 51 43 42 47 50 51 58 68 83 84 84 83 85 87 88 88 94 90 93 89 92 82
14 12 11 10 15 13 16 25 40 54 57 53 36 62 93 76 76 74 75 77 53 61 48 45 52 51 49 50 60 67 83 88 89 86 86 84 88 86 84 82 94 90 93 90
25 23 14 12 18 20 21 27 39 49 44 33 32 93 81 68 61 74 80 77 78 76 76 61 51 49 51 48 59 64 79 90 87 86 88 85 87 94 86 81 88 90 92 79
36 22 12 11 12 14 26 27 20 29 28 34 64 74 72 61 69 74 84 80 85 87 84 78 66 49 47 50 56 64 76 76 78 88 87 92 91 89 86 82 80 80 89 88
31 36 19 11 16 23 43 27 32 34 40 54 74 82 85 77 74 78 85 90 90 92 84 87 85 86 91 91 73 71 87 81 75 73 79 85 92 88 89 86 82 88 86 86
29 36 28 19 27 30 30 36 40 32 36 46 84 86 88 83 79 81 82 85 89 90 93 95 96 97 96 95 95 95 95 95 96 81 74 83 89 87 90 86 83 78 89 91
34 30 35 24 17 18 23 28 31 42 42 53 80 98 87 75 77 77 79 84 85 88 91 94 96 96 97 98 97 96 95 95 96 97 96 72 79 85 89 91 84 82 83 89
31 42 45 34 36 17 19 20 22 24 40 45 56 96 91 82 74 71 76 79 80 82 88 91 91 95 97 98 97 98 97 97 98 96 96 96 90 78 89 88 83 83 86 87
47 28 51 59 43 24 23 19 18 35 39 52 68 94 83 81 80 73 76 72 73 73 76 82 90 95 96 95 96 96 97 97 98 98 97 98 98 97 91 91 88 89 86 86
34 40 38 30 26 16 17 16 16 27 43 52 66 83 80 77 76 69 67 65 64 68 69 71 74 80 83 88 89 93 96 96 97 98 97 98 98 98 95 96 93 88 90 88
23 46 29 36 19 17 17 15 15 16 44 54 65 86 72 72 66 64 62 59 59 58 56 58 64 69 69 72 74 82 91 95 93 96 97 98 98 97 96 99 97 91 85 85
36 43 36 38 31 24 26 21 18 18 40 54 80 94 80 65 62 59 55 50 50 54 56 58 58 60 61 71 74 80 80 76 86 92 93 95 96 95 96 96 97 98 98 98
40 48 55 51 43 49 28 20 17 19 32 62 77 77 67 62 53 52 50 54 54 54 53 54 58 61 60 60 63 82 85 86 86 86 88 92 94 94 93 94 97 98 98 98
26 43 51 50 51 34 25 21 20 27 55 57 67 57 43 43 47 52 47 50 55 54 52 50 55 62 62 62 60 67 74 76 76 79 82 85 86 87 90 94 97 97 98 97
28 43 46 54 65 50 44 26 20 22 70 48 45 46 44 42 60 68 49 44 46 49 49 52 53 57 61 61 62 67 73 75 79 78 78 82 83 83 87 90 92 95 96 95
46 49 52 50 61 45 39 24 20 32 57 51 50 48 47 68 59 53 50 49 48 52 48 51 59 65 66 67 71 77 81 84 79 76 77 80 81 86 78 86 88 87 89 92
59 59 59 54 66 68 38 29 51 63 51 49 51 51 54 52 51 53 52 50 48 52 53 55 66 69 72 71 72 82 82 82 79 80 79 81 82 76 71 85 91 88 87 89
65 65 77 74 80 60 59 57 51 50 56 51 49 46 46 48 52 51 54 58 61 60 61 60 67 76 76 78 79 84 88 79 80 81 81 84 80 80 81 88 82 82 84 80
57 50 68 71 61 53 52 50 46 44 45 42 43 40 41 48 46 56 57 62 63 61 64 67 70 74 80 80 79 82 84 83 80 77 77 72 74 73 73 75 76 79 75 76
68 60 62 66 64 56 47 46 39 45 41 40 40 36 46 47 51 56 65 65 65 67 68 69 73 76 80 78 84 81 78 83 80 79 73 72 69 70 66 62 66 62 65 68
74 84 93 91 61 62 58 50 41 43 42 41 42 45 43 49 55 62 68 70 67 70 71 76 76 80 86 82 76 78 76 84 92 85 76 75 71 71 69 70 66 68 73 75

GFSCGP_sfc_rhum_096.txt.gz
RH
30 28 31 27 26 23 24 27 74 80 78 76 82 82 76 73 67 56 43 50 39 42 42 46 48 50 55 60 58 69 80 85 86 85 92 94 95 92 92 90 85 87 86 80
29 31 23 20 20 21 25 34 75 74 73 78 80 81 75 74 81 55 50 49 40 39 43 50 50 51 56 63 60 76 77 80 83 86 90 93 97 95 94 91 86 88 86 84
32 24 19 20 22 19 20 25 68 72 69 68 72 90 90 71 68 54 50 45 39 40 45 54 56 52 55 66 72 73 82 73 84 89 96 97 94 93 95 93 92 86 84 87
26 20 19 22 22 18 25 17 41 75 74 93 66 96 90 80 76 56 56 57 46 38 42 52 56 58 54 63 70 74 80 81 88 92 89 87 87 93 95 92 93 92 85 86
23 21 20 21 17 14 15 13 36 57 70 74 82 84 93 84 82 68 65 57 51 42 40 46 54 57 55 61 71 68 77 82 90 87 88 87 85 92 95 94 90 92 91 84
19 14 16 16 13 12 10 39 44 64 68 79 78 78 98 91 81 67 58 59 52 48 51 41 47 52 58 58 70 70 77 81 86 87 90 86 87 92 94 93 96 96 94 94
26 20 14 13 16 17 15 34 62 75 77 63 63 81 78 70 65 63 59 59 79 78 57 50 49 55 59 62 71 77 77 83 89 87 90 90 90 90 89 88 95 94 95 94
39 35 17 13 16 19 23 30 47 68 59 51 54 73 76 69 69 65 71 75 76 79 81 74 66 58 58 60 68 72 82 82 93 90 91 89 90 94 95 86 93 95 94 90
44 30 18 17 14 15 23 35 28 41 47 53 85 85 69 82 88 88 84 82 85 79 81 80 80 74 55 60 66 69 83 84 89 92 90 89 93 91 82 84 84 94 93 90
37 38 28 20 16 25 22 27 32 41 46 65 92 93 95 87 96 90 92 96 94 90 84 86 87 86 90 87 79 82 83 87 90 92 85 90 92 91 92 92 90 90 88 91
42 39 33 28 32 33 32 37 34 35 41 70 93 94 86 89 87 96 96 94 95 95 95 97 97 97 97 95 94 98 98 96 97 95 96 95 94 90 92 92 89 95 91 92
42 43 48 34 20 23 29 33 39 41 36 76 93 98 86 88 89 89 95 94 93 94 97 96 95 97 97 97 98 98 98 96 97 97 97 97 94 94 93 93 92 92 90 91
29 44 57 38 26 20 23 26 30 35 46 58 78 93 91 88 90 89 91 92 93 92 94 96 97 97 98 97 98 98 98 98 98 97 96 98 98 96 94 92 89 94 86 88
51 44 54 54 35 35 24 20 25 33 58 74 94 95 95 92 93 87 84 81 82 84 90 89 96 98 96 97 98 98 98 98 98 98 95 97 98 99 98 98 97 95 94 89
37 48 45 30 29 26 21 19 27 47 51 54 93 89 82 92 85 80 75 73 79 76 74 81 87 91 90 94 96 97 97 98 98 97 96 98 98 98 97 97 98 98 96 95
33 38 39 37 26 28 21 22 29 35 56 74 84 97 82 77 74 72 70 69 72 72 71 70 72 72 75 79 85 88 95 96 96 97 98 98 98 97 98 98 98 97 98 97
44 44 47 49 37 29 30 26 21 41 57 82 92 88 79 76 72 70 64 59 57 56 57 62 70 69 71 71 70 77 79 78 89 94 95 97 98 98 98 97 96 97 98 98
44 54 58 53 47 50 29 26 26 61 68 78 83 80 75 71 62 54 50 54 55 56 60 62 64 62 60 72 87 91 78 76 80 87 93 96 96 96 96 94 95 96 97 98
30 54 57 51 63 40 31 30 29 61 92 75 79 72 64 57 57 58 50 51 54 56 60 68 64 64 65 69 75 77 78 77 76 77 77 80 86 90 93 94 95 96 97 98
33 49 51 64 71 50 41 27 21 51 98 76 66 62 55 54 74 68 52 49 49 52 59 64 66 66 71 78 74 76 83 82 85 82 80 81 78 81 84 86 90 95 96 96
52 56 51 53 64 55 46 34 27 49 71 79 55 55 53 60 61 56 51 52 50 52 61 71 76 80 85 84 79 87 88 92 92 86 83 80 79 75 75 81 85 90 83 80
67 59 67 63 68 60 49 48 61 64 75 75 76 71 70 61 53 53 53 60 60 62 70 71 75 80 83 82 85 94 92 92 89 86 83 84 84 79 75 82 79 77 79 85
71 67 82 78 83 64 61 58 54 59 68 72 80 74 62 59 59 64 65 62 64 64 70 73 78 84 87 86 89 92 92 89 83 85 88 85 78 73 74 85 83 76 76 83
70 61 76 79 69 65 55 50 48 46 51 61 69 68 56 52 56 63 61 63 66 71 75 76 81 86 87 89 87 92 90 86 86 88 87 85 85 82 80 74 71 72 70 69
76 71 69 76 74 62 49 46 50 50 46 41 44 48 53 56 61 62 66 68 70 75 76 78 87 90 93 90 88 85 88 90 92 91 89 92 85 89 87 80 83 76 77 86
90 85 88 88 81 79 64 51 45 46 47 48 50 53 58 55 62 62 67 70 73 80 82 85 92 93 89 84 90 89 89 89 91 93 94 95 90 89 84 85 77 81 81 83

GFSCGP_sfc_rhum_099.txt.gz
RH
34 36 36 30 26 25 28 27 78 83 92 87 83 79 71 73 68 53 49 55 51 60 53 54 56 58 62 66 76 81 86 91 89 91 95 96 93 89 90 92 87 92 90 88
34 36 26 22 22 21 28 44 88 77 78 78 74 81 73 78 69 51 55 51 55 52 55 57 59 60 62 66 74 84 83 89 86 89 93 93 95 95 96 95 88 89 86 83
39 28 21 21 25 24 24 28 82 77 72 75 79 84 84 76 72 72 52 45 49 51 59 59 64 62 63 66 71 81 86 84 88 91 97 97 96 96 95 94 93 91 84 84
32 24 22 28 27 23 45 27 38 75 79 86 70 86 89 86 88 83 57 50 48 48 57 57 59 62 62 62 65 78 85 82 89 93 91 90 90 94 96 94 93 92 91 88
28 25 25 26 23 18 21 22 42 64 84 83 80 81 84 82 83 85 64 57 45 47 54 59 57 57 59 61 64 76 84 88 92 93 89 89 91 93 94 95 91 91 91 91
23 19 19 20 18 16 20 48 67 81 86 87 80 78 89 95 76 78 60 61 52 43 53 55 52 54 57 65 65 74 84 92 93 90 90 86 88 92 95 94 95 96 95 96
28 26 20 15 20 20 21 63 85 89 88 74 81 88 78 78 67 63 62 67 58 52 54 54 58 58 59 69 72 71 81 90 95 93 91 87 87 91 91 89 95 96 96 96
42 37 22 17 18 18 27 42 64 72 74 70 78 85 81 82 61 61 56 64 81 74 72 64 61 59 59 65 75 68 72 84 90 93 92 91 91 94 96 88 96 96 95 91
47 38 23 16 16 17 28 32 33 51 61 62 92 89 78 83 83 72 88 83 88 84 82 78 82 80 62 63 72 69 70 75 86 92 95 93 94 93 89 89 90 95 93 92
39 42 33 22 21 28 21 25 35 44 54 75 94 96 95 96 97 96 99 98 97 94 92 83 84 86 80 76 77 73 84 79 94 94 94 91 93 92 91 91 90 91 91 92
60 49 36 32 33 36 36 40 42 42 60 72 94 91 90 90 94 95 96 96 95 93 97 96 97 97 94 96 97 98 97 97 94 96 96 94 95 93 93 93 90 93 93 92
45 48 50 34 28 26 37 34 38 42 59 92 92 96 88 91 94 93 91 97 97 97 98 97 98 97 97 97 96 97 97 98 98 97 96 95 95 96 96 94 92 92 92 92
32 45 52 37 28 27 24 25 52 41 60 85 84 98 91 92 97 95 96 96 97 97 97 98 98 99 98 97 97 97 97 98 97 98 98 99 99 98 97 96 96 94 92 92
44 50 51 47 37 40 27 24 31 36 45 82 93 96 98 93 95 93 90 87 89 93 96 98 98 99 98 99 98 98 98 97 99 98 97 98 99 97 98 98 98 98 96 92
40 45 47 35 33 34 25 26 27 36 50 49 91 90 90 88 87 92 83 84 80 82 85 88 92 94 97 98 98 97 98 98 98 99 99 99 98 98 98 98 98 98 98 98
40 52 48 47 30 32 27 26 31 58 80 87 81 93 82 86 87 87 80 76 76 74 74 73 81 86 85 89 90 90 96 98 97 98 99 99 98 98 98 97 97 98 97 98
55 48 62 63 43 28 37 30 32 64 79 73 84 83 86 89 86 83 80 74 72 68 70 76 86 92 88 87 80 88 88 84 92 95 96 97 98 98 98 97 96 96 98 97
43 53 61 76 56 58 34 30 60 82 83 84 91 86 83 82 78 75 66 64 62 61 62 62 65 77 82 79 70 68 72 76 80 85 90 91 94 97 96 96 96 96 97 97
41 58 65 55 64 51 36 31 30 70 92 85 85 82 73 65 61 63 58 55 58 59 62 64 66 74 76 76 74 75 75 74 74 74 74 76 85 93 91 92 94 95 96 96
39 46 52 68 56 64 49 38 38 68 95 75 76 77 65 64 85 69 56 53 60 62 63 72 76 75 78 83 77 77 83 87 92 91 84 80 77 72 75 86 90 92 92 92
61 64 54 66 64 58 47 51 42 50 60 78 75 77 70 81 84 74 58 62 61 68 73 73 75 84 93 92 81 88 84 90 92 84 83 82 81 80 83 79 75 74 84 79
73 64 71 70 71 63 55 51 45 56 85 83 83 88 90 83 72 70 72 70 73 73 70 71 81 87 92 87 79 91 90 86 82 83 82 84 82 76 76 87 76 69 65 64
71 69 83 79 82 68 68 73 65 68 80 86 81 87 77 77 75 73 75 76 76 72 75 78 83 90 94 92 86 92 93 86 83 85 86 84 81 80 82 86 86 76 72 70
75 73 86 80 74 68 56 56 60 73 79 80 79 74 70 81 79 74 71 73 76 79 83 83 84 91 95 91 90 94 92 89 88 90 89 87 87 89 88 81 81 82 81 83
77 75 76 81 78 65 54 57 55 59 74 75 74 73 72 75 77 74 73 70 71 77 86 87 92 95 94 93 91 92 93 90 92 93 93 94 92 94 92 86 89 84 84 91
92 81 85 86 79 83 66 56 57 51 56 59 61 65 64 62 65 64 70 72 76 83 88 93 95 93 93 93 92 91 90 89 92 95 95 95 92 91 90 92 93 80 80 85

GFSCGP_sfc_rhum_102.txt.gz
RH
37 44 49 34 28 28 28 62 83 81 89 84 90 82 76 75 58 68 60 60 67 61 58 65 63 74 72 79 82 86 89 92 92 92 95 96 94 91 93 96 91 91 87 87
36 47 35 28 25 30 45 75 95 88 83 84 85 86 72 80 71 72 61 58 64 56 68 62 68 68 70 76 83 87 89 93 89 90 93 92 96 95 94 95 92 89 86 84
41 35 25 24 27 24 33 44 88 82 85 89 88 92 88 79 67 62 65 53 54 65 67 71 72 71 69 75 81 84 90 91 90 91 95 97 95 96 95 94 93 91 86 82
36 29 24 28 28 29 29 26 63 80 81 95 78 95 96 80 87 75 58 54 59 62 62 67 70 70 68 69 74 84 90 91 89 93 90 89 88 94 95 93 92 91 88 87
34 27 29 30 26 22 25 22 62 74 88 81 78 84 87 91 93 91 81 66 55 57 62 66 66 65 64 64 70 80 90 90 92 92 90 89 90 92 94 95 91 91 91 88
28 23 22 24 22 20 27 63 72 78 86 91 75 75 90 96 84 83 72 61 52 53 61 61 60 59 62 65 67 82 88 90 93 92 91 90 90 90 94 93 95 95 94 94
30 28 23 19 23 24 27 63 96 96 96 87 84 84 79 86 73 71 74 61 51 52 59 60 63 60 63 67 71 80 86 87 93 92 92 89 88 89 91 88 94 95 95 94
42 39 28 20 22 23 36 45 75 80 88 77 83 85 73 84 81 67 61 62 60 62 64 63 64 58 60 68 69 72 84 85 93 92 92 90 90 97 97 93 95 95 92 88
52 42 28 18 18 18 30 47 46 58 60 82 93 85 80 86 81 78 85 80 73 65 68 66 72 73 67 64 72 67 77 76 92 92 92 92 93 91 88 92 90 95 93 90
40 43 35 25 25 33 29 27 40 48 60 77 92 93 84 96 95 95 98 97 92 86 84 83 81 77 79 75 74 75 79 80 86 91 91 89 92 91 91 90 90 92 91 88
59 49 37 35 37 36 38 43 46 46 59 75 93 88 88 91 94 96 95 94 95 94 91 94 92 91 88 92 89 90 91 93 94 93 93 93 92 89 91 89 89 91 90 92
48 52 53 37 32 32 40 40 41 46 65 86 83 92 88 91 89 94 97 96 97 96 97 97 96 93 94 95 97 98 98 94 96 95 94 93 92 92 95 92 90 91 92 92
34 50 56 41 30 33 26 31 56 53 80 88 69 88 94 95 93 91 96 97 98 97 98 98 98 97 96 98 98 98 98 98 98 98 98 97 97 98 98 97 95 94 92 91
44 54 49 48 40 44 40 25 36 44 48 81 80 93 98 93 90 95 94 91 94 97 97 98 98 99 97 98 99 98 99 98 98 96 97 98 97 97 97 97 96 96 96 94
41 45 52 41 34 37 30 33 31 39 48 57 73 93 91 86 87 88 87 87 90 94 95 95 98 98 98 99 98 98 99 97 98 98 98 99 97 96 96 96 96 95 96 96
45 52 55 52 38 30 33 42 39 67 70 87 90 98 93 82 80 87 84 81 86 85 86 87 91 95 98 95 97 95 98 98 98 98 98 99 99 97 96 96 94 94 95 95
56 60 63 61 50 36 45 36 55 51 84 89 92 88 90 93 86 82 79 80 81 80 81 88 93 96 94 93 92 92 92 89 94 96 98 98 98 97 97 95 94 95 95 94
43 62 68 75 61 60 45 37 53 90 90 90 96 90 86 87 88 81 74 79 80 77 80 84 88 89 85 81 77 79 71 75 78 81 88 95 94 94 95 96 96 95 96 96
45 50 68 62 76 61 45 37 41 71 88 89 94 86 86 76 70 71 64 65 66 66 71 78 74 80 80 78 76 75 77 81 81 80 80 82 86 89 88 90 94 94 94 95
39 48 49 66 62 77 63 48 50 70 66 82 85 87 79 74 91 77 61 62 63 69 78 82 76 72 73 77 73 74 77 77 80 78 77 80 81 86 89 91 92 93 94 92
61 62 56 66 63 57 48 53 52 51 54 88 84 84 81 92 93 80 66 67 72 78 80 78 80 81 83 82 73 81 81 86 82 79 77 79 81 82 84 83 79 84 90 86
72 63 70 69 64 53 60 50 49 53 74 88 86 84 88 91 80 79 77 82 80 83 80 79 83 85 86 81 76 84 86 83 83 81 81 82 83 74 76 86 82 79 78 77
70 68 81 72 74 66 71 70 64 73 87 90 90 92 84 80 83 84 87 77 78 82 83 82 84 87 87 83 80 84 89 85 83 81 84 83 80 78 81 82 83 76 80 76
75 78 87 79 72 69 61 64 78 84 88 91 89 87 81 86 84 86 91 82 76 76 82 81 84 85 89 86 84 88 87 85 84 86 86 80 80 79 78 75 74 76 78 77
77 79 80 81 75 66 58 61 70 85 82 84 86 84 83 82 84 86 85 80 76 81 81 81 81 86 88 86 88 87 86 84 85 85 79 78 77 78 77 77 78 73 78 80
89 76 85 89 77 77 70 72 61 72 82 79 83 87 82 78 82 84 91 91 81 80 82 84 87 88 90 88 89 88 86 85 85 82 77 78 76 77 78 76 74 83 84 85

GFSCGP_sfc_rhum_105.txt.gz
RH
24 33 42 34 21 21 36 39 66 81 81 80 81 76 94 91 71 67 63 59 54 52 48 49 51 53 53 57 63 66 70 75 72 73 66 66 61 65 65 64 70 71 69 72
25 33 34 23 19 20 45 56 72 77 80 78 85 81 80 86 80 58 62 53 50 53 49 54 53 51 51 58 64 70 72 77 73 67 68 62 68 82 70 71 76 69 68 71
21 24 26 23 21 23 27 39 68 61 72 77 82 90 86 79 71 66 58 49 46 46 48 54 61 52 52 56 65 69 73 75 72 71 72 75 73 73 79 77 67 67 68 65
30 22 25 20 21 20 28 23 54 68 61 61 62 93 88 79 89 80 60 53 46 44 46 48 51 53 52 55 58 66 72 75 72 76 70 81 65 87 88 89 70 66 70 67
27 23 22 21 19 20 24 21 55 53 62 61 74 78 73 82 85 80 73 50 42 44 44 47 50 53 49 52 56 61 71 77 74 77 72 63 67 68 83 66 82 75 80 74
21 17 18 18 17 20 41 44 54 60 65 71 55 63 79 87 71 67 63 62 43 41 45 51 46 56 54 50 54 59 72 78 77 77 75 78 77 76 66 67 68 85 67 80
22 19 16 15 17 20 32 42 52 61 66 46 53 63 42 63 59 58 56 56 53 44 44 48 51 54 57 59 55 57 69 76 75 76 74 73 77 75 76 72 63 68 62 64
25 24 19 16 16 18 28 27 33 54 49 44 63 62 45 58 53 52 53 49 52 48 44 47 51 51 58 56 58 57 63 71 73 74 76 76 76 65 64 69 65 63 66 72
26 25 21 16 15 14 20 22 20 33 41 41 60 59 53 65 66 56 55 58 56 54 49 50 54 55 56 66 60 59 66 70 69 66 72 76 76 74 68 74 72 65 72 64
25 26 21 19 14 18 16 14 21 28 46 46 60 63 56 77 67 58 60 60 53 49 55 62 68 56 56 62 60 64 62 67 70 67 69 69 72 73 72 72 75 77 72 73
27 27 25 24 20 18 20 20 23 21 30 33 46 51 59 66 70 74 69 62 61 59 64 69 68 66 79 75 75 67 67 73 86 66 72 76 75 70 73 74 76 74 73 75
26 27 30 24 21 21 22 17 19 21 38 42 46 49 71 64 70 75 79 76 68 60 61 63 71 84 81 92 92 84 85 77 72 82 72 70 71 74 75 75 75 77 77 75
26 32 33 27 18 20 21 19 24 28 30 43 29 43 75 76 86 81 81 80 86 86 88 87 84 82 86 93 97 91 92 92 81 80 91 79 80 78 83 79 78 79 77 76
38 30 34 29 28 26 25 22 24 25 21 31 30 62 84 87 89 88 88 90 94 92 94 96 96 93 95 97 98 98 96 96 95 94 94 94 88 82 79 83 83 79 79 78
28 32 30 27 26 23 29 40 25 25 26 28 35 54 62 79 80 84 87 90 95 96 96 96 98 97 92 94 93 96 98 97 97 98 96 97 97 87 80 82 81 81 81 80
29 39 36 32 28 20 24 37 36 38 38 43 41 51 53 69 73 86 85 86 89 91 91 93 97 98 97 91 85 88 89 93 97 97 98 96 95 88 87 82 82 82 81 81
38 46 43 34 35 30 27 29 50 58 54 55 49 56 64 83 84 83 81 80 83 85 89 95 97 97 98 98 95 97 96 94 96 98 98 98 98 96 91 83 82 82 82 80
42 49 46 46 38 42 30 25 38 63 67 64 64 67 70 76 75 73 67 74 79 84 94 94 92 95 96 94 91 87 85 85 90 91 93 94 95 92 86 84 91 86 80 79
35 40 42 38 42 42 31 32 35 39 44 68 70 76 78 78 77 82 69 65 68 77 86 89 83 86 88 89 86 86 84 86 83 82 83 84 85 80 76 78 85 89 86 86
30 43 33 44 45 48 46 35 35 47 42 67 65 77 84 80 93 86 68 63 67 76 77 84 86 84 78 78 77 81 78 79 77 76 77 78 77 74 75 77 81 82 86 86
43 42 39 45 46 37 39 42 40 39 44 61 66 69 74 76 63 71 72 74 77 75 75 73 73 74 74 66 65 75 72 74 70 71 73 78 74 78 76 76 72 77 73 78
51 45 42 48 43 41 47 41 45 52 51 63 66 67 70 72 69 70 76 81 78 69 74 72 66 62 61 60 59 68 74 70 70 70 71 74 73 61 66 77 77 76 71 73
55 48 55 48 50 58 53 54 52 53 60 67 71 66 68 71 74 77 78 76 71 67 63 56 58 64 62 63 60 66 74 70 70 71 71 72 71 69 70 70 71 61 67 64
55 57 60 64 59 51 48 48 59 65 64 69 68 67 65 73 72 74 76 74 67 64 64 58 59 61 66 65 65 66 67 68 68 70 70 64 64 67 63 54 55 55 56 57
53 58 59 57 55 53 49 53 56 66 70 70 68 65 68 70 72 76 80 87 88 75 64 61 61 61 66 65 66 62 65 64 61 60 57 55 52 56 60 60 56 57 65 64
55 54 66 60 59 60 55 56 50 56 67 68 71 73 69 71 77 81 89 92 95 93 77 70 66 66 66 64 65 66 64 61 54 51 46 45 44 45 47 46 52 85 79 84

GFSCGP_sfc_rhum_108.txt.gz
RH
12 16 32 28 20 19 28 32 64 66 66 88 84 89 89 75 57 42 38 36 35 35 34 37 36 35 39 45 50 54 57 62 56 53 47 45 44 45 45 44 55 58 56 60
15 16 18 26 21 18 26 31 56 66 64 70 77 81 85 84 65 41 39 34 33 35 34 37 38 37 36 44 49 58 59 65 67 49 49 44 46 44 44 46 55 57 57 60
12 11 23 27 20 20 29 33 42 56 72 74 73 78 96 92 74 48 38 34 31 34 34 37 40 38 37 43 50 55 60 62 68 54 53 56 74 72 70 63 49 50 56 55
11 14 21 26 22 18 23 25 36 47 50 67 63 82 83 93 85 63 47 39 32 34 34 35 37 38 37 40 46 53 57 61 59 67 56 65 62 75 46 51 46 50 58 54
16 16 22 25 23 19 23 21 33 35 36 40 47 58 70 82 87 82 67 41 32 31 33 32 35 38 34 38 42 49 59 66 59 70 70 70 55 45 45 47 60 64 62 56
17 15 17 16 16 18 23 27 33 38 36 34 38 48 74 61 56 46 60 42 34 30 30 31 31 35 35 35 40 45 61 69 65 67 64 69 63 57 64 62 71 48 47 49
19 18 15 14 18 21 30 33 46 52 44 40 30 41 35 44 47 40 38 47 38 30 30 32 33 40 42 39 41 45 58 68 65 62 61 63 64 64 64 63 48 55 48 49
18 21 16 14 14 19 24 31 33 54 43 33 42 40 36 37 40 39 35 37 42 34 29 29 34 36 52 41 42 44 54 63 62 62 64 64 68 50 73 57 45 45 69 48
16 17 12 12 12 12 20 24 19 23 22 33 43 38 40 48 44 41 39 40 40 41 34 33 33 36 40 41 44 46 51 59 58 55 62 65 62 60 75 60 72 49 56 46
16 19 13 12 11 11 12 14 22 22 32 34 37 36 28 53 53 44 42 41 39 47 44 37 34 38 39 39 42 46 47 55 54 52 55 53 54 59 60 61 62 64 59 61
14 16 18 15 14 12 14 15 13 13 17 23 30 32 33 46 46 43 40 39 40 42 49 52 49 44 47 45 61 65 50 55 56 51 53 53 52 51 58 64 54 58 63 71
18 16 19 15 12 10 10 13 12 15 24 21 22 42 49 46 43 45 45 42 38 40 40 53 74 70 76 65 62 72 60 61 58 56 57 55 54 54 51 57 53 57 59 65
19 18 23 20 16 16 15 13 12 10 11 22 20 20 51 53 55 55 62 53 50 46 47 51 73 82 70 84 94 88 84 64 57 57 55 54 61 52 55 56 57 58 62 58
27 17 23 21 22 15 19 15 14 13 16 17 16 22 49 58 60 64 65 63 66 66 71 62 59 75 91 79 93 93 96 90 79 68 66 64 70 54 60 60 63 59 59 60
19 25 21 18 19 18 17 15 14 16 15 17 14 16 22 45 59 63 65 76 74 74 82 90 77 76 80 84 90 95 95 94 94 94 80 79 75 75 67 69 68 64 64 61
18 27 26 23 18 17 19 22 18 14 14 16 17 20 32 40 54 72 80 82 84 88 82 92 94 74 77 78 82 90 93 91 92 90 94 97 95 92 84 72 69 69 69 67
25 24 30 27 22 21 23 24 28 27 28 25 20 34 38 54 65 72 77 76 86 82 78 90 96 96 88 87 73 76 76 74 87 90 96 97 97 98 94 92 76 72 71 69
28 31 27 31 30 36 25 22 25 36 39 36 38 42 44 59 64 65 62 69 75 78 90 92 93 97 92 86 74 76 80 87 95 96 97 95 95 94 98 94 91 83 72 72
24 29 27 30 30 26 26 28 29 33 35 44 43 48 55 66 68 76 63 61 66 81 82 89 90 95 96 92 87 88 88 89 86 88 89 88 92 92 82 82 76 77 93 83
22 30 28 31 37 49 43 27 25 27 37 47 47 56 66 72 90 88 60 61 74 73 82 88 84 89 94 95 91 92 92 90 87 81 81 76 76 74 80 79 74 74 85 86
29 30 39 29 38 31 33 29 26 39 46 37 45 57 74 79 55 60 62 75 69 79 81 80 86 86 82 85 86 85 81 83 75 74 74 73 70 71 71 72 72 75 77 78
36 35 29 29 40 44 40 32 44 50 41 40 47 48 65 74 72 66 74 80 69 67 64 64 78 86 73 69 76 76 84 76 76 75 78 79 67 52 62 74 72 70 74 77
39 35 40 39 42 48 42 43 43 45 49 46 54 47 65 66 66 74 82 77 71 68 64 57 62 74 72 66 67 76 72 66 64 64 66 65 63 62 64 66 67 59 64 55
39 41 40 44 45 42 40 38 40 48 55 54 50 53 54 62 70 77 81 78 71 67 68 64 61 61 68 58 55 58 61 61 62 66 66 61 59 59 54 43 44 43 44 45
36 43 39 38 43 43 41 43 43 45 52 55 55 54 57 59 69 76 75 79 66 64 55 57 67 58 57 56 56 51 54 54 53 55 52 52 47 51 55 56 48 45 57 56
34 36 40 43 49 50 51 45 42 41 48 53 56 61 60 62 68 71 77 80 86 68 58 59 58 57 55 53 55 56 54 52 47 43 36 33 35 35 37 40 45 81 81 82

GFSCGP_sfc_rhum_111.txt.gz
RH
10 11 19 22 21 22 39 42 68 61 75 85 91 88 74 60 62 42 34 32 36 36 31 30 27 28 32 38 43 63 63 57 50 48 61 65 65 63 64 66 49 52 49 53
10 11 12 19 22 19 25 74 76 65 79 82 93 90 81 82 51 47 45 33 33 33 32 31 29 28 29 37 45 68 58 58 57 45 68 58 69 60 66 66 51 49 54 55
11 9 8 16 29 21 19 48 63 64 77 78 87 94 92 71 63 54 39 35 35 35 32 31 39 30 30 36 42 50 63 60 60 79 50 55 59 60 52 61 46 49 51 50
10 7 9 16 24 18 25 32 54 57 57 72 52 96 91 87 75 71 56 35 34 32 39 29 34 40 33 35 37 49 53 62 54 60 73 63 55 65 51 47 45 56 50 48
10 9 11 20 21 17 24 18 79 40 41 50 59 70 97 90 84 66 56 44 33 29 32 32 33 38 37 34 35 40 52 60 59 60 64 54 70 50 42 54 68 61 58 51
9 9 11 14 16 17 18 21 28 36 36 44 46 48 78 85 77 62 54 44 37 45 27 48 32 40 41 30 31 38 52 61 60 60 61 68 82 78 80 51 51 47 56 48
13 14 11 12 15 15 19 24 58 74 51 45 38 38 44 53 41 42 45 50 36 39 37 32 40 40 37 35 31 36 52 62 59 59 57 58 60 57 59 59 51 64 57 62
13 16 14 12 14 17 20 21 54 57 52 50 28 37 58 34 34 39 34 47 46 31 32 34 38 52 31 32 33 34 49 59 58 55 59 58 61 49 47 53 88 41 47 44
11 13 10 10 10 12 17 24 20 44 26 34 42 30 39 31 34 33 35 43 42 35 28 25 30 33 33 35 36 38 50 55 54 50 56 60 60 58 54 71 57 66 52 51
14 16 10 10 10 9 11 13 20 22 39 48 52 58 30 44 38 34 33 43 36 37 39 36 24 26 42 31 33 36 43 51 50 47 50 51 52 55 56 55 59 70 94 60
12 13 12 10 12 12 11 12 14 14 18 31 41 51 33 42 40 40 33 33 42 36 36 33 30 37 33 38 44 37 42 50 50 47 49 49 46 46 51 53 54 55 55 58
12 12 15 13 9 8 8 10 10 14 23 15 17 50 33 31 34 33 32 31 30 37 34 33 31 36 42 46 50 52 44 47 50 57 57 51 49 48 45 50 52 53 60 59
17 15 18 16 10 9 9 9 9 8 10 18 17 37 40 36 37 36 35 33 34 42 42 51 70 59 49 48 57 59 56 63 54 58 51 50 62 51 49 48 49 52 57 59
26 15 21 24 31 20 16 11 10 9 11 12 11 43 42 43 49 50 45 41 35 40 47 48 59 79 76 78 87 81 84 74 75 79 82 68 66 53 49 52 51 50 56 59
16 22 18 17 20 19 14 11 10 12 12 15 12 13 29 36 44 50 52 57 53 64 50 50 56 69 73 84 90 91 88 95 93 87 90 87 77 73 60 62 59 55 55 56
14 22 20 26 20 20 15 13 12 11 10 11 11 15 21 36 42 50 67 68 69 77 76 64 68 63 66 71 80 83 90 74 82 87 89 88 82 88 78 81 83 70 59 60
21 20 32 27 16 15 22 15 14 14 11 10 16 36 23 55 53 60 73 71 76 71 80 84 79 80 65 65 66 68 70 67 74 79 85 94 92 95 95 92 80 78 76 68
23 27 24 27 36 41 20 17 17 20 27 21 25 33 34 44 52 62 61 64 69 70 82 86 94 93 87 82 73 77 77 83 80 86 87 92 93 96 98 98 98 97 92 85
17 26 28 29 48 51 44 23 22 24 37 30 28 33 41 50 56 67 55 56 63 70 77 82 85 96 95 87 82 81 74 83 90 96 96 92 92 89 84 92 97 96 96 97
19 24 26 33 40 70 80 52 23 20 38 44 32 36 49 56 46 62 60 64 64 61 72 86 90 91 94 96 81 86 88 86 88 88 89 92 89 85 82 78 81 87 83 78
34 38 28 25 39 42 41 47 30 38 52 33 34 48 62 57 59 56 68 69 68 75 80 79 85 94 94 93 91 92 92 94 92 92 84 79 76 81 82 84 88 82 80 80
32 41 30 28 69 65 30 27 44 50 36 34 37 48 55 75 64 70 78 71 79 82 78 75 80 83 75 84 91 94 93 90 87 86 86 83 78 62 65 83 82 79 78 82
28 24 50 31 60 41 33 36 32 33 39 42 40 45 53 57 62 78 77 73 77 71 67 63 70 85 89 79 81 88 92 90 86 86 86 84 82 73 75 79 81 74 80 67
28 28 26 34 35 34 32 32 32 34 39 39 38 38 47 61 69 80 76 84 73 62 57 55 57 64 78 80 80 81 86 84 84 82 81 79 77 70 55 44 43 46 45 47
28 34 29 32 35 36 35 35 34 36 38 43 44 50 56 60 70 84 81 80 70 70 68 61 57 56 62 58 65 64 69 73 68 65 55 54 51 50 60 56 52 45 54 59
24 30 32 39 40 45 45 38 33 34 38 41 46 54 60 66 78 84 88 84 80 77 78 79 71 66 65 60 55 66 64 57 47 43 37 33 36 38 41 43 44 79 76 80

GFSCGP_sfc_rhum_114.txt.gz
RH
13 15 14 16 23 28 31 47 77 75 85 87 95 94 78 68 63 43 30 29 37 32 29 27 32 37 38 42 55 58 65 74 66 68 74 68 69 70 72 68 67 69 67 62
11 13 10 12 22 34 29 39 77 80 86 82 91 88 84 80 70 50 37 34 35 37 51 30 33 35 37 51 66 70 72 72 75 72 77 75 74 71 78 70 68 72 68 66
12 9 8 10 20 31 32 33 64 79 87 79 82 95 91 79 79 70 54 35 35 47 59 33 34 34 43 57 64 66 76 71 75 71 84 86 84 78 76 76 66 62 66 65
9 8 8 9 20 27 28 51 66 90 87 85 69 93 93 85 84 86 74 39 48 61 32 34 32 36 36 56 57 68 71 70 68 74 82 87 71 81 68 76 79 72 64 69
8 9 9 10 12 27 35 32 62 69 86 70 76 82 94 88 88 84 68 46 41 43 34 48 29 40 39 38 47 59 76 80 77 74 74 84 77 70 72 75 82 79 75 70
8 6 7 8 13 16 22 38 49 77 97 90 62 60 77 94 74 58 52 48 44 37 35 42 54 35 38 38 44 52 73 78 80 78 76 76 87 93 88 82 88 70 68 67
9 10 9 9 13 16 21 26 65 86 78 72 50 54 58 63 52 44 50 49 40 44 38 36 49 59 49 55 48 55 69 75 76 73 70 76 91 94 83 80 80 89 74 73
12 15 12 10 13 20 19 19 40 60 67 67 56 58 65 44 41 42 39 44 40 40 45 47 41 54 65 53 55 51 68 73 72 70 73 79 80 79 69 79 88 88 86 72
15 10 9 10 11 12 16 21 17 38 78 58 81 88 40 42 41 44 45 46 48 58 58 43 48 46 58 55 52 59 69 69 67 63 71 72 73 74 80 84 80 88 88 69
14 19 8 10 9 10 12 11 19 34 65 60 79 77 96 51 44 40 42 41 42 44 66 53 48 43 50 53 44 53 60 66 63 60 64 66 69 72 78 78 85 86 91 89
13 15 12 11 12 12 11 13 13 13 28 57 57 49 64 67 82 45 44 39 38 34 39 49 58 53 49 43 46 54 56 62 61 57 62 64 61 63 69 71 73 78 89 79
12 12 16 14 9 8 9 11 10 14 24 20 25 28 45 58 58 39 45 43 41 38 37 41 42 59 56 57 63 85 59 59 58 62 69 63 63 63 62 67 68 76 81 78
18 17 18 16 12 11 11 10 9 8 10 21 18 44 42 45 47 39 37 43 46 40 39 39 43 69 86 73 73 85 86 83 59 81 65 74 76 66 64 67 67 70 77 79
29 17 20 26 28 25 24 18 8 8 12 13 11 35 31 28 40 35 36 39 54 65 50 42 54 67 88 92 78 76 76 79 80 75 80 79 83 77 75 70 70 68 74 78
14 22 18 16 18 18 20 21 16 11 12 14 11 29 36 34 37 39 37 39 57 54 65 79 70 75 81 89 93 92 92 92 92 88 91 87 90 93 95 89 77 70 73 71
14 22 19 19 15 19 20 18 17 11 9 10 10 14 27 53 65 76 49 51 66 61 68 64 58 65 73 75 83 88 86 83 92 91 83 77 82 85 94 94 87 82 77 77
41 26 31 31 20 25 23 20 20 15 10 13 16 57 49 52 73 87 73 58 76 78 78 82 84 71 78 71 73 75 77 75 79 81 78 86 89 93 98 99 98 99 86 84
25 27 28 36 43 55 33 28 30 34 42 36 48 55 60 52 52 70 63 69 74 75 84 89 93 94 80 83 69 73 73 85 83 80 86 89 89 93 97 97 98 99 98 97
17 25 26 44 88 47 28 35 36 42 49 40 52 66 48 68 66 78 66 60 76 78 82 88 91 96 94 90 92 89 93 91 92 94 89 84 82 85 90 98 99 99 98 98
17 26 27 35 46 84 71 39 34 32 54 37 40 69 70 76 91 83 72 71 70 70 78 88 92 93 94 94 88 88 92 95 96 93 93 92 92 91 85 84 89 97 98 97
49 41 31 30 50 76 54 46 39 65 66 38 36 68 60 86 92 84 70 75 74 79 87 88 90 95 96 95 93 95 91 95 92 90 88 89 91 90 87 94 89 84 82 83
79 83 43 38 41 54 50 75 93 57 40 39 38 78 70 68 80 77 79 79 81 83 82 82 87 93 90 89 90 93 94 92 90 89 90 89 86 80 84 87 86 84 84 85
29 30 37 70 69 40 32 37 32 35 37 38 42 59 76 77 79 78 86 83 82 77 75 76 78 80 84 84 84 94 95 90 89 88 88 88 89 86 86 84 85 79 83 81
22 24 27 30 34 33 31 29 31 34 34 31 34 42 48 74 71 80 86 87 84 80 75 68 71 78 88 87 82 85 90 90 92 91 91 91 90 87 73 77 76 62 60 71
29 35 30 29 33 37 32 33 30 30 33 34 40 47 54 69 76 83 87 85 86 80 69 64 64 66 72 74 82 85 86 87 90 87 90 87 85 91 87 70 80 60 61 69
22 29 30 39 44 48 46 37 30 29 31 33 38 57 58 73 78 83 88 86 82 82 81 77 68 65 62 62 72 76 77 73 72 81 76 81 90 83 76 65 50 77 77 80

GFSCGP_sfc_rhum_117.txt.gz
RH
18 24 27 21 20 21 43 62 83 90 87 91 93 90 79 71 72 68 42 31 41 36 36 36 46 46 50 58 57 63 73 84 74 87 85 86 74 84 82 78 70 74 73 69
25 27 18 15 30 41 49 70 86 87 87 86 94 89 83 79 75 75 73 41 40 40 41 47 48 47 50 67 66 74 75 80 81 87 86 85 80 82 83 86 76 78 74 71
21 16 13 11 18 44 62 62 78 83 87 87 89 92 92 79 77 71 70 56 40 44 52 49 45 46 57 66 70 77 79 82 87 85 88 87 86 91 89 85 87 78 69 73
15 11 11 11 12 27 70 71 69 86 83 94 86 96 94 86 88 79 76 75 47 51 41 47 46 52 61 63 64 74 78 81 78 85 87 78 84 92 86 81 80 78 76 72
12 11 11 12 11 40 69 69 68 68 86 92 90 99 91 91 90 85 77 68 58 51 36 48 45 52 56 61 66 68 79 85 83 84 86 92 90 89 91 90 84 86 82 73
9 8 10 12 13 33 53 67 81 85 92 97 76 86 95 95 81 74 66 65 62 62 52 43 54 50 58 56 61 71 79 88 87 88 85 87 86 87 92 91 93 88 83 82
11 9 10 10 40 37 49 61 89 95 97 95 79 84 80 74 63 55 55 64 67 71 53 51 59 62 56 64 65 72 82 87 83 86 84 86 84 85 86 87 92 91 92 90
19 18 15 13 16 39 54 56 80 78 86 87 85 91 74 55 54 47 51 51 53 62 44 49 50 62 60 64 74 67 80 91 81 85 87 92 90 90 94 91 92 94 90 86
26 20 12 12 13 19 30 38 26 87 83 84 87 80 78 54 58 49 52 51 55 49 50 50 62 55 72 58 73 76 84 85 84 84 88 88 91 89 88 89 86 92 90 88
22 31 20 12 13 14 32 18 40 64 85 84 87 90 91 80 56 51 46 48 50 63 65 58 63 55 64 57 66 71 81 79 78 83 84 81 83 85 88 92 88 93 90 83
21 34 24 16 21 20 19 23 29 36 51 75 73 85 79 71 65 70 60 43 46 55 58 58 71 62 58 58 56 67 72 81 77 77 78 82 85 84 82 86 86 94 91 82
25 26 28 20 15 13 16 20 20 28 29 44 64 56 49 60 65 56 64 54 42 52 50 47 60 64 62 69 66 80 78 78 74 77 77 83 82 80 84 82 80 94 87 87
27 38 38 26 27 26 25 21 37 20 20 25 32 65 55 54 52 34 45 58 54 49 55 53 68 83 88 94 92 92 88 90 86 85 82 88 84 83 80 81 78 86 85 90
35 31 40 43 42 32 34 25 24 33 26 26 21 57 56 55 56 54 55 49 50 59 54 56 69 88 92 93 97 94 82 84 89 85 89 92 88 84 89 86 83 79 88 86
25 35 34 25 22 23 25 23 22 32 56 47 37 48 63 83 74 86 82 66 66 64 64 74 90 92 89 94 95 97 96 94 92 94 95 96 92 91 93 95 94 95 88 89
39 47 45 39 26 29 27 29 29 39 56 66 44 73 73 84 72 75 82 93 83 77 86 88 86 83 86 87 94 96 98 98 97 97 97 92 94 95 96 97 96 95 96 93
45 52 52 50 37 36 43 42 42 41 52 69 88 73 65 70 71 68 76 91 96 98 94 92 93 96 95 90 87 96 95 96 95 91 94 98 98 99 99 99 98 98 98 98
43 59 52 58 50 60 62 42 37 43 48 61 76 74 65 68 67 66 76 89 94 96 97 98 98 98 92 96 93 93 87 94 95 96 98 97 96 98 98 98 99 99 99 98
29 43 53 66 84 67 48 49 50 52 69 50 69 78 84 78 79 91 85 86 94 95 98 99 97 99 99 97 96 97 98 98 97 98 98 98 97 98 97 98 99 99 97 97
52 51 58 55 60 78 69 51 48 43 84 57 68 79 72 78 96 100 86 86 92 96 96 98 97 98 98 98 94 95 98 98 99 99 99 97 96 96 97 98 99 98 98 98
70 72 64 57 76 75 61 60 52 60 81 51 61 78 86 91 97 96 91 93 92 96 94 95 95 98 99 97 94 97 96 98 95 94 95 91 91 94 98 95 85 86 93 86
66 76 77 74 77 90 56 58 61 67 63 52 75 82 89 96 94 93 92 91 91 90 90 90 95 98 96 94 95 98 98 96 92 91 94 92 91 89 88 87 89 84 91 93
64 63 66 78 83 69 59 59 61 48 65 52 77 86 86 93 94 93 95 94 89 90 89 87 95 95 94 92 93 97 97 94 92 91 94 94 92 81 85 87 87 86 81 78
55 50 51 70 68 70 46 46 43 44 48 48 63 79 80 94 92 94 95 91 89 89 89 91 91 91 93 89 89 94 94 91 92 92 93 89 83 67 77 67 61 58 59 65
54 52 48 48 66 63 52 46 41 44 44 47 60 77 81 88 91 92 92 91 92 90 88 85 85 85 86 84 86 88 91 93 95 95 93 93 80 82 72 67 94 76 68 73
47 58 61 84 67 70 64 50 46 44 43 44 68 78 84 85 88 90 94 91 91 92 89 87 76 77 85 89 90 87 84 84 84 90 90 93 95 89 91 93 82 77 78 80